[[{"header":{"parameterUnit":"m.s-1","parameterCategory":1,"la1":31.0,"la2":29.5877,"lo1":-88.7671,"lo2":-86.6584,"dy":0.0162,"dx":0.0185,"nx":115,"ny":88,"refTime":"2024-06-19T00:00:00:Z","depth":0,"parameterNumber":2,"parameterNumberName":"U-component_of_WINDS"},"data":[0.0,0.0,0.0,0.0,0.0,0.0,0.0,0.0,0.0,0.0,0.0,0.0,0.0,0.0,0.0,0.0,0.0,0.0,0.0,0.0,0.0,0.0,0.0,0.0,0.0,0.0,0.0,0.0,0.0,0.0,0.0,0.0,0.0,0.0,0.0,0.0,0.0,0.0,0.0,0.0,0.0,0.0,0.0,0.0,0.0,0.0,0.0,0.0,0.0,0.0,0.0,0.0,0.0,0.0,0.0,0.0,0.0,0.0,0.0,0.0,0.0,0.0,0.0,0.0,0.0,0.0,0.0,0.0,0.0,0.0,0.0,0.0,0.0,0.0,0.0,0.0,0.0,0.0,0.0,0.0,0.0,0.0,0.0,0.0,0.0,0.0,0.0,0.0,0.0,0.0,0.0,0.0,0.0,0.0,0.0,0.0,0.0,0.0,0.0,0.0,0.0,0.0,0.0,0.0,0.0,0.0,0.0,0.0,0.0,0.0,0.0,0.0,0.0,0.0,0.0,0.0,0.0,0.0,0.0,0.0,0.0,0.0,0.0,0.0,0.0,0.0,0.0,0.0,0.0,0.0,0.0,0.0,0.0,0.0,0.0,0.0,0.0,0.0,0.0,0.0,0.0,0.0,0.0,0.0,0.0,0.0,0.0,0.0,0.0,0.0,0.0,0.0,0.0,0.0,0.0,0.0,0.0,0.0,0.0,0.0,0.0,0.0,0.0,0.0,0.0,0.0,0.0,0.0,0.0,0.0,0.0,0.0,0.0,0.0,0.0,0.0,0.0,0.0,0.0,0.0,0.0,0.0,0.0,0.0,0.0,0.0,0.0,0.0,0.0,0.0,0.0,0.0,0.0,0.0,0.0,0.0,0.0,0.0,0.0,0.0,0.0,0.0,0.0,0.0,0.0,0.0,0.0,0.0,0.0,0.0,0.0,0.0,0.0,0.0,0.0,0.0,0.0,0.0,0.0,0.0,0.0,0.0,0.0,0.0,0.0,0.0,0.0,0.0,0.0,0.0,0.0,0.0,0.0,0.0,0.0,0.0,0.0,0.0,0.0,0.0,0.0,0.0,0.0,0.0,0.0,0.0,0.0,0.0,0.0,0.0,0.0,0.0,0.0,0.0,0.0,0.0,0.0,0.0,0.0,0.0,0.0,0.0,0.0,0.0,0.0,0.0,0.0,0.0,0.0,0.0,0.0,0.0,0.0,0.0,0.0,0.0,0.0,0.0,0.0,0.0,0.0,0.0,0.0,0.0,0.0,0.0,0.0,0.0,0.0,0.0,0.0,0.0,0.0,0.0,0.0,0.0,0.0,0.0,0.0,0.0,0.0,0.0,0.0,0.0,0.0,0.0,0.0,0.0,0.0,0.0,0.0,0.0,0.0,0.0,0.0,0.0,0.0,0.0,0.0,0.0,0.0,0.0,0.0,0.0,0.0,0.0,0.0,0.0,0.0,0.0,0.0,0.0,0.0,0.0,0.0,0.0,0.0,0.0,0.0,0.0,0.0,0.0,0.0,0.0,0.0,0.0,0.0,0.0,0.0,0.0,0.0,0.0,0.0,0.0,0.0,0.0,0.0,0.0,0.0,0.0,0.0,0.0,0.0,0.0,0.0,0.0,0.0,0.0,0.0,0.0,0.0,0.0,0.0,0.0,0.0,0.0,0.0,0.0,0.0,0.0,0.0,0.0,0.0,0.0,0.0,0.0,0.0,0.0,0.0,0.0,0.0,0.0,0.0,0.0,0.0,0.0,0.0,0.0,0.0,0.0,0.0,0.0,0.0,0.0,0.0,0.0,0.0,0.0,0.0,0.0,0.0,0.0,0.0,0.0,0.0,0.0,0.0,0.0,0.0,0.0,0.0,0.0,0.0,0.0,0.0,0.0,0.0,0.0,0.0,0.0,0.0,0.0,0.0,0.0,0.0,0.0,0.0,0.0,0.0,0.0,0.0,0.0,0.0,0.0,0.0,0.0,0.0,0.0,0.0,0.0,0.0,0.0,0.0,0.0,0.0,0.0,0.0,0.0,0.0,0.0,0.0,0.0,0.0,0.0,0.0,0.0,0.0,0.0,0.0,0.0,0.0,0.0,0.0,0.0,0.0,0.0,0.0,0.0,0.0,0.0,0.0,0.0,0.0,0.0,0.0,0.0,0.0,0.0,0.0,0.0,0.0,0.0,0.0,0.0,0.0,0.0,0.0,0.0,0.0,0.0,0.0,0.0,0.0,0.0,0.0,0.0,0.0,0.0,0.0,0.0,0.0,0.0,0.0,0.0,0.0,0.0,0.0,0.0,0.0,0.0,0.0,0.0,0.0,0.0,0.0,0.0,0.0,0.0,0.0,0.0,0.0,0.0,0.0,0.0,0.0,0.0,0.0,0.0,0.0,0.0,0.0,0.0,0.0,0.0,0.0,0.0,0.0,0.0,0.0,0.0,0.0,0.0,0.0,0.0,0.0,0.0,0.0,0.0,0.0,0.0,0.0,0.0,0.0,0.0,0.0,0.0,0.0,0.0,0.0,0.0,0.0,0.0,0.0,0.0,0.0,0.0,0.0,0.0,0.0,0.0,0.0,0.0,0.0,0.0,0.0,0.0,0.0,0.0,0.0,0.0,0.0,0.0,0.0,0.0,0.0,0.0,0.0,0.0,0.0,0.0,0.0,0.0,0.0,0.0,0.0,0.0,0.0,0.0,0.0,0.0,0.0,0.0,0.0,0.0,0.0,0.0,0.0,0.0,0.0,0.0,0.0,0.0,0.0,0.0,0.0,0.0,0.0,0.0,0.0,0.0,0.0,0.0,0.0,0.0,0.0,0.0,0.0,0.0,0.0,0.0,0.0,0.0,0.0,0.0,0.0,0.0,0.0,0.0,0.0,0.0,0.0,0.0,0.0,0.0,0.0,0.0,0.0,0.0,0.0,0.0,0.0,0.0,0.0,0.0,0.0,0.0,0.0,0.0,0.0,0.0,0.0,0.0,0.0,0.0,0.0,0.0,0.0,0.0,0.0,0.0,0.0,0.0,0.0,0.0,0.0,0.0,0.0,0.0,0.0,0.0,0.0,0.0,0.0,0.0,0.0,0.0,0.0,0.0,0.0,0.0,0.0,0.0,0.0,0.0,0.0,0.0,0.0,0.0,0.0,0.0,0.0,0.0,0.0,0.0,0.0,0.0,0.0,0.0,0.0,0.0,0.0,0.0,0.0,0.0,0.0,0.0,0.0,0.0,0.0,0.0,0.0,0.0,0.0,0.0,0.0,0.0,0.0,0.0,0.0,0.0,0.0,0.0,0.0,0.0,0.0,0.0,0.0,0.0,0.0,0.0,0.0,0.0,0.0,0.0,0.0,0.0,0.0,0.0,0.0,0.0,0.0,0.0,0.0,0.0,0.0,0.0,0.0,0.0,0.0,0.0,0.0,0.0,0.0,0.0,0.0,0.0,0.0,0.0,0.0,0.0,0.0,0.0,0.0,0.0,0.0,0.0,0.0,0.0,0.0,0.0,0.0,0.0,0.0,0.0,0.0,0.0,0.0,0.0,0.0,0.0,0.0,0.0,0.0,0.0,0.0,0.0,0.0,0.0,0.0,0.0,0.0,0.0,0.0,0.0,0.0,0.0,0.0,0.0,0.0,0.0,0.0,0.0,0.0,0.0,0.0,0.0,0.0,0.0,0.0,0.0,0.0,0.0,0.0,0.0,0.0,0.0,0.0,0.0,0.0,0.0,0.0,0.0,0.0,0.0,0.0,0.0,0.0,0.0,0.0,0.0,0.0,0.0,0.0,0.0,0.0,0.0,0.0,0.0,0.0,0.0,0.0,0.0,0.0,0.0,0.0,0.0,0.0,0.0,0.0,0.0,0.0,0.0,0.0,0.0,0.0,0.0,0.0,0.0,0.0,0.0,0.0,0.0,0.0,0.0,0.0,0.0,0.0,0.0,0.0,0.0,0.0,0.0,0.0,0.0,0.0,0.0,0.0,0.0,0.0,0.0,0.0,0.0,0.0,0.0,0.0,0.0,0.0,0.0,0.0,0.0,0.0,0.0,0.0,0.0,0.0,0.0,0.0,0.0,0.0,0.0,0.0,0.0,0.0,0.0,0.0,0.0,0.0,0.0,0.0,0.0,0.0,0.0,0.0,0.0,0.0,0.0,0.0,0.0,0.0,0.0,0.0,0.0,0.0,0.0,0.0,0.0,0.0,0.0,0.0,0.0,0.0,0.0,0.0,0.0,0.0,0.0,0.0,0.0,0.0,0.0,0.0,0.0,0.0,0.0,0.0,0.0,-0.8302,0.0,0.0,0.0,0.0,0.0,0.0,0.0,0.0,0.0,0.0,0.0,0.0,0.0,0.0,0.0,0.0,0.0,0.0,0.0,0.0,0.0,0.0,0.0,0.0,0.0,0.0,0.0,0.0,0.0,0.0,0.0,0.0,0.0,0.0,0.0,0.0,0.0,0.0,0.0,0.0,0.0,0.0,0.0,0.0,0.0,0.0,0.0,0.0,0.0,0.0,0.0,0.0,0.0,0.0,0.0,0.0,0.0,0.0,0.0,0.0,0.0,0.0,0.0,0.0,0.0,0.0,0.0,0.0,0.0,0.0,0.0,0.0,0.0,0.0,0.0,0.0,0.0,0.0,0.0,0.0,0.0,0.0,0.0,0.0,0.0,0.0,0.0,0.0,0.0,0.0,0.0,0.0,0.0,0.0,0.0,0.0,0.0,0.0,0.0,0.0,0.0,0.0,0.0,0.0,0.0,0.0,0.0,0.0,0.0,0.0,-0.8449,-0.8824,-0.8838,-0.8859,-0.8894,0.0,0.0,0.0,0.0,0.0,0.0,0.0,0.0,0.0,0.0,0.0,0.0,0.0,0.0,0.0,0.0,0.0,0.0,0.0,0.0,0.0,0.0,0.0,0.0,0.0,0.0,0.0,0.0,0.0,0.0,0.0,0.0,0.0,0.0,0.0,0.0,0.0,0.0,0.0,0.0,0.0,0.0,0.0,0.0,0.0,0.0,0.0,0.0,0.0,0.0,0.0,0.0,0.0,0.0,0.0,0.0,0.0,0.0,0.0,0.0,0.0,0.0,0.0,0.0,0.0,0.0,0.0,0.0,0.0,0.0,0.0,0.0,0.0,0.0,0.0,0.0,0.0,0.0,0.0,0.0,0.0,0.0,0.0,0.0,0.0,0.0,0.0,0.0,0.0,0.0,0.0,0.0,0.0,0.0,0.0,0.0,0.0,0.0,0.0,0.0,0.0,0.0,0.0,0.0,0.0,0.0,0.0,0.0,0.0,0.0,0.0,0.0,-0.9444,-0.9475,-0.9377,0.0,0.0,0.0,0.0,0.0,0.0,0.0,0.0,0.0,0.0,0.0,0.0,0.0,0.0,0.0,0.0,0.0,0.0,0.0,0.0,0.0,0.0,0.0,0.0,0.0,0.0,0.0,0.0,0.0,0.0,0.0,0.0,0.0,0.0,0.0,0.0,0.0,0.0,0.0,0.0,0.0,0.0,0.0,0.0,0.0,0.0,0.0,0.0,0.0,0.0,0.0,0.0,0.0,0.0,0.0,0.0,0.0,0.0,0.0,0.0,0.0,0.0,0.0,0.0,0.0,0.0,0.0,0.0,0.0,0.0,0.0,0.0,0.0,0.0,0.0,0.0,0.0,0.0,0.0,0.0,0.0,0.0,0.0,0.0,0.0,0.0,0.0,0.0,0.0,0.0,0.0,0.0,0.0,0.0,0.0,0.0,0.0,0.0,0.0,0.0,0.0,0.0,0.0,0.0,0.0,0.0,0.0,0.0,0.0,0.0,-0.915,-0.922,-0.985,0.0,-0.9448,0.0,0.0,0.0,0.0,0.0,0.0,0.0,0.0,0.0,0.0,0.0,0.0,0.0,0.0,0.0,0.0,0.0,0.0,0.0,0.0,0.0,0.0,0.0,0.0,0.0,0.0,0.0,0.0,0.0,0.0,0.0,0.0,0.0,0.0,0.0,0.0,0.0,0.0,0.0,0.0,0.0,0.0,0.0,0.0,0.0,0.0,0.0,0.0,0.0,0.0,0.0,0.0,0.0,0.0,0.0,0.0,0.0,0.0,0.0,0.0,0.0,0.0,0.0,0.0,0.0,0.0,0.0,0.0,0.0,0.0,0.0,0.0,0.0,0.0,0.0,0.0,0.0,0.0,0.0,0.0,0.0,0.0,0.0,0.0,0.0,0.0,0.0,0.0,0.0,0.0,0.0,0.0,0.0,0.0,0.0,0.0,0.0,0.0,0.0,0.0,0.0,0.0,0.0,0.0,0.0,0.0,0.0,0.0,0.0,0.0,0.0,-1.0373,-1.0765,-1.0645,0.0,0.0,0.0,0.0,0.0,0.0,0.0,0.0,0.0,0.0,0.0,0.0,0.0,0.0,0.0,0.0,0.0,0.0,0.0,0.0,0.0,0.0,0.0,0.0,0.0,0.0,0.0,0.0,0.0,0.0,0.0,0.0,0.0,0.0,0.0,0.0,0.0,0.0,0.0,0.0,0.0,0.0,0.0,0.0,0.0,0.0,0.0,0.0,0.0,0.0,0.0,0.0,0.0,0.0,0.0,0.0,0.0,0.0,0.0,0.0,0.0,0.0,0.0,0.0,0.0,0.0,0.0,0.0,0.0,0.0,0.0,0.0,0.0,0.0,0.0,0.0,0.0,0.0,0.0,0.0,0.0,0.0,0.0,0.0,0.0,0.0,0.0,0.0,0.0,0.0,0.0,0.0,0.0,0.0,0.0,0.0,0.0,0.0,0.0,0.0,0.0,0.0,0.0,0.0,0.0,0.0,0.0,0.0,0.0,0.0,-0.945,0.0,-1.1404,-1.1564,-1.1205,-1.032,0.0,0.0,0.0,0.0,0.0,0.0,0.0,0.0,0.0,0.0,0.0,0.0,0.0,0.0,0.0,0.0,0.0,0.0,0.0,0.0,0.0,0.0,0.0,0.0,0.0,0.0,0.0,0.0,0.0,0.0,0.0,0.0,0.0,0.0,0.0,0.0,0.0,0.0,0.0,0.0,0.0,0.0,0.0,0.0,0.0,0.0,0.0,0.0,0.0,0.0,0.0,0.0,0.0,0.0,0.0,0.0,0.0,0.0,0.0,0.0,0.0,0.0,0.0,0.0,0.0,0.0,0.0,0.0,0.0,0.0,0.0,0.0,0.0,0.0,0.0,0.0,0.0,0.0,0.0,0.0,0.0,0.0,0.0,0.0,0.0,0.0,0.0,0.0,0.0,0.0,0.0,0.0,0.0,0.0,0.0,0.0,0.0,0.0,0.0,0.0,0.0,0.0,0.0,0.0,0.0,0.0,0.0,0.0,0.0,-1.0358,-1.1368,-1.2112,-1.2154,-1.1579,0.0,0.0,0.0,0.0,0.0,0.0,0.0,0.0,0.0,0.0,0.0,0.0,0.0,0.0,0.0,0.0,0.0,0.0,0.0,0.0,0.0,0.0,0.0,0.0,0.0,0.0,0.0,0.0,0.0,0.0,0.0,0.0,0.0,0.0,0.0,0.0,0.0,0.0,0.0,0.0,0.0,0.0,0.0,0.0,0.0,0.0,0.0,0.0,0.0,0.0,0.0,0.0,0.0,0.0,0.0,0.0,0.0,0.0,0.0,0.0,0.0,0.0,0.0,0.0,0.0,0.0,0.0,0.0,0.0,0.0,0.0,0.0,0.0,0.0,0.0,0.0,0.0,0.0,0.0,0.0,0.0,0.0,0.0,0.0,0.0,0.0,0.0,0.0,0.0,0.0,0.0,0.0,0.0,0.0,0.0,0.0,0.0,0.0,0.0,0.0,0.0,0.0,0.0,0.0,0.0,0.0,0.0,0.0,0.0,-0.9773,-1.1081,-1.1923,0.0,-1.221,-1.1575,0.0,0.0,0.0,0.0,0.0,0.0,0.0,0.0,0.0,0.0,0.0,0.0,0.0,0.0,0.0,0.0,0.0,0.0,0.0,0.0,0.0,0.0,0.0,0.0,0.0,0.0,0.0,0.0,0.0,0.0,0.0,0.0,0.0,0.0,0.0,0.0,0.0,0.0,0.0,0.0,0.0,0.0,0.0,0.0,0.0,0.0,0.0,0.0,0.0,0.0,0.0,0.0,0.0,0.0,0.0,0.0,0.0,0.0,0.0,0.0,0.0,0.0,0.0,0.0,0.0,0.0,0.0,0.0,0.0,0.0,0.0,0.0,0.0,0.0,0.0,0.0,0.0,0.0,0.0,0.0,0.0,0.0,0.0,0.0,0.0,0.0,0.0,0.0,0.0,0.0,0.0,0.0,0.0,0.0,0.0,0.0,0.0,0.0,0.0,0.0,0.0,0.0,0.0,0.0,0.0,0.0,0.0,0.0,0.0,-1.1081,0.0,-1.2519,0.0,-1.2514,-1.1778,0.0,0.0,0.0,0.0,0.0,0.0,0.0,0.0,0.0,0.0,0.0,0.0,0.0,0.0,0.0,0.0,0.0,0.0,0.0,0.0,0.0,0.0,0.0,0.0,0.0,0.0,0.0,0.0,0.0,0.0,0.0,0.0,0.0,0.0,0.0,0.0,0.0,0.0,0.0,0.0,0.0,0.0,0.0,0.0,0.0,0.0,0.0,0.0,0.0,0.0,0.0,0.0,0.0,0.0,0.0,0.0,0.0,0.0,0.0,0.0,0.0,0.0,0.0,0.0,0.0,0.0,0.0,0.0,0.0,0.0,0.0,0.0,0.0,0.0,0.0,0.0,0.0,0.0,0.0,0.0,0.0,0.0,0.0,0.0,0.0,0.0,0.0,0.0,0.0,0.0,0.0,0.0,0.0,0.0,0.0,0.0,0.0,0.0,0.0,0.0,0.0,0.0,0.0,0.0,0.0,0.0,0.0,0.0,0.0,-1.3067,-1.317,-1.3205,-1.3201,-1.3186,-1.2241,0.0,0.0,0.0,0.0,0.0,0.0,0.0,0.0,0.0,0.0,0.0,0.0,0.0,0.0,0.0,0.0,0.0,0.0,0.0,0.0,0.0,0.0,0.0,0.0,0.0,0.0,0.0,0.0,0.0,0.0,0.0,0.0,0.0,0.0,0.0,0.0,0.0,0.0,0.0,0.0,0.0,0.0,0.0,0.0,0.0,0.0,0.0,0.0,0.0,0.0,0.0,0.0,0.0,0.0,0.0,0.0,0.0,0.0,0.0,0.0,0.0,0.0,0.0,0.0,0.0,0.0,0.0,0.0,0.0,0.0,0.0,0.0,0.0,0.0,0.0,0.0,0.0,0.0,0.0,0.0,0.0,0.0,0.0,0.0,0.0,0.0,0.0,0.0,0.0,0.0,0.0,0.0,0.0,0.0,0.0,0.0,0.0,0.0,0.0,0.0,0.0,0.0,0.0,0.0,0.0,0.0,0.0,0.0,0.0,-1.317,-1.3652,-1.3883,-1.3894,-1.3436,-1.2446,0.0,0.0,0.0,0.0,0.0,0.0,0.0,0.0,0.0,0.0,0.0,0.0,0.0,0.0,0.0,0.0,0.0,0.0,0.0,0.0,0.0,0.0,0.0,0.0,0.0,0.0,0.0,0.0,0.0,0.0,0.0,0.0,0.0,0.0,0.0,0.0,0.0,0.0,0.0,0.0,0.0,0.0,0.0,0.0,0.0,0.0,0.0,0.0,0.0,0.0,0.0,0.0,0.0,0.0,0.0,0.0,0.0,0.0,0.0,0.0,0.0,0.0,0.0,0.0,0.0,0.0,0.0,0.0,0.0,0.0,0.0,0.0,0.0,0.0,0.0,0.0,0.0,0.0,0.0,0.0,0.0,0.0,0.0,0.0,0.0,0.0,0.0,0.0,0.0,0.0,0.0,0.0,0.0,0.0,0.0,0.0,0.0,0.0,0.0,0.0,0.0,0.0,0.0,0.0,0.0,0.0,0.0,0.0,0.0,-1.4298,-1.447,-1.4686,-1.4944,-1.404,-1.2928,-1.1564,0.0,0.0,0.0,0.0,0.0,0.0,0.0,0.0,0.0,0.0,0.0,0.0,0.0,0.0,0.0,0.0,0.0,0.0,0.0,0.0,0.0,0.0,0.0,0.0,0.0,0.0,0.0,0.0,0.0,0.0,0.0,0.0,0.0,0.0,0.0,0.0,0.0,0.0,0.0,0.0,0.0,0.0,0.0,0.0,0.0,0.0,0.0,0.0,0.0,0.0,0.0,0.0,0.0,0.0,0.0,0.0,0.0,0.0,0.0,0.0,0.0,0.0,0.0,0.0,0.0,0.0,0.0,0.0,0.0,0.0,0.0,0.0,0.0,0.0,0.0,0.0,0.0,0.0,0.0,0.0,0.0,0.0,0.0,0.0,0.0,0.0,0.0,0.0,0.0,0.0,0.0,0.0,0.0,0.0,0.0,0.0,0.0,0.0,0.0,0.0,0.0,0.0,0.0,0.0,0.0,0.0,0.0,0.0,-1.6286,-1.5687,-1.5641,-1.621,-1.4993,-1.3652,0.0,0.0,0.0,0.0,0.0,0.0,0.0,0.0,0.0,0.0,0.0,0.0,0.0,0.0,0.0,0.0,0.0,0.0,0.0,0.0,0.0,0.0,0.0,0.0,0.0,0.0,0.0,0.0,0.0,0.0,0.0,0.0,0.0,0.0,0.0,0.0,0.0,0.0,0.0,0.0,0.0,0.0,0.0,0.0,0.0,0.0,0.0,0.0,0.0,0.0,0.0,0.0,0.0,0.0,0.0,0.0,0.0,0.0,0.0,0.0,0.0,0.0,0.0,0.0,0.0,0.0,0.0,0.0,0.0,0.0,0.0,0.0,0.0,0.0,0.0,0.0,0.0,0.0,0.0,0.0,0.0,0.0,0.0,0.0,0.0,0.0,0.0,0.0,0.0,0.0,0.0,0.0,0.0,0.0,0.0,0.0,0.0,0.0,0.0,0.0,0.0,0.0,0.0,0.0,0.0,0.0,0.0,0.0,0.0,-1.7592,-1.7516,-1.7254,-1.6932,-1.6116,-1.4809,0.0,0.0,0.0,0.0,0.0,0.0,0.0,0.0,0.0,0.0,0.0,0.0,0.0,0.0,0.0,0.0,0.0,0.0,0.0,0.0,0.0,0.0,0.0,0.0,0.0,0.0,0.0,0.0,0.0,0.0,0.0,0.0,0.0,0.0,0.0,0.0,0.0,0.0,0.0,0.0,0.0,0.0,0.0,0.0,0.0,0.0,0.0,0.0,0.0,0.0,0.0,0.0,0.0,0.0,0.0,0.0,0.0,0.0,0.0,0.0,0.0,0.0,0.0,0.0,0.0,0.0,0.0,0.0,0.0,0.0,0.0,0.0,0.0,0.0,0.0,0.0,0.0,0.0,0.0,0.0,0.0,0.0,0.0,0.0,0.0,0.0,0.0,0.0,0.0,0.0,0.0,0.0,0.0,0.0,0.0,0.0,0.0,0.0,0.0,0.0,0.0,0.0,0.0,0.0,0.0,0.0,0.0,0.0,-1.6747,-1.8161,-1.8808,-1.8809,-1.8146,-1.6911,-1.5584,0.0,0.0,0.0,0.0,0.0,0.0,0.0,0.0,0.0,0.0,0.0,0.0,0.0,0.0,0.0,0.0,0.0,0.0,0.0,0.0,0.0,0.0,0.0,0.0,0.0,0.0,0.0,0.0,0.0,0.0,0.0,0.0,0.0,0.0,0.0,0.0,0.0,0.0,0.0,0.0,0.0,0.0,0.0,0.0,0.0,0.0,0.0,0.0,0.0,0.0,0.0,0.0,0.0,0.0,0.0,0.0,0.0,0.0,0.0,0.0,0.0,0.0,0.0,0.0,0.0,0.0,0.0,0.0,0.0,0.0,0.0,0.0,0.0,0.0,0.0,0.0,0.0,0.0,0.0,0.0,0.0,0.0,0.0,0.0,0.0,0.0,0.0,0.0,0.0,0.0,0.0,0.0,0.0,0.0,0.0,0.0,0.0,0.0,0.0,0.0,0.0,0.0,0.0,0.0,0.0,0.0,0.0,0.0,-1.7562,-1.8315,-1.969,-2.0128,-1.9477,-1.7571,-1.6144,0.0,0.0,0.0,0.0,0.0,0.0,0.0,0.0,0.0,0.0,0.0,0.0,0.0,0.0,0.0,0.0,0.0,0.0,0.0,0.0,0.0,0.0,0.0,0.0,0.0,0.0,0.0,0.0,0.0,0.0,0.0,0.0,0.0,0.0,0.0,0.0,0.0,0.0,0.0,0.0,0.0,0.0,0.0,0.0,0.0,0.0,0.0,0.0,0.0,0.0,0.0,0.0,0.0,0.0,0.0,0.0,0.0,0.0,0.0,0.0,0.0,0.0,0.0,0.0,0.0,0.0,0.0,0.0,0.0,0.0,0.0,0.0,0.0,0.0,0.0,0.0,0.0,0.0,0.0,0.0,0.0,0.0,0.0,0.0,0.0,0.0,0.0,0.0,0.0,0.0,0.0,0.0,0.0,0.0,0.0,0.0,0.0,0.0,0.0,0.0,0.0,0.0,0.0,0.0,0.0,0.0,0.0,0.0,-1.7823,-1.9104,-1.9971,-2.0362,-2.0259,-1.8812,-1.7191,0.0,0.0,0.0,0.0,0.0,0.0,0.0,0.0,0.0,0.0,0.0,0.0,0.0,0.0,0.0,0.0,0.0,0.0,0.0,0.0,0.0,0.0,0.0,0.0,0.0,0.0,0.0,0.0,0.0,0.0,0.0,0.0,0.0,0.0,0.0,0.0,0.0,0.0,0.0,0.0,0.0,0.0,0.0,0.0,0.0,0.0,0.0,0.0,-0.6518,0.0,0.0,0.0,0.0,0.0,0.0,0.0,0.0,0.0,0.0,0.0,0.0,0.0,0.0,0.0,0.0,0.0,0.0,0.0,0.0,0.0,0.0,0.0,0.0,0.0,0.0,0.0,0.0,0.0,0.0,0.0,0.0,0.0,0.0,0.0,0.0,0.0,0.0,0.0,0.0,0.0,0.0,0.0,0.0,0.0,0.0,0.0,0.0,0.0,0.0,0.0,0.0,0.0,0.0,0.0,0.0,0.0,0.0,0.0,-1.8315,-1.9417,-2.0167,-2.0559,-2.0547,-1.9296,-1.7744,0.0,0.0,0.0,0.0,0.0,0.0,0.0,0.0,0.0,0.0,0.0,0.0,0.0,0.0,0.0,0.0,0.0,0.0,0.0,0.0,0.0,0.0,0.0,0.0,0.0,0.0,0.0,0.0,0.0,0.0,0.0,0.0,0.0,0.0,0.0,0.0,0.0,0.0,0.0,0.0,0.0,0.0,0.0,0.0,0.0,0.0,0.0,0.0,0.0,0.0,0.0,0.0,0.0,0.0,0.0,0.0,0.0,0.0,0.0,0.0,0.0,0.0,0.0,0.0,0.0,0.0,0.0,0.0,0.0,0.0,0.0,0.0,0.0,0.0,0.0,0.0,0.0,0.0,0.0,0.0,0.0,0.0,0.0,0.0,0.0,0.0,0.0,0.0,0.0,0.0,0.0,0.0,0.0,0.0,0.0,0.0,0.0,0.0,0.0,0.0,0.0,0.0,0.0,0.0,0.0,0.0,0.0,-1.7415,-1.8843,-1.967,-2.0346,-2.0694,-2.0695,-1.9405,-1.8002,-1.6566,0.0,0.0,0.0,0.0,0.0,0.0,0.0,0.0,0.0,0.0,0.0,0.0,0.0,0.0,0.0,0.0,0.0,0.0,0.0,0.0,0.0,0.0,0.0,0.0,0.0,0.0,0.0,0.0,0.0,0.0,0.0,0.0,0.0,0.0,0.0,0.0,0.0,0.0,-0.6169,-0.6683,0.0,0.0,0.0,0.0,0.0,0.0,0.0,0.0,-0.7816,0.0,0.0,0.0,0.0,0.0,0.0,0.0,0.0,0.0,0.0,0.0,0.0,0.0,0.0,0.0,0.0,0.0,0.0,0.0,0.0,0.0,0.0,0.0,0.0,0.0,0.0,0.0,0.0,0.0,0.0,0.0,0.0,0.0,0.0,0.0,0.0,0.0,0.0,0.0,0.0,0.0,0.0,0.0,0.0,0.0,0.0,0.0,0.0,0.0,0.0,0.0,0.0,0.0,0.0,0.0,0.0,-1.6202,-1.7706,-1.9124,-2.0457,-2.063,-2.0711,-2.0746,-1.9435,-1.8031,-1.663,0.0,0.0,0.0,0.0,0.0,0.0,0.0,0.0,0.0,0.0,0.0,0.0,0.0,0.0,0.0,0.0,0.0,0.0,0.0,0.0,0.0,0.0,0.0,0.0,0.0,0.0,0.0,0.0,0.0,0.0,0.0,0.0,0.0,0.0,0.0,0.0,0.0,0.0,0.0,-0.7239,-0.7738,0.0,0.0,0.0,0.0,0.0,0.0,0.0,0.0,-0.9301,0.0,0.0,0.0,0.0,0.0,0.0,0.0,0.0,0.0,0.0,0.0,0.0,0.0,0.0,0.0,0.0,0.0,0.0,0.0,0.0,0.0,0.0,0.0,0.0,0.0,0.0,0.0,0.0,0.0,0.0,0.0,0.0,0.0,0.0,0.0,0.0,0.0,0.0,0.0,0.0,0.0,0.0,0.0,0.0,0.0,0.0,0.0,0.0,0.0,0.0,0.0,0.0,0.0,0.0,0.0,-1.6419,-1.7856,-1.9264,-2.0681,-2.076,-2.0761,-2.0763,-1.9435,-1.8046,0.0,0.0,0.0,0.0,0.0,0.0,0.0,0.0,0.0,0.0,0.0,0.0,0.0,0.0,0.0,0.0,0.0,0.0,0.0,0.0,0.0,0.0,0.0,0.0,0.0,0.0,0.0,0.0,0.0,0.0,0.0,0.0,0.0,0.0,0.0,0.0,0.0,0.0,0.0,0.0,-0.8117,-0.8846,-0.9455,0.0,0.0,0.0,0.0,0.0,0.0,-1.0249,-1.0204,0.0,0.0,0.0,0.0,0.0,0.0,0.0,0.0,0.0,0.0,0.0,0.0,0.0,0.0,0.0,0.0,0.0,0.0,0.0,0.0,0.0,0.0,0.0,0.0,0.0,0.0,0.0,0.0,0.0,0.0,0.0,0.0,0.0,0.0,0.0,0.0,0.0,0.0,0.0,0.0,0.0,0.0,0.0,0.0,0.0,0.0,0.0,0.0,0.0,0.0,0.0,0.0,0.0,0.0,0.0,-1.6557,-1.7943,-1.9342,-2.0731,-2.081,-2.081,-2.0795,-1.9451,-1.8031,0.0,0.0,0.0,0.0,0.0,0.0,0.0,0.0,0.0,0.0,0.0,0.0,0.0,0.0,0.0,0.0,0.0,0.0,0.0,0.0,0.0,0.0,0.0,0.0,0.0,0.0,0.0,0.0,0.0,0.0,0.0,0.0,0.0,0.0,0.0,0.0,0.0,0.0,0.0,0.0,0.0,-0.9777,-1.0461,-1.0625,0.0,0.0,0.0,0.0,-1.1121,-1.1188,0.0,0.0,0.0,0.0,0.0,0.0,0.0,0.0,0.0,0.0,0.0,0.0,0.0,0.0,0.0,0.0,0.0,0.0,0.0,0.0,0.0,0.0,0.0,0.0,0.0,0.0,0.0,0.0,0.0,0.0,0.0,0.0,0.0,0.0,0.0,0.0,0.0,0.0,0.0,0.0,0.0,0.0,0.0,0.0,0.0,0.0,0.0,0.0,0.0,0.0,0.0,0.0,0.0,0.0,0.0,0.0,-1.6557,-1.8043,-1.9419,-2.0732,-2.081,-2.081,-2.0778,-1.942,-1.8046,0.0,0.0,0.0,0.0,0.0,0.0,0.0,0.0,0.0,0.0,0.0,0.0,0.0,0.0,0.0,0.0,0.0,0.0,0.0,0.0,0.0,0.0,0.0,0.0,0.0,0.0,0.0,0.0,0.0,0.0,0.0,0.0,0.0,0.0,0.0,0.0,0.0,0.0,0.0,0.0,0.0,-0.9871,-1.0661,-1.0888,-1.0985,0.0,0.0,0.0,-1.1967,-1.2215,0.0,0.0,0.0,0.0,0.0,0.0,0.0,0.0,0.0,0.0,0.0,0.0,0.0,0.0,0.0,0.0,0.0,0.0,0.0,0.0,0.0,0.0,0.0,0.0,0.0,0.0,0.0,0.0,0.0,0.0,0.0,0.0,0.0,0.0,0.0,0.0,0.0,0.0,0.0,0.0,0.0,0.0,0.0,0.0,0.0,0.0,0.0,0.0,0.0,0.0,0.0,0.0,0.0,0.0,0.0,-1.5225,-1.7284,-1.8378,-1.9588,-2.091,-2.0973,-2.0941,-2.086,-1.9512,-1.8118,0.0,0.0,0.0,0.0,0.0,0.0,0.0,0.0,0.0,0.0,0.0,0.0,0.0,0.0,0.0,0.0,0.0,0.0,0.0,0.0,0.0,0.0,0.0,0.0,0.0,0.0,0.0,0.0,0.0,0.0,0.0,0.0,0.0,0.0,0.0,0.0,0.0,0.0,0.0,0.0,0.0,0.0,-1.2175,-1.2751,0.0,0.0,0.0,-1.3853,-1.3521,0.0,0.0,0.0,0.0,0.0,0.0,0.0,0.0,0.0,0.0,0.0,0.0,0.0,0.0,0.0,0.0,0.0,0.0,0.0,0.0,0.0,0.0,0.0,0.0,0.0,0.0,0.0,0.0,0.0,0.0,0.0,0.0,0.0,0.0,0.0,0.0,0.0,0.0,0.0,0.0,0.0,0.0,0.0,0.0,0.0,0.0,0.0,0.0,0.0,0.0,0.0,0.0,0.0,0.0,0.0,0.0,0.0,-1.7907,-1.8694,-1.9754,-2.1087,-2.1151,-2.1087,-2.0958,-1.9634,0.0,0.0,0.0,0.0,0.0,0.0,0.0,0.0,0.0,0.0,0.0,0.0,0.0,0.0,0.0,0.0,0.0,0.0,0.0,0.0,0.0,0.0,0.0,0.0,0.0,0.0,0.0,-0.4722,0.0,0.0,0.0,0.0,0.0,0.0,0.0,0.0,0.0,0.0,0.0,0.0,0.0,0.0,-1.2253,-1.3416,-1.4214,-1.4695,0.0,0.0,-1.5001,-1.4759,-1.4342,-1.3773,0.0,0.0,0.0,0.0,0.0,0.0,0.0,0.0,0.0,0.0,0.0,0.0,0.0,0.0,0.0,0.0,0.0,0.0,0.0,0.0,0.0,0.0,0.0,0.0,0.0,0.0,0.0,0.0,0.0,0.0,0.0,0.0,0.0,0.0,0.0,0.0,0.0,0.0,0.0,0.0,0.0,0.0,0.0,0.0,0.0,0.0,0.0,0.0,0.0,0.0,0.0,0.0,0.0,0.0,0.0,-1.8022,-1.8887,-1.9928,-2.1229,-2.1215,-2.1183,-2.1151,-1.9757,-1.8335,0.0,0.0,0.0,0.0,0.0,0.0,0.0,0.0,0.0,0.0,0.0,0.0,0.0,0.0,0.0,0.0,0.0,0.0,0.0,0.0,0.0,0.0,0.0,0.0,0.0,0.0,0.0,0.0,0.0,0.0,0.0,0.0,0.0,0.0,0.0,0.0,0.0,0.0,0.0,0.0,0.0,-1.2758,-1.3656,-1.4418,-1.4954,0.0,0.0,-1.5701,-1.5069,-1.489,-1.4531,-1.3667,0.0,0.0,0.0,0.0,0.0,0.0,0.0,0.0,0.0,0.0,0.0,0.0,0.0,0.0,0.0,0.0,0.0,0.0,0.0,0.0,0.0,0.0,0.0,0.0,0.0,0.0,0.0,0.0,0.0,0.0,0.0,0.0,0.0,0.0,0.0,0.0,0.0,0.0,0.0,0.0,0.0,0.0,0.0,0.0,0.0,0.0,0.0,0.0,0.0,0.0,0.0,0.0,0.0,-1.6278,-1.8906,-1.9288,-2.0169,-2.1535,-2.1587,-2.1526,-2.1434,-2.0022,-1.8748,0.0,0.0,0.0,0.0,0.0,0.0,0.0,0.0,0.0,0.0,0.0,0.0,0.0,0.0,0.0,0.0,0.0,0.0,0.0,0.0,0.0,0.0,0.0,0.0,0.0,0.0,0.0,0.0,-0.6284,-0.6423,-0.6441,0.0,0.0,0.0,0.0,0.0,0.0,0.0,0.0,0.0,0.0,-1.3711,-1.481,-1.5643,0.0,0.0,-1.6422,-1.6437,-1.6097,-1.5686,-1.5112,-1.4298,-1.3291,0.0,0.0,0.0,0.0,0.0,0.0,0.0,0.0,0.0,0.0,0.0,0.0,0.0,0.0,0.0,0.0,0.0,0.0,0.0,0.0,0.0,0.0,0.0,0.0,0.0,0.0,0.0,0.0,0.0,0.0,0.0,0.0,0.0,0.0,0.0,0.0,0.0,0.0,0.0,0.0,0.0,0.0,0.0,0.0,0.0,0.0,0.0,0.0,0.0,0.0,0.0,0.0,-1.679,-1.9578,-1.9897,-2.0653,-2.1928,-2.1884,-2.1811,-2.169,-2.0461,-1.9307,0.0,0.0,0.0,0.0,0.0,0.0,0.0,0.0,0.0,0.0,0.0,0.0,0.0,0.0,0.0,0.0,0.0,0.0,0.0,0.0,0.0,0.0,0.0,0.0,0.0,0.0,0.0,0.0,-0.6623,-0.6668,-0.6441,0.0,0.0,0.0,0.0,0.0,0.0,0.0,0.0,0.0,0.0,-1.4691,-1.5674,-1.6442,-1.6939,-1.6981,-1.696,-1.691,-1.6782,-1.6207,-1.556,-1.4925,0.0,0.0,0.0,0.0,0.0,0.0,0.0,0.0,0.0,0.0,0.0,0.0,0.0,0.0,0.0,0.0,0.0,0.0,0.0,0.0,0.0,0.0,0.0,0.0,0.0,0.0,0.0,0.0,0.0,0.0,-1.1535,0.0,0.0,0.0,0.0,0.0,0.0,0.0,0.0,0.0,0.0,0.0,0.0,0.0,0.0,0.0,0.0,0.0,0.0,0.0,0.0,0.0,0.0,0.0,-1.9852,-2.0639,-2.145,-2.2248,-2.2104,-2.1998,-2.1967,-2.1121,-1.9989,-1.8605,0.0,0.0,0.0,0.0,0.0,0.0,0.0,0.0,0.0,0.0,0.0,0.0,0.0,0.0,0.0,0.0,0.0,0.0,0.0,0.0,0.0,0.0,0.0,0.0,0.0,0.0,-0.7058,-0.6862,-0.6668,0.0,0.0,0.0,0.0,0.0,0.0,0.0,0.0,0.0,0.0,-1.4396,-1.5701,-1.6043,-1.66,-1.7044,-1.7191,-1.7073,-1.6981,-1.6897,-1.6344,-1.584,0.0,0.0,0.0,0.0,0.0,0.0,0.0,0.0,0.0,0.0,0.0,0.0,0.0,0.0,0.0,0.0,0.0,0.0,0.0,0.0,0.0,0.0,0.0,0.0,0.0,0.0,0.0,-1.3368,-1.3307,0.0,0.0,0.0,0.0,0.0,0.0,0.0,0.0,0.0,0.0,0.0,-2.0918,-2.0886,0.0,0.0,0.0,0.0,0.0,0.0,0.0,0.0,0.0,0.0,0.0,0.0,-1.8197,-2.0031,-2.093,-2.1733,-2.2484,-2.2429,-2.2346,-2.2206,-2.144,-2.0062,-1.7981,0.0,0.0,0.0,0.0,0.0,0.0,0.0,0.0,0.0,0.0,0.0,0.0,0.0,0.0,0.0,0.0,0.0,0.0,0.0,0.0,0.0,0.0,0.0,0.0,0.0,-0.7209,0.0,0.0,0.0,0.0,0.0,0.0,0.0,0.0,0.0,0.0,0.0,-1.2721,-1.397,-1.5167,-1.611,-1.6612,-1.6936,-1.7157,0.0,0.0,0.0,0.0,0.0,0.0,0.0,0.0,0.0,0.0,0.0,0.0,0.0,0.0,-1.1957,-1.095,-1.0605,-1.0432,-1.0204,0.0,0.0,0.0,0.0,0.0,0.0,0.0,0.0,0.0,0.0,0.0,0.0,0.0,0.0,0.0,0.0,-1.5051,0.0,0.0,0.0,0.0,0.0,0.0,0.0,0.0,-2.1228,-2.2362,-2.3407,-2.3366,-2.2923,0.0,-2.1527,-1.9845,0.0,0.0,0.0,0.0,0.0,0.0,0.0,0.0,-1.8873,-2.0238,-2.1378,-2.2199,-2.2681,-2.2659,-2.2582,-2.2429,-2.1647,-2.0234,-1.8104,-1.6809,-1.5198,0.0,0.0,0.0,0.0,0.0,0.0,0.0,0.0,0.0,0.0,0.0,0.0,0.0,0.0,0.0,0.0,0.0,0.0,0.0,0.0,0.0,0.0,0.0,-0.765,0.0,0.0,0.0,0.0,0.0,0.0,0.0,0.0,0.0,-1.1391,-1.2734,-1.4124,-1.5145,-1.6006,-1.6712,-1.7105,0.0,0.0,0.0,0.0,0.0,0.0,0.0,-1.739,-1.6717,-1.6481,-1.6166,-1.5388,-1.4996,-1.4678,-1.4416,0.0,0.0,-1.2365,-1.1994,-1.1858,-1.176,-1.1712,-1.1612,-1.1394,-1.1354,-1.1285,0.0,0.0,0.0,0.0,0.0,0.0,0.0,0.0,-1.936,-1.9304,0.0,-1.8336,0.0,0.0,0.0,0.0,0.0,-1.8491,0.0,0.0,-2.3047,-2.4252,-2.5653,-2.5706,-2.5321,-2.4587,-2.4385,-2.3508,-2.1943,-1.8815,0.0,0.0,0.0,0.0,0.0,0.0,-1.9588,-2.0479,-2.2004,-2.2842,-2.2876,-2.2777,-2.2729,-2.2681,-2.181,-2.0611,-1.9043,-1.8168,-1.6362,-1.3429,-1.3082,0.0,0.0,0.0,0.0,0.0,0.0,0.0,0.0,0.0,0.0,0.0,0.0,0.0,0.0,0.0,0.0,0.0,0.0,0.0,0.0,-0.8185,0.0,0.0,0.0,0.0,0.0,0.0,0.0,0.0,0.0,0.0,-1.3505,-1.4543,-1.5563,-1.6159,0.0,0.0,0.0,0.0,-1.7735,-1.8329,-1.8384,-1.853,-1.9082,-1.9084,-1.875,-1.8055,0.0,0.0,-1.6687,-1.6362,-1.6086,-1.5846,-1.55,-1.4865,-1.3436,-1.3134,-1.2997,-1.2892,-1.2754,-1.2659,-1.2648,-1.2574,-1.2542,-2.4524,0.0,0.0,0.0,0.0,-2.2943,-2.2901,-2.2821,-2.2795,-2.2383,-2.1698,-2.0898,0.0,0.0,0.0,0.0,0.0,0.0,-2.248,-2.3228,-2.5056,-2.619,-2.6636,-2.6618,-2.6485,-2.6184,-2.563,-2.5057,-2.4443,-2.2954,-2.0987,-1.8645,0.0,0.0,0.0,0.0,-2.1014,-2.1427,-2.2427,-2.2957,-2.297,-2.2944,-2.2838,-2.2712,-2.2293,-2.1609,-2.0628,-1.9292,-1.7883,-1.6429,-1.4253,0.0,0.0,0.0,0.0,0.0,0.0,0.0,0.0,0.0,0.0,0.0,0.0,0.0,0.0,0.0,0.0,0.0,0.0,0.0,-0.8473,-0.9068,-0.9557,0.0,0.0,0.0,0.0,0.0,0.0,0.0,0.0,0.0,-1.6359,-1.6263,-1.6369,0.0,0.0,-1.7635,-1.8089,-1.8129,-1.8342,-1.8955,0.0,0.0,0.0,-1.9246,-1.9135,-1.8927,-1.8504,-1.8009,-1.7525,-1.7037,-1.6556,-1.6178,-1.5913,-1.554,-1.4853,-1.4384,-1.4149,-1.4093,-1.3991,-1.3878,-1.3754,-1.3731,-1.3675,-2.8676,-2.7575,-2.6107,-2.5497,-2.549,-2.5474,-2.5421,-2.5319,-2.5225,-2.4852,-2.4265,-2.3442,-2.2737,-2.2141,-2.1324,0.0,0.0,0.0,-2.436,-2.4968,-2.6374,-2.7214,-2.746,-2.7478,-2.7464,-2.7406,-2.6934,-2.6477,-2.6047,-2.5535,-2.4128,-2.1841,0.0,0.0,-1.982,-2.0989,-2.1697,-2.1866,-2.263,-2.3045,-2.3045,-2.302,-2.2906,-2.2712,-2.2579,-2.2129,-2.1326,-2.006,-1.8863,-1.7782,-1.5643,-1.402,0.0,0.0,0.0,0.0,0.0,0.0,0.0,0.0,0.0,0.0,0.0,-0.8715,0.0,0.0,0.0,0.0,-0.8734,-0.9005,-0.9665,-1.0277,0.0,0.0,0.0,0.0,0.0,0.0,0.0,-1.5624,-1.6472,-1.7347,-1.8214,-1.8017,-1.7919,-1.8209,-1.8313,-1.8497,-1.8868,0.0,-1.9123,-1.9691,-1.9785,-1.9865,-2.0093,-2.012,-2.003,-1.9802,-1.9155,-1.864,-1.8401,-1.8048,-1.7665,-1.7229,-1.6821,-1.6428,-1.6003,-1.5406,-1.4869,-1.4707,-1.4569,-1.4454,-1.4373,-1.4292,-1.4257,-3.2414,-3.2139,-2.8959,-2.7587,-2.7518,-2.7511,-2.7429,-2.7316,-2.7162,-2.6995,-2.6746,-2.5968,-2.5484,-2.5249,-2.4463,0.0,-2.5007,-2.5049,-2.5811,-2.71,-2.7171,-2.7562,-2.8191,-2.8209,-2.8209,-2.8196,-2.814,-2.7739,-2.701,-2.6929,-2.6485,-2.5654,-2.3295,-2.1741,-2.1063,-2.1685,-2.2047,-2.21,-2.2767,-2.3107,-2.3107,-2.3045,-2.2919,-2.2738,-2.2712,-2.231,-2.1437,-2.0586,-1.9454,-1.8064,-1.707,-1.5559,-1.3513,0.0,0.0,0.0,0.0,0.0,0.0,0.0,0.0,0.0,0.0,0.0,0.0,0.0,0.0,0.0,-1.0278,0.0,-1.1128,-1.1794,0.0,0.0,0.0,-1.4919,-1.5447,-1.5916,-1.6632,-1.7726,0.0,0.0,-1.9398,0.0,-1.9852,-1.9692,-1.9696,-1.9714,-1.9768,-1.9768,-1.9935,-2.0481,-2.0562,-2.0775,-2.1158,-2.129,-2.1104,-2.0536,-1.9892,-1.9394,-1.9286,-1.9184,-1.9061,-1.8639,-1.8015,-1.74,-1.706,-1.6317,-1.5529,-1.5097,-1.4776,-1.4616,-1.4604,-1.4534,-1.4443,-3.2537,-3.248,-3.1667,-3.1206,-3.1045,-3.096,-3.0901,-3.084,-3.0655,-2.985,-2.8569,-2.8319,-2.7442,-2.6172,-2.587,-2.5778,-2.5904,-2.6417,-2.6836,-2.7207,-2.7805,-2.8174,-2.8358,-2.8318,-2.8273,-2.8259,-2.8209,-2.8065,-2.7828,-2.78,-2.7368,-2.6521,-2.5888,-2.5196,-2.443,-2.394,-2.3746,-2.3814,-2.3355,-2.3107,-2.3107,-2.3045,-2.2982,-2.2932,-2.2829,-2.2669,-2.2357,-2.1001,-2.0072,-1.9593,-1.7776,-1.6441,-1.5778,-1.4122,0.0,0.0,0.0,0.0,0.0,0.0,0.0,0.0,0.0,-1.0445,-1.112,0.0,-1.1262,0.0,-1.2313,-1.2661,-1.2816,-1.3868,0.0,0.0,-1.5985,-1.6593,-1.7096,-1.7622,-1.8226,-1.8837,-1.9368,-1.9996,-2.0783,-2.0912,-2.1013,-2.1189,-2.0357,-1.9827,-2.0233,-2.0315,-2.0532,-2.1047,-2.1155,-2.1236,-2.1358,-2.1385,-2.1345,-2.1185,-2.0647,-2.0186,-2.0117,-1.9754,-1.9346,-1.9084,-1.8764,-1.8382,-1.8105,-1.763,-1.7082,-1.6359,-1.5487,-1.4811,-1.4765,-1.473,-1.4707,-3.3756,-3.3756,-3.3712,-3.3652,-3.3496,-3.2609,-3.2193,-3.2123,-3.1976,-3.1328,-3.0448,-3.0342,-2.9743,-2.8772,-2.867,-2.8535,-2.8458,-2.8775,-2.8699,-2.8332,-2.8783,-2.8792,-2.8398,-2.8353,-2.834,-2.834,-2.8318,-2.8246,-2.8232,-2.8219,-2.7977,-2.7464,-2.7464,-2.7223,-2.673,-2.5539,-2.4759,-2.4431,-2.3622,-2.3193,-2.3193,-2.3156,-2.3102,-2.3095,-2.3015,-2.2914,-2.2773,-2.1278,-2.0394,-2.0245,-1.842,-1.7181,-1.6737,-1.552,-1.4458,0.0,0.0,0.0,0.0,0.0,0.0,0.0,0.0,0.0,0.0,0.0,-1.3073,-1.3733,-1.4096,-1.4542,-1.518,-1.5905,-1.6557,-1.711,-1.77,-1.8282,-1.8857,-1.934,-1.9876,-2.043,-2.0843,-2.1239,-2.165,-2.181,-2.1905,-2.2035,-2.1342,-2.0868,-2.1018,-2.1086,-2.1223,-2.1513,-2.152,-2.1471,-2.141,-2.1385,-2.1385,-2.1372,-2.1128,-2.0887,-2.0864,-2.057,-2.0284,-2.0094,-1.9721,-1.9313,-1.8995,-1.853,-1.7995,-1.737,-1.6703,-1.5986,-1.5188,-1.4926,-1.4857,-3.5189,-3.5189,-3.5147,-3.5129,-3.4978,-3.3409,-3.2685,-3.2533,-3.2402,-3.2291,-3.2168,-3.193,-3.1775,-3.1649,-3.1548,-3.1403,-3.1245,-3.1154,-3.0671,-2.9886,-2.9872,-2.9399,-2.8599,-2.8568,-2.8514,-2.8406,-2.8411,-2.8411,-2.8411,-2.8411,-2.8384,-2.8313,-2.8313,-2.8273,-2.8156,-2.6761,-2.5524,-2.4511,-2.3826,-2.3389,-2.3301,-2.3283,-2.3277,-2.3217,-2.3217,-2.3132,-2.2922,-2.1545,-2.0721,-2.0545,-1.9114,-1.7951,-1.7264,-1.6983,-1.6203,0.0,-1.4635,0.0,0.0,0.0,0.0,0.0,0.0,0.0,0.0,-1.5137,-1.5428,-1.5874,-1.5863,-1.6325,-1.7542,-1.7745,-1.8028,-1.8592,-1.9279,-1.9945,-2.0488,-2.0939,-2.1466,-2.2125,-2.2319,-2.238,-2.2343,-2.254,-2.2632,-2.2472,-2.2314,-2.2118,-2.1955,-2.186,-2.1813,-2.1817,-2.1712,-2.1578,-2.1482,-2.1458,-2.1458,-2.1434,-2.1407,-2.141,-2.1358,-2.1345,-2.131,-2.1159,-2.07,-2.0215,-1.9878,-1.9307,-1.8761,-1.8269,-1.8064,-1.7505,-1.6044,-1.5395,-1.5108,-3.5193,-3.5193,-3.5185,-3.5179,-3.5145,-3.4823,-3.4564,-3.4368,-3.4247,-3.3807,-3.3089,-3.2371,-3.1989,-3.1923,-3.173,-3.1591,-3.1428,-3.1321,-3.1102,-3.083,-3.083,-3.0373,-2.9551,-2.948,-2.9115,-2.8502,-2.8419,-2.8411,-2.8411,-2.8411,-2.838,-2.8384,-2.838,-2.8358,-2.8286,0.0,0.0,0.0,-2.4369,-2.3968,-2.3336,-2.3283,-2.3289,-2.3277,-2.3277,0.0,-2.3121,-2.2289,-2.175,-2.1586,-2.0144,0.0,0.0,0.0,0.0,0.0,0.0,0.0,0.0,0.0,0.0,0.0,-1.6979,-1.6994,-1.6647,-1.7492,-1.8127,-1.8094,-1.8095,-1.8175,-1.8443,-1.9026,-1.9389,-1.9421,-2.0502,-2.1297,-2.1403,-2.1924,-2.2533,-2.3138,-2.305,-2.3039,-2.3246,-2.3245,-2.3075,-2.2844,-2.2777,-2.2754,-2.2686,-2.2365,-2.21,-2.1959,-2.1878,-2.1746,-2.1736,-2.1722,-2.165,-2.1578,-2.1568,-2.152,-2.1447,-2.141,-2.1385,-2.135,-2.1159,-2.1005,-2.0895,-2.0607,-2.0087,-1.9418,-1.9172,-1.8668,-1.7231,-1.6539,-1.6185,-3.5182,0.0,-3.5182,-3.5193,0.0,-3.5189,-3.5166,-3.5048,-3.4879,-3.4543,-3.4057,-3.3623,-3.3394,-3.3331,-3.3153,-3.2976,-3.284,-3.2648,-3.2287,-3.1795,-3.1755,-3.131,-3.0488,-3.0462,-3.0204,-2.9766,-2.9352,-2.9132,-2.907,-2.8696,-2.8484,-2.8445,-2.8445,-2.8419,-2.8353,-2.8353,-2.7486,-2.5748,-2.5001,-2.4402,-2.4011,-2.3608,-2.3395,-2.3413,0.0,0.0,0.0,0.0,0.0,0.0,0.0,0.0,0.0,0.0,0.0,-1.8722,-1.8338,-1.8046,-1.79,-1.8126,-1.8373,-1.853,-1.8998,-1.8935,-1.809,-1.8575,-1.9016,-1.929,-1.9261,-1.9373,-1.9736,-2.0399,-2.0809,-2.0791,-2.1657,-2.2395,-2.2705,-2.2995,-2.3459,-2.3986,-2.3951,-2.383,-2.3828,-2.3717,-2.356,-2.329,-2.3246,-2.326,-2.3201,-2.2844,-2.2495,-2.231,-2.2137,-2.1973,-2.1926,-2.1841,-2.1807,-2.1736,-2.1712,-2.1674,-2.1602,-2.1602,-2.1592,-2.1506,-2.1447,-2.1375,-2.1229,-2.1093,-2.0815,-2.033,-2.0129,-1.9868,-1.8933,-1.7958,-1.7122,-3.5545,-3.543,-3.5439,-3.5316,-3.5182,-3.5187,-3.5189,-3.5191,0.0,0.0,0.0,-3.4819,-3.4778,-3.4737,-3.4583,-3.4439,-3.4245,-3.4074,-3.3558,-3.279,-3.2692,-3.2245,-3.1464,-3.1446,-3.1334,-3.1091,-3.049,-3.0051,-2.9823,-2.9176,-2.8739,-2.8562,-2.8549,-2.851,-2.8419,-2.8411,-2.8017,-2.7214,-2.5856,-2.5016,-2.4718,-2.4064,-2.3642,-2.3505,-2.3505,-2.3464,-2.3418,-2.2778,-2.2418,-2.2391,-2.1585,-2.1088,-2.1051,-2.0855,-2.0718,-2.0651,-2.0622,-2.0553,-2.0376,-2.0338,-2.0302,-2.0184,-2.0461,-2.0231,-1.9344,-1.9294,-1.9523,-2.005,-2.0162,-2.0431,-2.0985,-2.1649,-2.2076,-2.2092,-2.2693,-2.3291,-2.3809,-2.3973,-2.4214,-2.4697,-2.463,-2.4462,-2.4224,-2.4114,-2.4024,-2.3782,-2.3739,-2.3717,-2.3638,-2.3268,-2.2904,-2.276,-2.2495,-2.2263,-2.2147,-2.2053,-2.1949,-2.1935,-2.1902,-2.1878,-2.1831,-2.1817,-2.1759,-2.1664,-2.164,-2.1544,-2.1361,-2.1313,-2.1215,-2.1006,-2.0957,-2.0858,-2.0457,-1.9429,-1.8384,-3.6948,-3.6328,-3.6328,-3.5889,-3.5182,-3.5182,-3.5196,-3.5191,-3.5057,-3.4983,-3.4964,-3.4907,-3.4877,-3.4868,-3.4737,-3.4583,-3.4461,-3.4363,-3.4141,0.0,-3.3781,-3.3287,-3.243,-3.2412,-3.2007,-3.1314,-3.1155,-3.0715,-3.0019,-2.986,-2.9465,-2.884,-2.8694,-2.8607,-2.8497,-2.8419,-2.8326,-2.8187,-2.7302,-2.6176,-2.4819,-2.4676,-2.4265,-2.3541,-2.3505,-2.3505,-2.3482,-2.3387,-2.3293,-2.3217,-2.2453,-2.2005,-2.1967,-2.1365,-2.0905,-2.0785,-2.078,-2.0713,-2.0605,-2.1007,-2.1385,-2.1573,-2.1553,-2.1084,-2.0085,-2.0523,-2.091,-2.0959,-2.1373,-2.1771,-2.1878,-2.2434,-2.283,-2.2821,-2.3354,-2.3793,-2.3951,-2.4444,-2.4804,-2.493,-2.4862,-2.4722,-2.4564,-2.4462,-2.4359,-2.424,-2.4141,-2.4141,-2.3979,-2.3588,-2.3275,-2.3164,-2.2867,-2.2663,-2.2595,-2.254,-2.244,-2.231,-2.2217,-2.2123,-2.203,-2.1912,-2.1855,-2.1783,-2.1769,-2.1759,-2.1674,-2.1712,-2.1602,-2.1482,-2.142,-2.135,-2.0995,-2.0611,-2.0141,-3.7483,-3.7158,-3.7158,-3.6929,-3.6509,-3.6099,-3.59,-3.5855,-3.5337,-3.5103,-3.5057,-3.5011,-3.5012,-3.4993,-3.4869,-3.4761,-3.466,-3.4561,-3.4397,-3.4221,-3.4185,-3.392,-3.3518,-3.3451,-3.3241,-3.2809,-3.2342,-3.1887,-3.1427,-3.0564,-2.9899,-2.9539,-2.9059,-2.8749,-2.8607,-2.8587,-2.8567,-2.8492,-2.7648,-2.6626,-2.5476,-2.5057,-2.4453,-2.3636,-2.36,-2.3618,-2.36,-2.36,-2.3567,-2.3517,-2.316,-2.293,-2.2839,-2.2502,-2.2255,-2.2164,-2.213,-2.206,-2.1971,-2.2043,-2.2081,-2.2048,-2.1913,-2.1574,-2.1021,-2.1146,-2.1392,-2.1713,-2.1983,-2.2253,-2.2603,-2.3241,-2.362,-2.3557,-2.4141,-2.4534,-2.4527,-2.4764,-2.4985,-2.4985,-2.4946,-2.4862,-2.4742,-2.4686,-2.4605,-2.4503,-2.4467,-2.4446,-2.4385,-2.4135,-2.3839,-2.3588,-2.3246,-2.3046,-2.3016,-2.2859,-2.2746,-2.2678,-2.2563,-2.2457,-2.2379,-2.224,-2.21,-2.203,-2.1959,-2.1878,-2.1817,-2.1793,-2.1783,-2.1736,-2.1698,-2.1616,-2.1458,-2.1361,-2.0937,-3.8171,-3.7999,-3.798,-3.7884,-3.7655,-3.7016,-3.6767,-3.6691,-3.5874,-3.5458,-3.5394,-3.5196,-3.5092,-3.5084,-3.4973,-3.4889,-3.4841,-3.474,-3.4615,-3.4495,-3.4439,-3.4363,-3.4293,-3.4293,-3.4276,-3.4111,-3.3468,-3.305,-3.2644,-3.1273,-3.0341,-2.995,-2.9304,-2.8887,-2.8743,-2.8749,-2.8694,-2.8601,-2.7916,-2.7138,-2.6315,-2.5571,-2.4791,-2.4024,-2.379,-2.3718,-2.3718,-2.3718,-2.3667,-2.3629,-2.3618,-2.3562,-2.3459,-2.3448,-2.3395,-2.3324,-2.3277,-2.3205,-2.3077,-2.2825,-2.2561,-2.2306,-2.2113,-2.2026,-2.1998,-2.1818,-2.1858,-2.228,-2.2584,-2.2966,-2.3444,-2.4085,-2.4447,-2.4417,-2.4828,-2.5044,-2.5029,-2.5025,-2.5025,-2.5005,-2.5005,-2.4946,-2.4882,-2.4842,-2.4806,-2.471,-2.4706,-2.4706,-2.4666,-2.46,-2.438,-2.4051,-2.3689,-2.3473,-2.3451,-2.3238,-2.3091,-2.3046,-2.2957,-2.2889,-2.2799,-2.2655,-2.2472,-2.2333,-2.2194,-2.2091,-2.1959,-2.1912,-2.1912,-2.1902,-2.1926,-2.1888,-2.1817,-2.1698,-2.1361,-3.9584,-3.8935,-3.8877,-3.8419,-3.7789,-3.7636,-3.7597,-3.7502,-3.6729,-3.6377,-3.6245,-3.547,-3.512,-3.5092,-3.5084,-3.5029,-3.4964,-3.4974,-3.4888,-3.4778,-3.4758,-3.4706,-3.4561,-3.455,-3.4528,-3.4443,-3.4292,-3.3806,-3.3115,-3.2109,-3.0832,-2.9448,-2.9204,-2.9078,-2.8917,-2.8875,-2.8858,-2.8773,-2.8652,-2.8118,-2.7193,-2.6399,-2.56,-2.4815,-2.4078,-2.3718,-2.37,-2.3718,-2.37,-2.3689,-2.3689,-2.3645,-2.3585,-2.3573,-2.3528,-2.3413,-2.3401,-2.3301,-2.3119,-2.2957,-2.279,-2.2579,-2.2449,-2.2552,-2.2904,-2.2898,-2.2745,-2.2818,-2.3713,-2.4291,-2.4337,-2.4882,-2.5201,-2.5122,-2.5214,-2.524,-2.5127,-2.5072,-2.5068,-2.5005,-2.5025,-2.4985,-2.4985,-2.5001,-2.4985,-2.4946,-2.5021,-2.5028,-2.4928,-2.4966,-2.4925,-2.4611,-2.4239,-2.4006,-2.3927,-2.3717,-2.3566,-2.353,-2.3443,-2.3334,-2.3238,-2.3038,-2.2799,-2.264,-2.2495,-2.2347,-2.2301,-2.224,-2.2147,-2.2147,-2.2161,-2.2137,-2.202,-2.1902,-2.1554,-4.0091,-3.9766,-3.9775,-3.9575,-3.9202,-3.8686,-3.8476,-3.8381,-3.7578,-3.6939,-3.65,-3.6075,-3.5647,-3.517,-3.5164,-3.5147,-3.512,-3.5094,-3.5001,-3.4917,-3.4927,-3.484,-3.4722,-3.4711,-3.4691,-3.4676,-3.4612,-3.44,-3.3853,-3.2639,-3.1096,-2.9549,-2.939,-2.9278,-2.9097,-2.9071,-2.9044,-2.8994,-2.8863,-2.8615,-2.8148,-2.6897,-2.5778,-2.4989,-2.4183,-2.3761,-2.375,-2.3761,-2.3757,-2.3772,-2.3754,-2.3711,-2.3674,-2.3618,-2.3573,-2.3517,-2.3448,-2.3348,-2.3229,-2.3095,-2.297,-2.2855,-2.3045,-2.3258,-2.3435,-2.4093,-2.4474,-2.438,-2.466,-2.4962,-2.5245,-2.5533,-2.5621,-2.5521,-2.5467,-2.541,-2.524,-2.522,-2.5217,-2.5182,-2.5178,-2.5178,-2.5178,-2.5178,-2.5143,-2.5147,-2.5382,-2.5658,-2.5557,-2.5847,-2.6115,-2.6068,-2.5856,-2.5298,-2.4594,-2.4151,-2.4046,-2.3988,-2.3867,-2.3754,-2.3668,-2.3385,-2.3068,-2.2957,-2.2768,-2.2601,-2.2523,-2.2486,-2.244,-2.2417,-2.2402,-2.2394,-2.224,-2.217,-2.1983,-4.0319,-4.0319,-4.0328,-4.0319,-4.0252,-3.9641,-3.9345,-3.924,-3.8438,-3.7731,-3.7149,-3.671,-3.6175,-3.5583,-3.531,-3.5179,-3.5189,-3.5145,-3.511,-3.5047,-3.5038,-3.5001,-3.4898,-3.4879,-3.4879,-3.4878,-3.479,-3.4607,-3.4256,-3.2927,-3.1391,-3.0075,-2.9673,-2.9464,-2.9312,-2.9296,-2.9225,-2.9149,-2.9044,-2.8987,-2.8762,-2.7442,-2.6218,-2.5386,-2.4567,-2.4013,-2.3813,-2.3795,-2.3803,-2.3807,-2.3807,-2.3786,-2.3721,-2.3685,-2.3641,-2.3585,-2.3471,-2.3383,-2.3324,-2.3229,-2.3219,-2.336,-2.3661,-2.3977,-2.441,-2.5181,-2.5771,-2.5895,-2.5715,-2.576,-2.5929,-2.599,-2.5915,-2.5749,-2.5712,-2.5637,-2.5467,-2.5413,-2.5394,-2.5336,-2.5333,-2.5317,-2.5326,-2.5454,-2.5575,-2.5548,-2.607,-2.6495,-2.6449,-2.6809,-2.7142,-2.7169,-2.7057,-2.6513,-2.541,-2.5149,-2.4946,-2.4694,-2.4583,-2.4453,-2.4206,-2.3754,-2.3458,-2.3355,-2.3068,-2.2836,-2.2715,-2.2669,-2.2601,-2.2615,-2.2615,-2.2555,-2.2463,-2.2463,-2.237,-4.0398,-4.0398,-4.0398,-4.0342,-4.0307,-4.023,-4.0223,-4.01,-3.9298,-3.8916,-3.8572,-3.7254,-3.65,-3.6347,-3.5602,-3.522,-3.5182,-3.5193,-3.5187,-3.5172,-3.5172,-3.5147,-3.5084,-3.5084,-3.5075,-3.5048,-3.4955,-3.4472,-3.3619,-3.2722,-3.1845,-3.0913,-3.0085,-2.9617,-2.9512,-2.9482,-2.9414,-2.9293,-2.9225,-2.9178,-2.9075,-2.8165,-2.7196,-2.6293,-2.5379,-2.4556,-2.394,-2.3813,-2.3795,-2.3795,-2.3813,-2.3803,-2.3786,-2.3793,-2.3739,-2.3607,-2.3464,-2.3413,-2.3448,-2.3413,-2.3606,-2.4146,-2.4318,-2.4749,-2.5756,-2.6051,-2.639,-2.6965,-2.6853,-2.6657,-2.6383,-2.6277,-2.6152,-2.601,-2.599,-2.5901,-2.5701,-2.5701,-2.5589,-2.5454,-2.5451,-2.5496,-2.5397,-2.5854,-2.6198,-2.6371,-2.6883,-2.7331,-2.7342,-2.739,-2.7534,-2.7545,-2.7492,-2.7248,-2.6865,-2.6428,-2.6145,-2.5842,-2.5529,-2.5352,-2.4751,-2.424,-2.4009,-2.376,-2.348,-2.3216,-2.2971,-2.2814,-2.2723,-2.2692,-2.2661,-2.2615,-2.2592,-2.2592,-2.2546,-4.046,-4.046,-4.0408,-4.0392,-4.0375,-4.036,-4.0372,-4.0335,-4.0048,-3.9561,-3.9026,-3.8395,-3.7547,-3.6481,-3.6175,-3.5717,-3.522,-3.5182,-3.5193,-3.5185,-3.5185,-3.5179,-3.5183,-3.5155,-3.5138,-3.5111,-3.5057,-3.4565,-3.3702,-3.2851,-3.1982,-3.1114,-3.0248,-2.9771,-2.97,-2.9645,-2.9589,-2.9542,-2.9463,-2.9401,-2.9361,-2.8896,-2.8239,-2.7288,-2.5852,-2.4896,-2.4603,-2.4077,-2.3795,-2.3795,-2.3795,-2.3813,-2.381,-2.3807,-2.3761,-2.3685,-2.3585,-2.3742,-2.4206,-2.4195,-2.446,-2.5202,-2.5628,-2.592,-2.6465,-2.6839,-2.717,-2.735,-2.7326,-2.7152,-2.7006,-2.6725,-2.647,-2.6383,-2.6296,-2.6208,-2.6101,-2.6064,-2.5956,-2.5828,-2.5752,-2.5877,-2.6243,-2.6526,-2.6755,-2.7183,-2.7782,-2.8105,-2.8201,-2.8436,-2.8676,-2.8718,-2.875,-2.8706,-2.8618,-2.7646,-2.7005,-2.673,-2.6439,-2.5999,-2.5461,-2.4823,-2.4488,-2.4114,-2.3846,-2.3625,-2.337,-2.3075,-2.2963,-2.2933,-2.2888,-2.2775,-2.2721,-2.2743,-2.2698,-4.0571,-4.0564,-4.05,-4.0477,-4.0462,-4.046,-4.0447,-4.0438,-4.0422,-4.006,-3.9536,-3.9231,-3.8421,-3.7354,-3.678,-3.6255,-3.5635,-3.537,-3.5182,-3.5182,-3.5182,-3.5193,-3.5187,-3.5179,-3.5181,-3.5136,-3.5138,-3.4805,-3.4179,-3.3346,-3.2511,-3.167,-3.0782,-3.0175,-2.9889,-2.9779,-2.9761,-2.9708,-2.9608,-2.9551,-2.9532,-2.9382,-2.9005,-2.8236,-2.6851,-2.5838,-2.5415,-2.4643,-2.4197,-2.4139,-2.394,-2.3933,-2.4157,-2.4187,-2.427,-2.4424,-2.4428,-2.4615,-2.5064,-2.5111,-2.5376,-2.6085,-2.6508,-2.6829,-2.7116,-2.7496,-2.7701,-2.7707,-2.7617,-2.7524,-2.7463,-2.7214,-2.694,-2.6792,-2.6657,-2.6539,-2.647,-2.6401,-2.6279,-2.6187,-2.6328,-2.6601,-2.6986,-2.7385,-2.778,-2.8135,-2.8676,-2.9006,-2.9075,-2.9299,-2.963,-2.963,-2.9556,-2.9524,-2.9422,-2.8763,-2.8068,-2.7721,-2.7396,-2.6882,-2.6159,-2.5485,-2.4925,-2.4488,-2.4183,-2.3988,-2.3732,-2.3422,-2.3305,-2.3238,-2.3149,-2.3023,-2.297,-2.2894,-2.2834,-4.0694,-4.0713,-4.0713,-4.0661,-4.0614,-4.0583,-4.0573,-4.0504,-4.0438,-4.0364,-4.0164,-3.9539,-3.9128,-3.869,-3.7474,-3.668,-3.6353,-3.5701,-3.5275,-3.5201,-3.5182,-3.5182,-3.5182,-3.5193,-3.5182,-3.5193,-3.5179,-3.5145,-3.4958,-3.4111,-3.3266,-3.2504,-3.1602,-3.0717,-2.9916,-2.9907,-2.9874,-2.9815,-2.9754,-2.9708,-2.9672,-2.9561,-2.9405,-2.9165,-2.8347,-2.7429,-2.6435,-2.5572,-2.5085,-2.494,-2.4349,-2.4259,-2.4918,-2.5012,-2.5303,-2.5786,-2.5985,-2.6003,-2.6014,-2.6007,-2.6249,-2.6823,-2.693,-2.7289,-2.7762,-2.7929,-2.7968,-2.794,-2.7864,-2.7789,-2.776,-2.7644,-2.7432,-2.7151,-2.7023,-2.6941,-2.6825,-2.6741,-2.6657,-2.6604,-2.6984,-2.7288,-2.7503,-2.8273,-2.9008,-2.9219,-2.9564,-2.9848,-2.9811,-2.9881,-2.9886,-2.9896,-2.9896,-2.988,-2.988,-2.9815,-2.9264,-2.8753,-2.8405,-2.7945,-2.7018,-2.6272,-2.5638,-2.5163,-2.4539,-2.4333,-2.4067,-2.3769,-2.3596,-2.3509,-2.34,-2.3268,-2.3194,-2.3105,-2.3037,-4.0839,-4.0833,-4.0784,-4.0761,-4.0724,-4.0694,-4.0662,-4.0629,-4.0607,-4.0598,-4.0492,-4.0262,-3.9788,-3.9181,-3.8562,-3.7759,-3.6696,-3.6297,-3.582,-3.5275,-3.519,-3.519,-3.5182,-3.5182,-3.5182,-3.5182,-3.5193,-3.5176,-3.5007,-3.4295,-3.3429,-3.2591,-3.1748,-3.0879,-3.0114,-3.003,-3.0022,-2.9991,-2.9899,-2.9839,-2.9822,-2.9708,-2.9608,-2.9494,-2.9191,-2.8781,-2.8339,-2.6888,-2.6071,-2.5969,-2.5739,-2.5692,-2.5837,-2.5853,-2.5945,-2.6115,-2.6122,-2.6375,-2.6837,-2.686,-2.712,-2.7674,-2.7839,-2.7924,-2.8087,-2.8099,-2.8071,-2.8071,-2.7996,-2.7922,-2.7908,-2.7896,-2.7733,-2.7463,-2.7341,-2.7263,-2.7198,-2.7104,-2.7246,-2.7606,-2.7776,-2.8195,-2.8964,-2.9688,-2.9812,-3.0131,-3.0278,-3.0274,-3.0253,-3.0184,-3.0103,-3.0103,-3.0103,-3.0098,-3.0076,-3.0055,-2.9778,-2.9378,-2.9087,-2.8737,-2.7851,-2.7182,-2.651,-2.5814,-2.5192,-2.4714,-2.4436,-2.4151,-2.3967,-2.379,-2.3683,-2.3553,-2.3415,-2.3349,-2.329,-4.0941,-4.0932,-4.0888,-4.0869,-4.0864,-4.0787,-4.0784,-4.0759,-4.0738,-4.0726,-4.0662,-4.0654,-4.033,-3.9769,-3.9425,-3.8517,-3.7278,-3.687,-3.6163,-3.5377,-3.5239,-3.525,-3.5245,-3.5209,-3.5182,-3.5182,-3.5182,-3.5182,-3.5163,-3.465,-3.3955,-3.3107,-3.2244,-3.1421,-3.062,-3.0251,-3.0091,-3.0087,-3.0022,-2.9972,-2.9948,-2.9874,-2.9798,-2.9708,-2.9654,-2.9551,-2.9339,-2.8229,-2.7427,-2.6995,-2.6644,-2.6545,-2.6767,-2.6772,-2.6842,-2.7072,-2.7127,-2.7308,-2.7693,-2.7715,-2.7826,-2.8264,-2.8327,-2.83,-2.825,-2.8209,-2.8168,-2.814,-2.8099,-2.8071,-2.8067,-2.8056,-2.794,-2.781,-2.763,-2.7539,-2.7544,-2.7693,-2.7895,-2.8366,-2.8801,-2.9471,-2.9994,-3.0493,-3.0518,-3.0897,-3.074,-3.0551,-3.051,-3.038,-3.0316,-3.0253,-3.0189,-3.0205,-3.0205,-3.0205,-3.0205,-2.9961,-2.968,-2.9262,-2.8614,-2.8171,-2.7624,-2.68,-2.6109,-2.5598,-2.5279,-2.4668,-2.4328,-2.4156,-2.4085,-2.3919,-2.3812,-2.3683,-2.3603,-4.1013,-4.101,-4.1015,-4.1,-4.0992,-4.0935,-4.0897,-4.0888,-4.0844,-4.0798,-4.0787,-4.0756,-4.0687,-4.0487,-3.9889,-3.9033,-3.8074,-3.7314,-3.64,-3.5645,-3.5352,-3.5308,-3.5293,-3.5242,-3.5226,-3.5207,-3.5198,-3.5218,-3.5218,-3.5087,-3.4789,-3.3872,-3.2978,-3.2226,-3.1306,-3.0536,-3.0113,-3.0098,-3.0102,-3.0095,-3.0095,-3.0049,-2.9975,-2.9912,-2.9842,-2.9755,-2.9608,-2.9401,-2.8938,-2.8033,-2.7261,-2.7196,-2.764,-2.7718,-2.7971,-2.8476,-2.8652,-2.8499,-2.8502,-2.8404,-2.8407,-2.8401,-2.8406,-2.8367,-2.8327,-2.8286,-2.8277,-2.8223,-2.8209,-2.8209,-2.8196,-2.8154,-2.8112,-2.8085,-2.7911,-2.781,-2.7856,-2.8436,-2.8815,-2.9107,-3.0001,-3.089,-3.0748,-3.1188,-3.1331,-3.1336,-3.11,-3.0905,-3.0784,-3.0675,-3.0501,-3.0438,-3.0422,-3.0422,-3.0443,-3.0401,-3.0401,-3.0309,-3.011,-2.9779,-2.934,-2.8927,-2.8364,-2.7571,-2.7037,-2.6538,-2.6077,-2.5546,-2.5105,-2.4967,-2.4772,-2.4436,-2.4213,-2.4067,-2.3946,-4.1083,-4.1081,-4.1064,-4.1078,-4.1055,-4.1013,-4.0963,-4.0956,-4.0941,-4.0939,-4.093,-4.0869,-4.0849,-4.0805,-4.0544,-3.9644,-3.8421,-3.7892,-3.6903,-3.572,-3.5515,-3.5429,-3.5335,-3.5285,-3.5278,-3.5278,-3.5266,-3.5277,-3.5269,-3.5226,-3.4789,-3.4006,-3.3203,-3.229,-3.1405,-3.0648,-3.0209,-3.0157,-3.0128,-3.0094,-3.0106,-3.0102,-3.0072,-3.0049,-2.9983,-2.9924,-2.9893,-2.9808,-2.9561,-2.9072,-2.8706,-2.8576,-2.8728,-2.8699,-2.87,-2.879,-2.8858,-2.8803,-2.8737,-2.8669,-2.8625,-2.8549,-2.851,-2.8445,-2.838,-2.8367,-2.8384,-2.8358,-2.8358,-2.8331,-2.8273,-2.8246,-2.8237,-2.8168,-2.8124,-2.8219,-2.8614,-2.8921,-2.9417,-3.0515,-3.1014,-3.1405,-3.1777,-3.1864,-3.1929,-3.182,-3.1562,-3.1276,-3.1198,-3.0982,-3.0834,-3.079,-3.0753,-3.0733,-3.0712,-3.063,-3.0589,-3.0589,-3.0435,-3.0276,-2.9847,-2.9398,-2.8719,-2.7928,-2.7782,-2.7385,-2.7062,-2.6651,-2.6294,-2.5823,-2.5305,-2.4934,-2.4611,-2.4421,-2.4317,-4.1103,-4.1103,-4.1111,-4.1105,-4.11,-4.1047,-4.1056,-4.1028,-4.1046,-4.1032,-4.1025,-4.0961,-4.096,-4.0948,-4.0873,-3.9917,-3.8467,-3.8227,-3.7221,-3.5845,-3.5612,-3.5509,-3.5409,-3.5379,-3.5357,-3.533,-3.5312,-3.5316,-3.5289,-3.525,-3.4974,-3.4507,-3.367,-3.2795,-3.1992,-3.1178,-3.0529,-3.028,-3.0164,-3.013,-3.015,-3.0154,-3.0113,-3.0098,-3.0068,-3.0034,-3.0022,-2.9943,-2.9753,-2.9542,-2.9424,-2.9361,-2.9339,-2.9265,-2.916,-2.9044,-2.9033,-2.8957,-2.887,-2.881,-2.8743,-2.8687,-2.8607,-2.8543,-2.8497,-2.8458,-2.8445,-2.8411,-2.8411,-2.8367,-2.8353,-2.8358,-2.8475,-2.8752,-2.8719,-2.8845,-2.9221,-2.9843,-3.0505,-3.1308,-3.179,-3.2024,-3.2521,-3.237,-3.2284,-3.2197,-3.1948,-3.1765,-3.1635,-3.1389,-3.1196,-3.1173,-3.1075,-3.1015,-3.0975,-3.0915,-3.0818,-3.0814,-3.0712,-3.0568,-3.0294,-2.9889,-2.9531,-2.8948,-2.8625,-2.8319,-2.8058,-2.7672,-2.7061,-2.6534,-2.5934,-2.5457,-2.5155,-2.4811,-2.471,-4.1107,-4.1107,-4.1102,-4.1116,-4.1111,-4.1101,-4.109,-4.11,-4.1106,-4.1098,-4.1075,-4.1022,-4.1026,-4.1016,-4.0972,-4.0062,-3.8428,-3.8324,-3.7215,-3.6154,-3.5649,-3.561,-3.5546,-3.5469,-3.5435,-3.5422,-3.5333,-3.533,-3.5323,-3.5304,-3.53,-3.4967,-3.4332,-3.3525,-3.2569,-3.1824,-3.1052,-3.0352,-3.0204,-3.0197,-3.0197,-3.0197,-3.0164,-3.0135,-3.0128,-3.0094,-3.0091,-3.0019,-2.9932,-2.9761,-2.9664,-2.9589,-2.9531,-2.9472,-2.9372,-2.9275,-2.9232,-2.9138,-2.8991,-2.8975,-2.8917,-2.8858,-2.8767,-2.8694,-2.865,-2.86,-2.8549,-2.8497,-2.845,-2.8432,-2.8406,-2.8393,-2.8734,-2.9274,-2.9557,-2.9681,-2.9923,-3.0865,-3.1709,-3.1773,-3.2414,-3.2668,-3.2673,-3.259,-3.2523,-3.2473,-3.2266,-3.2091,-3.1966,-3.1784,-3.1635,-3.1543,-3.1428,-3.1308,-3.1232,-3.1173,-3.1114,-3.1055,-3.0915,-3.0773,-3.0651,-3.0415,-3.036,-3.0083,-2.9543,-2.9288,-2.9182,-2.8649,-2.7938,-2.7369,-2.6902,-2.6299,-2.5747,-2.5339,-2.513,-4.1107,-4.1107,-4.1106,-4.1105,-4.1103,-4.1117,-4.1112,-4.1109,-4.1113,-4.1107,-4.1103,-4.1091,-4.1083,-4.1081,-4.1009,-4.0126,-3.8594,-3.8244,-3.744,-3.5957,-3.5773,-3.5765,-3.5699,-3.561,-3.5565,-3.5527,-3.5483,-3.5456,-3.5441,-3.5386,-3.535,-3.5193,-3.4572,-3.3645,-3.2826,-3.2039,-3.1068,-3.0353,-3.0218,-3.0211,-3.0211,-3.0211,-3.0204,-3.019,-3.019,-3.019,-3.0176,-3.0121,-3.0064,-2.9984,-2.9888,-2.9806,-2.9755,-2.9728,-2.9645,-2.9531,-2.9461,-2.9392,-2.9299,-2.9181,-2.9123,-2.91,-2.8975,-2.8839,-2.8846,-2.8773,-2.8737,-2.87,-2.8657,-2.8582,-2.851,-2.8432,-2.8918,-2.9598,-3.0232,-3.0794,-3.1308,-3.1643,-3.2033,-3.2472,-3.2707,-3.2868,-3.2852,-3.2771,-3.2722,-3.2707,-3.2591,-3.2404,-3.2249,-3.2144,-3.2038,-3.1949,-3.1857,-3.1728,-3.1673,-3.1579,-3.1447,-3.1351,-3.1215,-3.1055,-3.0935,-3.0794,-3.0716,-3.0576,-3.0332,-3.0146,-2.9927,-2.9552,-2.8836,-2.8352,-2.7817,-2.7192,-2.6587,-2.6056,-2.5675,-4.1131,-4.1151,-4.1151,-4.113,-4.1109,-4.1107,-4.1103,-4.1098,-4.1111,-4.1104,-4.1101,-4.1115,-4.1109,-4.1103,-4.104,-4.0138,-3.8568,-3.7567,-3.6758,-3.5937,-3.5836,-3.5833,-3.5834,-3.5758,-3.5684,-3.5629,-3.5568,-3.554,-3.5522,-3.547,-3.5437,-3.5383,-3.4908,-3.4311,-3.3407,-3.2562,-3.1755,-3.0937,-3.0419,-3.0233,-3.0213,-3.0206,-3.0218,-3.0211,-3.0204,-3.0204,-3.0204,-3.0183,-3.0157,-3.0135,-3.0072,-2.9988,-2.9899,-2.9893,-2.9834,-2.971,-2.9673,-2.9579,-2.9482,-2.9431,-2.9359,-2.9307,-2.9171,-2.9093,-2.9055,-2.8975,-2.8917,-2.8881,-2.8815,-2.8743,-2.8681,-2.9072,-2.9474,-3.0225,-3.102,-3.1805,-3.2382,-3.249,-3.2519,-3.2903,-3.2975,-3.2995,-3.2979,-3.2932,-3.2932,-3.2916,-3.287,-3.2706,-3.2655,-3.2538,-3.2437,-3.2352,-3.2249,-3.2161,-3.2126,-3.202,-3.1802,-3.171,-3.1598,-3.1428,-3.1274,-3.1137,-3.0998,-3.0801,-3.0597,-3.0572,-3.0352,-3.0013,-2.9654,-2.9081,-2.851,-2.7974,-2.7538,-2.7182,-2.6749,-4.1191,-4.1191,-4.1191,-4.1152,-4.1112,-4.1111,-4.1108,-4.1102,-4.11,-4.1116,-4.1111,-4.1111,-4.1104,-4.1117,-4.1115,-4.0095,-3.8484,-3.7091,-3.6294,-3.595,-3.5911,-3.5906,-3.5911,-3.583,-3.5779,-3.5726,-3.5664,-3.5643,-3.5604,-3.5556,-3.5552,-3.5496,-3.5451,-3.4828,-3.4083,-3.348,-3.2551,-3.154,-3.0919,-3.042,-3.0279,-3.0227,-3.0233,-3.0219,-3.0218,-3.0218,-3.0218,-3.0204,-3.0204,-3.0204,-3.0204,-3.0135,-3.0068,-3.0022,-2.9983,-2.9841,-2.9823,-2.9771,-2.9701,-2.9636,-2.9569,-2.9472,-2.9402,-2.9312,-2.9235,-2.9189,-2.9104,-2.9055,-2.8998,-2.902,-2.9077,-2.9509,-3.0347,-3.1151,-3.1938,-3.2591,-3.3132,-3.3211,-3.3126,-3.3068,-3.3088,-3.3073,-3.3088,-3.3057,-3.3104,-3.3104,-3.3057,-3.3028,-3.2963,-3.2914,-3.2784,-3.2719,-3.2605,-3.2522,-3.2489,-3.237,-3.2162,-3.2073,-3.1984,-3.1803,-3.1618,-3.1506,-3.1334,-3.0995,-3.0834,-3.0773,-3.0692,-3.0427,-3.005,-2.9648,-2.9224,-2.8702,-2.8431,-2.826,-2.7777,-4.1191,-4.1191,-4.1191,-4.1191,-4.1172,-4.1132,-4.1111,-4.111,-4.1107,-4.1103,-4.1117,-4.1116,-4.1114,-4.1108,-4.1108,-4.0106,-3.8557,-3.7381,-3.6577,-3.6079,-3.5979,-3.5977,-3.5973,-3.5904,-3.5869,-3.5849,-3.5791,-3.5741,-3.5699,-3.5679,-3.5639,-3.5596,-3.5585,-3.5104,-3.4554,-3.4042,-3.3247,-3.2133,-3.15,-3.0983,-3.0541,-3.0318,-3.0279,-3.0266,-3.0227,-3.0207,-3.0219,-3.0218,-3.0204,-3.0204,-3.0204,-3.0197,-3.015,-3.0121,-3.0076,-3.003,-2.9964,-2.9924,-2.9901,-2.9825,-2.9782,-2.9719,-2.9617,-2.954,-2.9471,-2.9411,-2.933,-2.9275,-2.9292,-2.9418,-2.9993,-3.0301,-3.0925,-3.1814,-3.2428,-3.2794,-3.3306,-3.3437,-3.3345,-3.3208,-3.318,-3.3135,-3.3165,-3.318,-3.318,-3.318,-3.315,-3.3119,-3.3104,-3.307,-3.3039,-3.2993,-3.2945,-3.2882,-3.2818,-3.2672,-3.2488,-3.2438,-3.2335,-3.2197,-3.202,-3.1894,-3.1674,-3.137,-3.1095,-3.0935,-3.0818,-3.0716,-3.0514,-3.0153,-2.9764,-2.9376,-2.9224,-2.9002,-2.8537,-4.1191,-4.1191,-4.1191,-4.1191,-4.1191,-4.1172,-4.1132,-4.1111,-4.111,-4.1108,-4.1104,-4.1103,-4.1102,-4.11,-4.11,-4.016,-3.8708,-3.7687,-3.6825,-3.6157,-3.6019,-3.6017,-3.6013,-3.5968,-3.5945,-3.5931,-3.5919,-3.5836,-3.5768,-3.5764,-3.5735,-3.5718,-3.5708,-3.5447,-3.4996,-3.4525,-3.3958,-3.2993,-3.2216,-3.1515,-3.0972,-3.0642,-3.0356,-3.0299,-3.0286,-3.026,-3.0241,-3.0253,-3.0259,-3.0259,-3.02,-3.0213,-3.0199,-3.0178,-3.0123,-3.0106,-3.0064,-3.0042,-3.0046,-2.9975,-2.9951,-2.9891,-2.9815,-2.9764,-2.9692,-2.9636,-2.956,-2.9556,-2.9895,-3.01,-3.0417,-3.1131,-3.1942,-3.2501,-3.2972,-3.3335,-3.3547,-3.3615,-3.3502,-3.3371,-3.3331,-3.3301,-3.3271,-3.3271,-3.3256,-3.3256,-3.3241,-3.3241,-3.3226,-3.3226,-3.3211,-3.3196,-3.315,-3.3088,-3.3026,-3.2914,-3.2802,-3.2755,-3.269,-3.2522,-3.2421,-3.2283,-3.2073,-3.1783,-3.1504,-3.1254,-3.1015,-3.0915,-3.0773,-3.0647,-3.0269,-2.9963,-2.9893,-2.9694,-2.9244,-4.1172,-4.1191,-4.1191,-4.1191,-4.1191,-4.1191,-4.1172,-4.1132,-4.1132,-4.1111,-4.1108,-4.1108,-4.1108,-4.1108,-4.0912,-4.0206,-3.8641,-3.7835,-3.7052,-3.6151,-3.6013,-3.601,-3.6004,-3.6022,-3.5999,-3.5994,-3.5988,-3.5929,-3.5827,-3.5833,-3.5836,-3.5815,-3.5823,-3.5788,-3.551,-3.507,-3.4699,-3.4003,-3.3171,-3.2255,-3.1595,-3.0896,-3.0389,-3.034,-3.034,-3.0342,-3.0311,-3.0318,-3.0305,-3.0292,-3.0254,-3.0215,-3.0221,-3.0213,-3.0185,-3.013,-3.0123,-3.0101,-3.0106,-3.0102,-3.0034,-3.0022,-3.0022,-2.9959,-2.9885,-2.9835,-2.9848,-2.9964,-3.031,-3.099,-3.1453,-3.2303,-3.295,-3.3314,-3.371,-3.4005,-3.385,-3.3807,-3.3739,-3.3629,-3.3534,-3.3495,-3.3462,-3.3404,-3.3404,-3.3375,-3.336,-3.3331,-3.3316,-3.3331,-3.3316,-3.3349,-3.3319,-3.3259,-3.318,-3.3135,-3.3057,-3.3028,-3.2948,-3.2834,-3.2753,-3.2654,-3.2403,-3.2179,-3.1984,-3.173,-3.1428,-3.1112,-3.0952,-3.0773,-3.063,-3.0464,-3.0261,-3.0191,-2.9959,-4.1112,-4.1112,-4.1172,-4.1191,-4.1191,-4.1191,-4.1191,-4.1191,-4.1172,-4.1152,-4.1112,-4.1111,-4.111,-4.109,-4.105,-4.0091,-3.8958,-3.8234,-3.7352,-3.6179,-3.6002,-3.6018,-3.6012,-3.601,-3.601,-3.6007,-3.6007,-3.5955,-3.589,-3.5902,-3.5894,-3.5897,-3.5891,-3.5866,-3.5778,-3.5557,-3.5247,-3.4606,-3.4195,-3.3296,-3.1981,-3.1091,-3.0723,-3.0635,-3.0576,-3.0554,-3.0521,-3.0479,-3.0373,-3.0329,-3.0304,-3.0279,-3.0286,-3.0246,-3.0207,-3.0174,-3.018,-3.0178,-3.0164,-3.0135,-3.0101,-3.0098,-3.0102,-3.0046,-3.001,-3.0075,-3.0261,-3.0908,-3.1063,-3.1657,-3.2587,-3.3193,-3.3685,-3.3975,-3.4232,-3.4281,-3.4179,-3.4049,-3.3985,-3.3895,-3.382,-3.3712,-3.3643,-3.3605,-3.3549,-3.3506,-3.3462,-3.3452,-3.3422,-3.3408,-3.3393,-3.3378,-3.3378,-3.3334,-3.3304,-3.3274,-3.3244,-3.3232,-3.3183,-3.3104,-3.3026,-3.2914,-3.2834,-3.2588,-3.2386,-3.2109,-3.1746,-3.1426,-3.1134,-3.0935,-3.0794,-3.0651,-3.0493,-3.0477,-3.0444,-4.1099,-4.1109,-4.113,-4.1131,-4.1131,-4.115,-4.115,-4.1131,-4.115,-4.1132,-4.1113,-4.1113,-4.1113,-4.1035,-4.0683,-3.9745,-3.8689,-3.8141,-3.724,-3.6262,-3.6008,-3.6007,-3.6004,-3.6021,-3.6018,-3.6017,-3.6013,-3.5989,-3.5956,-3.597,-3.5962,-3.5953,-3.5951,-3.5946,-3.5911,-3.5867,-3.5663,-3.5253,-3.4713,-3.3852,-3.283,-3.2236,-3.1986,-3.197,-3.153,-3.1294,-3.1119,-3.0635,-3.0474,-3.0428,-3.0417,-3.0402,-3.0355,-3.0299,-3.0254,-3.026,-3.0233,-3.0206,-3.0204,-3.0171,-3.0145,-3.0157,-3.0161,-3.0121,-3.0152,-3.0456,-3.0747,-3.1157,-3.2093,-3.291,-3.3573,-3.4017,-3.4326,-3.4574,-3.4626,-3.4528,-3.4439,-3.4351,-3.4269,-3.4185,-3.4099,-3.3998,-3.3895,-3.3788,-3.3726,-3.3629,-3.3577,-3.3491,-3.3448,-3.3404,-3.3408,-3.3393,-3.3393,-3.3378,-3.3364,-3.3349,-3.3334,-3.3319,-3.3319,-3.3241,-3.3214,-3.3119,-3.3026,-3.2882,-3.2654,-3.2335,-3.2019,-3.169,-3.137,-3.1154,-3.0972,-3.0814,-3.0692,-3.063,-3.0563,-4.1081,-4.1076,-4.1083,-4.1105,-4.1105,-4.1105,-4.1105,-4.1105,-4.1104,-4.1104,-4.1104,-4.1104,-4.1104,-4.0911,-4.027,-3.9452,-3.8574,-3.7695,-3.6815,-3.6248,-3.6013,-3.6012,-3.6011,-3.6008,-3.6006,-3.6006,-3.6002,-3.5998,-3.5995,-3.6009,-3.6002,-3.6013,-3.5992,-3.599,-3.5988,-3.596,-3.5853,-3.5744,-3.4979,-3.4251,-3.3608,-3.3274,-3.3153,-3.2955,-3.2629,-3.2205,-3.2027,-3.1374,-3.0935,-3.0902,-3.0612,-3.0495,-3.0411,-3.0383,-3.0342,-3.033,-3.0267,-3.0234,-3.0226,-3.0199,-3.0211,-3.0204,-3.0261,-3.0278,-3.0562,-3.1047,-3.171,-3.2064,-3.2896,-3.3669,-3.4184,-3.466,-3.4766,-3.4822,-3.484,-3.4749,-3.4666,-3.4583,-3.4539,-3.4473,-3.4386,-3.4328,-3.4209,-3.403,-3.3921,-3.3775,-3.3684,-3.3577,-3.3506,-3.3448,-3.3419,-3.3404,-3.3408,-3.3408,-3.3393,-3.3393,-3.3393,-3.3393,-3.3393,-3.3378,-3.3304,-3.3274,-3.3214,-3.3057,-3.2864,-3.2654,-3.237,-3.1984,-3.1598,-3.1389,-3.1193,-3.1015,-3.0875,-3.0814,-3.0695,-4.1006,-4.1028,-4.1083,-4.1098,-4.1098,-4.1099,-4.1099,-4.1116,-4.1112,-4.109,-4.1108,-4.1109,-4.1088,-4.0839,-4.0101,-3.9266,-3.8563,-3.7689,-3.6795,-3.621,-3.6016,-3.6015,-3.6014,-3.6013,-3.6011,-3.6011,-3.6009,-3.6007,-3.6004,-3.6022,-3.6017,-3.6012,-3.6007,-3.6004,-3.6001,-3.5997,-3.5949,-3.5782,-3.5183,-3.4806,-3.4347,-3.3955,-3.3554,-3.3475,-3.331,-3.3161,-3.3064,-3.2299,-3.1856,-3.1766,-3.1149,-3.0756,-3.0738,-3.0553,-3.0477,-3.0396,-3.0342,-3.0369,-3.0452,-3.0316,-3.0237,-3.023,-3.0338,-3.0682,-3.1252,-3.1355,-3.2103,-3.3282,-3.383,-3.4251,-3.471,-3.5065,-3.5047,-3.5039,-3.5002,-3.4946,-3.4869,-3.4829,-3.4778,-3.4728,-3.4687,-3.4586,-3.4531,-3.4379,-3.4166,-3.403,-3.3815,-3.3712,-3.3577,-3.3524,-3.3462,-3.3433,-3.3422,-3.3408,-3.3408,-3.3408,-3.3422,-3.3422,-3.3408,-3.3393,-3.3378,-3.3349,-3.3322,-3.3214,-3.3042,-3.2882,-3.2705,-3.23,-3.1949,-3.1656,-3.1428,-3.1293,-3.1117,-3.1015,-3.0875,-4.093,-4.0929,-4.1007,-4.1064,-4.1105,-4.1105,-4.1105,-4.1083,-4.1054,-4.1028,-4.1047,-4.1047,-4.1047,-4.0701,-3.9605,-3.885,-3.8346,-3.7076,-3.6417,-3.6127,-3.6012,-3.6014,-3.6015,-3.6016,-3.6015,-3.6015,-3.6014,-3.6012,-3.6009,-3.6009,-3.6008,-3.6004,-3.6018,-3.6012,-3.6009,-3.6007,-3.598,-3.5914,-3.5676,-3.5457,-3.539,-3.5232,-3.4935,-3.4898,-3.4235,-3.4127,-3.3932,-3.3219,-3.2911,-3.2561,-3.1882,-3.155,-3.1286,-3.0954,-3.0714,-3.0634,-3.0621,-3.0785,-3.0969,-3.0727,-3.0476,-3.0946,-3.1047,-3.1331,-3.2134,-3.2611,-3.3119,-3.3895,-3.4413,-3.4816,-3.5007,-3.5151,-3.517,-3.5164,-3.5138,-3.5092,-3.5057,-3.4983,-3.4946,-3.4888,-3.4879,-3.484,-3.4772,-3.4711,-3.4491,-3.4286,-3.4043,-3.386,-3.373,-3.3605,-3.3563,-3.3516,-3.3506,-3.3506,-3.3506,-3.3495,-3.3466,-3.3452,-3.3437,-3.3437,-3.3437,-3.3411,-3.3367,-3.3292,-3.3232,-3.3057,-3.2866,-3.2587,-3.2283,-3.1966,-3.1748,-3.16,-3.1428,-3.1235,-3.1098,-4.0867,-4.0898,-4.0945,-4.1003,-4.1071,-4.1075,-4.1075,-4.1052,-4.1009,-4.096,-4.096,-4.096,-4.0963,-4.0507,-3.9282,-3.8516,-3.8042,-3.6914,-3.6204,-3.5975,-3.5999,-3.6003,-3.6006,-3.6009,-3.6012,-3.6014,-3.6015,-3.6016,-3.6014,-3.6013,-3.6012,-3.601,-3.6005,-3.6019,-3.6016,-3.6013,-3.6009,-3.6004,-3.6002,-3.602,-3.5974,-3.5935,-3.5873,-3.5765,-3.5256,-3.5056,-3.4791,-3.4235,-3.376,-3.3435,-3.2969,-3.2458,-3.2131,-3.1806,-3.1439,-3.1332,-3.1352,-3.1563,-3.1722,-3.1654,-3.1334,-3.1799,-3.1891,-3.2316,-3.3009,-3.367,-3.391,-3.4407,-3.4896,-3.5182,-3.519,-3.5193,-3.5185,-3.5179,-3.5179,-3.5143,-3.5126,-3.5092,-3.5075,-3.5057,-3.502,-3.4992,-3.4936,-3.487,-3.468,-3.4446,-3.4245,-3.4036,-3.3873,-3.3766,-3.3698,-3.3671,-3.3629,-3.3615,-3.3615,-3.3577,-3.3534,-3.3538,-3.3524,-3.3477,-3.3481,-3.3452,-3.3441,-3.3411,-3.3319,-3.3214,-3.3042,-3.2834,-3.2555,-3.2266,-3.2091,-3.1894,-3.1802,-3.1635,-3.1428,-4.0757,-4.0806,-4.0881,-4.0927,-4.0988,-4.0996,-4.0996,-4.0992,-4.0935,-4.0917,-4.0897,-4.0917,-4.0911,-4.052,-3.9159,-3.8458,-3.803,-3.6715,-3.5895,-3.5899,-3.5955,-3.5999,-3.6004,-3.5989,-3.5996,-3.6003,-3.5987,-3.599,-3.6014,-3.6015,-3.6016,-3.6015,-3.6012,-3.6008,-3.6004,-3.6017,-3.6012,-3.6012,-3.6012,-3.601,-3.601,-3.6009,-3.6002,-3.5941,-3.5841,-3.5699,-3.5518,-3.5084,-3.4668,-3.4484,-3.379,-3.3362,-3.3203,-3.3025,-3.2854,-3.2841,-3.2887,-3.2976,-3.304,-3.2908,-3.291,-3.2793,-3.279,-3.3164,-3.3761,-3.414,-3.4346,-3.4878,-3.5149,-3.5218,-3.5209,-3.519,-3.5209,-3.5209,-3.5201,-3.5193,-3.5168,-3.516,-3.5134,-3.5117,-3.511,-3.5084,-3.5075,-3.4992,-3.4821,-3.4618,-3.4409,-3.4221,-3.4049,-3.3959,-3.3908,-3.3829,-3.3788,-3.3762,-3.3766,-3.3657,-3.3619,-3.3605,-3.3577,-3.3549,-3.3549,-3.3534,-3.3524,-3.3495,-3.3437,-3.3345,-3.3241,-3.3106,-3.2852,-3.2589,-3.237,-3.2214,-3.2126,-3.202,-3.1839,-4.0655,-4.0668,-4.0752,-4.0769,-4.0804,-4.0898,-4.0942,-4.0922,-4.0873,-4.0833,-4.0833,-4.0819,-4.0819,-4.0311,-3.9223,-3.8309,-3.7976,-3.6648,-3.5827,-3.5833,-3.5897,-3.5926,-3.5931,-3.5934,-3.5947,-3.5939,-3.5924,-3.597,-3.6003,-3.6008,-3.6011,-3.6013,-3.6016,-3.6013,-3.601,-3.6007,-3.6006,-3.6005,-3.6003,-3.6021,-3.6019,-3.6016,-3.601,-3.6007,-3.6007,-3.6006,-3.6002,-3.557,-3.5467,-3.5344,-3.4636,-3.4272,-3.4101,-3.391,-3.3459,-3.3365,-3.3331,-3.3526,-3.3964,-3.4253,-3.44,-3.4,-3.3742,-3.4033,-3.4706,-3.4845,-3.5059,-3.5155,-3.5243,-3.5262,-3.527,-3.5277,-3.5269,-3.5261,-3.5253,-3.5209,-3.5174,-3.5193,-3.5176,-3.5176,-3.516,-3.5153,-3.5136,-3.5119,-3.4974,-3.4869,-3.4678,-3.4476,-3.4305,-3.4209,-3.4148,-3.4049,-3.3985,-3.3947,-3.3895,-3.3802,-3.3739,-3.373,-3.3661,-3.3591,-3.3591,-3.3633,-3.3605,-3.3563,-3.3534,-3.3506,-3.339,-3.3274,-3.3135,-3.2914,-3.2737,-3.2556,-3.2454,-3.2387,-3.2266,-4.0593,-4.0593,-4.0647,-4.0661,-4.0681,-4.0781,-4.084,-4.084,-4.0823,-4.0798,-4.0798,-4.0798,-4.0591,-4.0001,-3.9004,-3.7996,-3.7735,-3.6502,-3.5791,-3.5795,-3.5859,-3.5869,-3.5876,-3.5866,-3.5864,-3.5858,-3.589,-3.594,-3.5974,-3.5949,-3.5979,-3.6007,-3.6013,-3.6015,-3.6015,-3.6013,-3.601,-3.6009,-3.6008,-3.6007,-3.6005,-3.6003,-3.6019,-3.6017,-3.6016,-3.6014,-3.6012,-3.6007,-3.6004,-3.5807,-3.5509,-3.5112,-3.4926,-3.4681,-3.4257,-3.4222,-3.4254,-3.4492,-3.4944,-3.5226,-3.5161,-3.482,-3.4648,-3.4834,-3.5254,-3.524,-3.5264,-3.5314,-3.5326,-3.5338,-3.535,-3.535,-3.5316,-3.5289,-3.5273,-3.5231,-3.5226,-3.5226,-3.5218,-3.5198,-3.519,-3.5185,-3.5187,-3.5179,-3.5127,-3.5048,-3.4955,-3.4751,-3.4572,-3.4454,-3.4374,-3.4281,-3.4197,-3.4148,-3.4074,-3.3985,-3.3908,-3.3847,-3.378,-3.3698,-3.3671,-3.3712,-3.3671,-3.3629,-3.3615,-3.3591,-3.352,-3.3419,-3.3301,-3.3226,-3.3135,-3.2961,-3.28,-3.2705,-3.2606,-4.0588,-4.0595,-4.0593,-4.0588,-4.0602,-4.0681,-4.0732,-4.079,-4.079,-4.0752,-4.0713,-4.0636,-4.0203,-3.9375,-3.8485,-3.7751,-3.7065,-3.6182,-3.5881,-3.5793,-3.5795,-3.5799,-3.5792,-3.5784,-3.5802,-3.582,-3.5856,-3.5888,-3.5908,-3.5919,-3.5942,-3.5979,-3.5987,-3.6012,-3.6015,-3.6015,-3.6013,-3.6013,-3.6011,-3.6011,-3.601,-3.6009,-3.6007,-3.6005,-3.6004,-3.6021,-3.6017,-3.6013,-3.6012,-3.597,-3.5926,-3.5942,-3.5956,-3.599,-3.5942,-3.5848,-3.5727,-3.5671,-3.5632,-3.5767,-3.5741,-3.5456,-3.5449,-3.5518,-3.5483,-3.547,-3.5425,-3.5424,-3.5411,-3.5422,-3.542,-3.5372,-3.533,-3.5323,-3.5308,-3.5285,-3.53,-3.5285,-3.525,-3.5242,-3.5226,-3.5209,-3.5193,-3.5185,-3.5196,-3.5153,-3.5075,-3.5002,-3.483,-3.4678,-3.4594,-3.4517,-3.4439,-3.434,-3.4257,-3.4161,-3.4074,-3.3998,-3.3934,-3.3855,-3.3829,-3.3775,-3.3748,-3.3739,-3.3712,-3.3689,-3.3605,-3.3549,-3.3506,-3.3433,-3.3364,-3.3226,-3.3024,-3.2995,-3.2916,-4.0531,-4.0531,-4.0527,-4.0534,-4.0523,-4.0579,-4.0633,-4.0661,-4.0661,-4.0371,-3.9818,-3.9799,-3.9335,-3.8542,-3.7672,-3.7193,-3.6698,-3.6202,-3.5844,-3.5718,-3.5728,-3.5742,-3.5732,-3.5717,-3.5754,-3.5786,-3.5826,-3.5846,-3.5862,-3.5861,-3.5895,-3.5939,-3.5973,-3.6001,-3.6008,-3.6013,-3.6015,-3.6015,-3.6014,-3.6014,-3.6013,-3.6012,-3.6011,-3.6009,-3.6009,-3.6006,-3.6003,-3.6021,-3.6018,-3.6012,-3.601,-3.6009,-3.6007,-3.602,-3.5972,-3.5962,-3.5934,-3.5907,-3.5875,-3.5869,-3.5852,-3.584,-3.5749,-3.5684,-3.5625,-3.559,-3.5556,-3.5532,-3.5527,-3.5534,-3.5502,-3.5476,-3.5442,-3.5422,-3.5407,-3.5379,-3.5369,-3.5335,-3.532,-3.5289,-3.5273,-3.5242,-3.5207,-3.5198,-3.5209,-3.5185,-3.517,-3.5138,-3.5067,-3.4898,-3.4781,-3.4718,-3.4626,-3.4531,-3.4461,-3.4351,-3.4245,-3.4148,-3.4099,-3.4023,-3.3947,-3.3908,-3.3868,-3.3829,-3.3793,-3.3739,-3.3671,-3.3647,-3.3605,-3.3563,-3.3477,-3.3375,-3.3271,-3.3229,-3.3137,-3.9515,-3.9496,-3.9508,-3.9515,-3.9515,-3.953,-3.9579,-3.9627,-3.9963,-3.9669,-3.8935,-3.8878,-3.844,-3.7668,-3.7114,-3.6702,-3.6308,-3.5938,-3.566,-3.566,-3.5662,-3.5662,-3.5667,-3.5658,-3.5688,-3.5728,-3.5747,-3.5756,-3.5779,-3.5817,-3.5858,-3.5877,-3.5925,-3.5942,-3.5973,-3.5999,-3.6008,-3.6013,-3.6015,-3.6016,-3.6015,-3.6014,-3.6014,-3.6012,-3.6012,-3.6011,-3.6008,-3.6007,-3.6004,-3.6021,-3.6021,-3.6019,-3.6017,-3.601,-3.6004,-3.5997,-3.5992,-3.5988,-3.5942,-3.5936,-3.5948,-3.5936,-3.588,-3.5827,-3.5757,-3.5721,-3.5679,-3.5678,-3.5643,-3.564,-3.5612,-3.5577,-3.5566,-3.5547,-3.5502,-3.5468,-3.5429,-3.5407,-3.5379,-3.535,-3.532,-3.5289,-3.5266,-3.5239,-3.5239,-3.5231,-3.5234,-3.522,-3.5162,-3.5066,-3.4955,-3.4879,-3.4801,-3.473,-3.4647,-3.455,-3.4431,-3.434,-3.4269,-3.4185,-3.4099,-3.4029,-3.3972,-3.3921,-3.3873,-3.382,-3.3753,-3.3712,-3.3657,-3.3615,-3.3605,-3.3506,-3.3419,-3.3349,-3.3259,-3.8019,-3.8038,-3.8007,-3.8142,-3.8027,-3.8104,-3.8053,-3.7976,-3.8772,-3.8729,-3.8073,-3.7996,-3.7514,-3.6807,-3.6517,-3.6215,-3.5938,-3.568,-3.5622,-3.5617,-3.5622,-3.5628,-3.5633,-3.5608,-3.5637,-3.5648,-3.5665,-3.5688,-3.5699,-3.5767,-3.5806,-3.5801,-3.5847,-3.5892,-3.5923,-3.5953,-3.5965,-3.5977,-3.5987,-3.5992,-3.6014,-3.6015,-3.6016,-3.6015,-3.6014,-3.6014,-3.6012,-3.6011,-3.6011,-3.6011,-3.601,-3.6008,-3.6004,-3.6019,-3.6016,-3.6012,-3.6007,-3.6002,-3.5999,-3.5994,-3.599,-3.5981,-3.5955,-3.5904,-3.5869,-3.5822,-3.5795,-3.575,-3.5732,-3.5708,-3.5679,-3.5667,-3.5654,-3.5626,-3.5602,-3.5553,-3.5509,-3.5483,-3.545,-3.5435,-3.5398,-3.5369,-3.53,-3.5293,-3.527,-3.5285,-3.5278,-3.5293,-3.5261,-3.5168,-3.5091,-3.502,-3.4955,-3.4898,-3.4801,-3.471,-3.4615,-3.452,-3.4461,-3.4381,-3.43,-3.4185,-3.4092,-3.4011,-3.3947,-3.3881,-3.3847,-3.3775,-3.3753,-3.3698,-3.3657,-3.3615,-3.3545,-3.3477,-3.3408,-3.7932,-3.7932,-3.7981,-3.8007,-3.7988,-3.8007,-3.7584,-3.7046,-3.7233,-3.7266,-3.7055,-3.6958,-3.6632,-3.6016,-3.5926,-3.5721,-3.5662,-3.5605,-3.5617,-3.5611,-3.5611,-3.5605,-3.5611,-3.5591,-3.5604,-3.561,-3.5633,-3.5643,-3.5653,-3.5722,-3.5791,-3.5795,-3.582,-3.5849,-3.588,-3.5933,-3.5909,-3.5921,-3.5916,-3.5957,-3.5988,-3.6011,-3.6014,-3.6015,-3.6015,-3.6016,-3.6015,-3.6014,-3.6012,-3.6011,-3.6011,-3.601,-3.6009,-3.6008,-3.6005,-3.6002,-3.6019,-3.6016,-3.601,-3.6006,-3.6004,-3.6017,-3.5992,-3.5988,-3.5951,-3.5914,-3.5862,-3.5826,-3.5803,-3.5779,-3.5773,-3.5747,-3.5737,-3.5698,-3.5672,-3.5646,-3.5599,-3.557,-3.5534,-3.5509,-3.5475,-3.5434,-3.5367,-3.5338,-3.5315,-3.5308,-3.5308,-3.5312,-3.5312,-3.5246,-3.5201,-3.5134,-3.5092,-3.503,-3.4955,-3.4879,-3.4772,-3.472,-3.4676,-3.4572,-3.4484,-3.4393,-3.4281,-3.4136,-3.4049,-3.3998,-3.3947,-3.3881,-3.3829,-3.3788,-3.3753,-3.3712,-3.3671,-3.3601,-3.3534,-3.6742,-3.675,-3.6788,-3.6829,-3.6844,-3.6844,-3.6563,-3.6231,-3.6154,-3.6154,-3.6173,-3.6135,-3.5898,-3.5521,-3.5495,-3.5509,-3.5547,-3.5567,-3.556,-3.5567,-3.5554,-3.556,-3.5567,-3.5573,-3.556,-3.5567,-3.5573,-3.5571,-3.559,-3.5658,-3.5708,-3.5756,-3.5779,-3.5811,-3.5861,-3.5856,-3.5853,-3.5862,-3.5858,-3.589,-3.5946,-3.5978,-3.6007,-3.6011,-3.6013,-3.6014,-3.6015,-3.6016,-3.6015,-3.6014,-3.6014,-3.6013,-3.6012,-3.6011,-3.6009,-3.6008,-3.6006,-3.6005,-3.6021,-3.6017,-3.6014,-3.6009,-3.6004,-3.6001,-3.5999,-3.5953,-3.5933,-3.588,-3.5852,-3.5837,-3.5833,-3.5811,-3.5792,-3.5756,-3.5741,-3.5728,-3.5703,-3.5658,-3.5626,-3.5612,-3.5565,-3.5528,-3.5483,-3.5483,-3.5456,-3.5402,-3.5388,-3.5372,-3.5345,-3.5338,-3.5297,-3.5269,-3.5212,-3.5162,-3.51,-3.5028,-3.4945,-3.4898,-3.4868,-3.4769,-3.4668,-3.4583,-3.4484,-3.4328,-3.4221,-3.4148,-3.4086,-3.4023,-3.3959,-3.3926,-3.386,-3.3807,-3.3766,-3.3726,-3.3657,-3.5318,-3.5277,-3.5324,-3.5361,-3.5391,-3.5417,-3.547,-3.5498,-3.5512,-3.5532,-3.5551,-3.5551,-3.55,-3.55,-3.55,-3.55,-3.5507,-3.552,-3.5514,-3.5514,-3.5514,-3.552,-3.552,-3.5507,-3.5514,-3.5508,-3.5515,-3.554,-3.557,-3.5615,-3.5667,-3.5688,-3.5742,-3.5794,-3.5803,-3.5793,-3.5775,-3.5788,-3.5807,-3.5822,-3.588,-3.5951,-3.597,-3.6,-3.6005,-3.5988,-3.599,-3.6012,-3.6013,-3.6015,-3.6016,-3.6015,-3.6015,-3.6014,-3.6012,-3.6011,-3.6011,-3.6009,-3.6006,-3.6005,-3.6022,-3.6017,-3.6014,-3.6013,-3.6012,-3.6004,-3.597,-3.5942,-3.5916,-3.5904,-3.5889,-3.5852,-3.584,-3.5824,-3.5815,-3.5803,-3.5778,-3.5756,-3.5732,-3.5703,-3.5667,-3.561,-3.5606,-3.5608,-3.5572,-3.5541,-3.5509,-3.5468,-3.5415,-3.5388,-3.536,-3.5369,-3.535,-3.5293,-3.5226,-3.5168,-3.5089,-3.5063,-3.502,-3.4936,-3.4869,-3.481,-3.4699,-3.4528,-3.4427,-3.4363,-3.4257,-3.4173,-3.4111,-3.4067,-3.3972,-3.3908,-3.3868,-3.3829,-3.3775,-3.5081,-3.5138,-3.525,-3.53,-3.5316,-3.5327,-3.5342,-3.5357,-3.5386,-3.5412,-3.5439,-3.5467,-3.55,-3.5481,-3.55,-3.55,-3.55,-3.55,-3.55,-3.55,-3.55,-3.55,-3.55,-3.55,-3.55,-3.5494,-3.5495,-3.549,-3.5527,-3.5589,-3.5623,-3.5632,-3.5683,-3.5708,-3.5728,-3.5728,-3.5713,-3.5723,-3.5728,-3.5742,-3.5767,-3.5824,-3.5907,-3.5925,-3.5917,-3.5947,-3.5995,-3.6003,-3.6006,-3.6009,-3.6013,-3.6015,-3.6015,-3.6016,-3.6015,-3.6014,-3.6014,-3.6012,-3.6011,-3.601,-3.6007,-3.6006,-3.6004,-3.6022,-3.6019,-3.6014,-3.5988,-3.5985,-3.598,-3.5966,-3.5953,-3.5907,-3.5877,-3.5886,-3.5888,-3.5846,-3.5806,-3.5811,-3.5792,-3.5758,-3.5722,-3.5699,-3.5659,-3.5667,-3.5689,-3.568,-3.5764,-3.5766,-3.5958,-3.5765,-3.5597,-3.5666,-3.5741,-3.5383,-3.532,-3.5273,-3.5226,-3.5209,-3.5176,-3.51,-3.5047,-3.5048,-3.4927,-3.4751,-3.4658,-3.4615,-3.4487,-3.4374,-3.4269,-3.4209,-3.4111,-3.4049,-3.3998,-3.3947,-3.3895]},{"header":{"parameterUnit":"m.s-1","parameterCategory":1,"la1":31.0,"la2":29.5877,"lo1":-88.7671,"lo2":-86.6584,"dy":0.0162,"dx":0.0185,"nx":115,"ny":88,"refTime":"2024-06-19T00:00:00:Z","depth":0,"parameterNumber":3,"parameterNumberName":"V-component_of_WINDS"},"data":[0.0,0.0,0.0,0.0,0.0,0.0,0.0,0.0,0.0,0.0,0.0,0.0,0.0,0.0,0.0,0.0,0.0,0.0,0.0,0.0,0.0,0.0,0.0,0.0,0.0,0.0,0.0,0.0,0.0,0.0,0.0,0.0,0.0,0.0,0.0,0.0,0.0,0.0,0.0,0.0,0.0,0.0,0.0,0.0,0.0,0.0,0.0,0.0,0.0,0.0,0.0,0.0,0.0,0.0,0.0,0.0,0.0,0.0,0.0,0.0,0.0,0.0,0.0,0.0,0.0,0.0,0.0,0.0,0.0,0.0,0.0,0.0,0.0,0.0,0.0,0.0,0.0,0.0,0.0,0.0,0.0,0.0,0.0,0.0,0.0,0.0,0.0,0.0,0.0,0.0,0.0,0.0,0.0,0.0,0.0,0.0,0.0,0.0,0.0,0.0,0.0,0.0,0.0,0.0,0.0,0.0,0.0,0.0,0.0,0.0,0.0,0.0,0.0,0.0,0.0,0.0,0.0,0.0,0.0,0.0,0.0,0.0,0.0,0.0,0.0,0.0,0.0,0.0,0.0,0.0,0.0,0.0,0.0,0.0,0.0,0.0,0.0,0.0,0.0,0.0,0.0,0.0,0.0,0.0,0.0,0.0,0.0,0.0,0.0,0.0,0.0,0.0,0.0,0.0,0.0,0.0,0.0,0.0,0.0,0.0,0.0,0.0,0.0,0.0,0.0,0.0,0.0,0.0,0.0,0.0,0.0,0.0,0.0,0.0,0.0,0.0,0.0,0.0,0.0,0.0,0.0,0.0,0.0,0.0,0.0,0.0,0.0,0.0,0.0,0.0,0.0,0.0,0.0,0.0,0.0,0.0,0.0,0.0,0.0,0.0,0.0,0.0,0.0,0.0,0.0,0.0,0.0,0.0,0.0,0.0,0.0,0.0,0.0,0.0,0.0,0.0,0.0,0.0,0.0,0.0,0.0,0.0,0.0,0.0,0.0,0.0,0.0,0.0,0.0,0.0,0.0,0.0,0.0,0.0,0.0,0.0,0.0,0.0,0.0,0.0,0.0,0.0,0.0,0.0,0.0,0.0,0.0,0.0,0.0,0.0,0.0,0.0,0.0,0.0,0.0,0.0,0.0,0.0,0.0,0.0,0.0,0.0,0.0,0.0,0.0,0.0,0.0,0.0,0.0,0.0,0.0,0.0,0.0,0.0,0.0,0.0,0.0,0.0,0.0,0.0,0.0,0.0,0.0,0.0,0.0,0.0,0.0,0.0,0.0,0.0,0.0,0.0,0.0,0.0,0.0,0.0,0.0,0.0,0.0,0.0,0.0,0.0,0.0,0.0,0.0,0.0,0.0,0.0,0.0,0.0,0.0,0.0,0.0,0.0,0.0,0.0,0.0,0.0,0.0,0.0,0.0,0.0,0.0,0.0,0.0,0.0,0.0,0.0,0.0,0.0,0.0,0.0,0.0,0.0,0.0,0.0,0.0,0.0,0.0,0.0,0.0,0.0,0.0,0.0,0.0,0.0,0.0,0.0,0.0,0.0,0.0,0.0,0.0,0.0,0.0,0.0,0.0,0.0,0.0,0.0,0.0,0.0,0.0,0.0,0.0,0.0,0.0,0.0,0.0,0.0,0.0,0.0,0.0,0.0,0.0,0.0,0.0,0.0,0.0,0.0,0.0,0.0,0.0,0.0,0.0,0.0,0.0,0.0,0.0,0.0,0.0,0.0,0.0,0.0,0.0,0.0,0.0,0.0,0.0,0.0,0.0,0.0,0.0,0.0,0.0,0.0,0.0,0.0,0.0,0.0,0.0,0.0,0.0,0.0,0.0,0.0,0.0,0.0,0.0,0.0,0.0,0.0,0.0,0.0,0.0,0.0,0.0,0.0,0.0,0.0,0.0,0.0,0.0,0.0,0.0,0.0,0.0,0.0,0.0,0.0,0.0,0.0,0.0,0.0,0.0,0.0,0.0,0.0,0.0,0.0,0.0,0.0,0.0,0.0,0.0,0.0,0.0,0.0,0.0,0.0,0.0,0.0,0.0,0.0,0.0,0.0,0.0,0.0,0.0,0.0,0.0,0.0,0.0,0.0,0.0,0.0,0.0,0.0,0.0,0.0,0.0,0.0,0.0,0.0,0.0,0.0,0.0,0.0,0.0,0.0,0.0,0.0,0.0,0.0,0.0,0.0,0.0,0.0,0.0,0.0,0.0,0.0,0.0,0.0,0.0,0.0,0.0,0.0,0.0,0.0,0.0,0.0,0.0,0.0,0.0,0.0,0.0,0.0,0.0,0.0,0.0,0.0,0.0,0.0,0.0,0.0,0.0,0.0,0.0,0.0,0.0,0.0,0.0,0.0,0.0,0.0,0.0,0.0,0.0,0.0,0.0,0.0,0.0,0.0,0.0,0.0,0.0,0.0,0.0,0.0,0.0,0.0,0.0,0.0,0.0,0.0,0.0,0.0,0.0,0.0,0.0,0.0,0.0,0.0,0.0,0.0,0.0,0.0,0.0,0.0,0.0,0.0,0.0,0.0,0.0,0.0,0.0,0.0,0.0,0.0,0.0,0.0,0.0,0.0,0.0,0.0,0.0,0.0,0.0,0.0,0.0,0.0,0.0,0.0,0.0,0.0,0.0,0.0,0.0,0.0,0.0,0.0,0.0,0.0,0.0,0.0,0.0,0.0,0.0,0.0,0.0,0.0,0.0,0.0,0.0,0.0,0.0,0.0,0.0,0.0,0.0,0.0,0.0,0.0,0.0,0.0,0.0,0.0,0.0,0.0,0.0,0.0,0.0,0.0,0.0,0.0,0.0,0.0,0.0,0.0,0.0,0.0,0.0,0.0,0.0,0.0,0.0,0.0,0.0,0.0,0.0,0.0,0.0,0.0,0.0,0.0,0.0,0.0,0.0,0.0,0.0,0.0,0.0,0.0,0.0,0.0,0.0,0.0,0.0,0.0,0.0,0.0,0.0,0.0,0.0,0.0,0.0,0.0,0.0,0.0,0.0,0.0,0.0,0.0,0.0,0.0,0.0,0.0,0.0,0.0,0.0,0.0,0.0,0.0,0.0,0.0,0.0,0.0,0.0,0.0,0.0,0.0,0.0,0.0,0.0,0.0,0.0,0.0,0.0,0.0,0.0,0.0,0.0,0.0,0.0,0.0,0.0,0.0,0.0,0.0,0.0,0.0,0.0,0.0,0.0,0.0,0.0,0.0,0.0,0.0,0.0,0.0,0.0,0.0,0.0,0.0,0.0,0.0,0.0,0.0,0.0,0.0,0.0,0.0,0.0,0.0,0.0,0.0,0.0,0.0,0.0,0.0,0.0,0.0,0.0,0.0,0.0,0.0,0.0,0.0,0.0,0.0,0.0,0.0,0.0,0.0,0.0,0.0,0.0,0.0,0.0,0.0,0.0,0.0,0.0,0.0,0.0,0.0,0.0,0.0,0.0,0.0,0.0,0.0,0.0,0.0,0.0,0.0,0.0,0.0,0.0,0.0,0.0,0.0,0.0,0.0,0.0,0.0,0.0,0.0,0.0,0.0,0.0,0.0,0.0,0.0,0.0,0.0,0.0,0.0,0.0,0.0,0.0,0.0,0.0,0.0,0.0,0.0,0.0,0.0,0.0,0.0,0.0,0.0,0.0,0.0,0.0,0.0,0.0,0.0,0.0,0.0,0.0,0.0,0.0,0.0,0.0,0.0,0.0,0.0,0.0,0.0,0.0,0.0,0.0,0.0,0.0,0.0,0.0,0.0,0.0,0.0,0.0,0.0,0.0,0.0,0.0,0.0,0.0,0.0,0.0,0.0,0.0,0.0,0.0,0.0,0.0,0.0,0.0,0.0,0.0,0.0,0.0,0.0,0.0,0.0,0.0,0.0,0.0,0.0,0.0,0.0,0.0,0.0,0.0,0.0,0.0,0.0,0.0,0.0,0.0,0.0,0.0,0.0,0.0,0.0,0.0,0.0,0.0,0.0,0.0,0.0,0.0,0.0,0.0,0.0,0.0,0.0,0.0,0.0,0.0,0.0,0.0,0.0,0.0,0.0,0.0,0.0,0.0,0.0,0.0,0.0,0.0,0.0,0.0,0.0,0.0,0.0,0.0,0.0,0.0,0.0,0.0,0.0,0.0,0.0,0.0,0.0,0.0,0.0,0.0,0.0,0.0,0.0,0.0,0.0,0.0,0.0,0.0,0.0,0.0,0.0,0.0,0.0,0.0,0.0,0.0,0.0,0.0,0.0,0.0,0.0,0.0,0.0,0.0,0.0,-0.6018,0.0,0.0,0.0,0.0,0.0,0.0,0.0,0.0,0.0,0.0,0.0,0.0,0.0,0.0,0.0,0.0,0.0,0.0,0.0,0.0,0.0,0.0,0.0,0.0,0.0,0.0,0.0,0.0,0.0,0.0,0.0,0.0,0.0,0.0,0.0,0.0,0.0,0.0,0.0,0.0,0.0,0.0,0.0,0.0,0.0,0.0,0.0,0.0,0.0,0.0,0.0,0.0,0.0,0.0,0.0,0.0,0.0,0.0,0.0,0.0,0.0,0.0,0.0,0.0,0.0,0.0,0.0,0.0,0.0,0.0,0.0,0.0,0.0,0.0,0.0,0.0,0.0,0.0,0.0,0.0,0.0,0.0,0.0,0.0,0.0,0.0,0.0,0.0,0.0,0.0,0.0,0.0,0.0,0.0,0.0,0.0,0.0,0.0,0.0,0.0,0.0,0.0,0.0,0.0,0.0,0.0,0.0,0.0,0.0,0.0,-0.628,-0.6529,-0.651,-0.6481,-0.6432,0.0,0.0,0.0,0.0,0.0,0.0,0.0,0.0,0.0,0.0,0.0,0.0,0.0,0.0,0.0,0.0,0.0,0.0,0.0,0.0,0.0,0.0,0.0,0.0,0.0,0.0,0.0,0.0,0.0,0.0,0.0,0.0,0.0,0.0,0.0,0.0,0.0,0.0,0.0,0.0,0.0,0.0,0.0,0.0,0.0,0.0,0.0,0.0,0.0,0.0,0.0,0.0,0.0,0.0,0.0,0.0,0.0,0.0,0.0,0.0,0.0,0.0,0.0,0.0,0.0,0.0,0.0,0.0,0.0,0.0,0.0,0.0,0.0,0.0,0.0,0.0,0.0,0.0,0.0,0.0,0.0,0.0,0.0,0.0,0.0,0.0,0.0,0.0,0.0,0.0,0.0,0.0,0.0,0.0,0.0,0.0,0.0,0.0,0.0,0.0,0.0,0.0,0.0,0.0,0.0,0.0,0.0,0.0,0.0,0.0,0.0,0.0,-0.7036,-0.6995,-0.6798,0.0,0.0,0.0,0.0,0.0,0.0,0.0,0.0,0.0,0.0,0.0,0.0,0.0,0.0,0.0,0.0,0.0,0.0,0.0,0.0,0.0,0.0,0.0,0.0,0.0,0.0,0.0,0.0,0.0,0.0,0.0,0.0,0.0,0.0,0.0,0.0,0.0,0.0,0.0,0.0,0.0,0.0,0.0,0.0,0.0,0.0,0.0,0.0,0.0,0.0,0.0,0.0,0.0,0.0,0.0,0.0,0.0,0.0,0.0,0.0,0.0,0.0,0.0,0.0,0.0,0.0,0.0,0.0,0.0,0.0,0.0,0.0,0.0,0.0,0.0,0.0,0.0,0.0,0.0,0.0,0.0,0.0,0.0,0.0,0.0,0.0,0.0,0.0,0.0,0.0,0.0,0.0,0.0,0.0,0.0,0.0,0.0,0.0,0.0,0.0,0.0,0.0,0.0,0.0,0.0,0.0,0.0,0.0,0.0,0.0,-0.7037,-0.7074,-0.7439,0.0,-0.6833,0.0,0.0,0.0,0.0,0.0,0.0,0.0,0.0,0.0,0.0,0.0,0.0,0.0,0.0,0.0,0.0,0.0,0.0,0.0,0.0,0.0,0.0,0.0,0.0,0.0,0.0,0.0,0.0,0.0,0.0,0.0,0.0,0.0,0.0,0.0,0.0,0.0,0.0,0.0,0.0,0.0,0.0,0.0,0.0,0.0,0.0,0.0,0.0,0.0,0.0,0.0,0.0,0.0,0.0,0.0,0.0,0.0,0.0,0.0,0.0,0.0,0.0,0.0,0.0,0.0,0.0,0.0,0.0,0.0,0.0,0.0,0.0,0.0,0.0,0.0,0.0,0.0,0.0,0.0,0.0,0.0,0.0,0.0,0.0,0.0,0.0,0.0,0.0,0.0,0.0,0.0,0.0,0.0,0.0,0.0,0.0,0.0,0.0,0.0,0.0,0.0,0.0,0.0,0.0,0.0,0.0,0.0,0.0,0.0,0.0,0.0,-0.7978,-0.8075,-0.7877,0.0,0.0,0.0,0.0,0.0,0.0,0.0,0.0,0.0,0.0,0.0,0.0,0.0,0.0,0.0,0.0,0.0,0.0,0.0,0.0,0.0,0.0,0.0,0.0,0.0,0.0,0.0,0.0,0.0,0.0,0.0,0.0,0.0,0.0,0.0,0.0,0.0,0.0,0.0,0.0,0.0,0.0,0.0,0.0,0.0,0.0,0.0,0.0,0.0,0.0,0.0,0.0,0.0,0.0,0.0,0.0,0.0,0.0,0.0,0.0,0.0,0.0,0.0,0.0,0.0,0.0,0.0,0.0,0.0,0.0,0.0,0.0,0.0,0.0,0.0,0.0,0.0,0.0,0.0,0.0,0.0,0.0,0.0,0.0,0.0,0.0,0.0,0.0,0.0,0.0,0.0,0.0,0.0,0.0,0.0,0.0,0.0,0.0,0.0,0.0,0.0,0.0,0.0,0.0,0.0,0.0,0.0,0.0,0.0,0.0,-0.7383,0.0,-0.8751,-0.8734,-0.8367,-0.7724,0.0,0.0,0.0,0.0,0.0,0.0,0.0,0.0,0.0,0.0,0.0,0.0,0.0,0.0,0.0,0.0,0.0,0.0,0.0,0.0,0.0,0.0,0.0,0.0,0.0,0.0,0.0,0.0,0.0,0.0,0.0,0.0,0.0,0.0,0.0,0.0,0.0,0.0,0.0,0.0,0.0,0.0,0.0,0.0,0.0,0.0,0.0,0.0,0.0,0.0,0.0,0.0,0.0,0.0,0.0,0.0,0.0,0.0,0.0,0.0,0.0,0.0,0.0,0.0,0.0,0.0,0.0,0.0,0.0,0.0,0.0,0.0,0.0,0.0,0.0,0.0,0.0,0.0,0.0,0.0,0.0,0.0,0.0,0.0,0.0,0.0,0.0,0.0,0.0,0.0,0.0,0.0,0.0,0.0,0.0,0.0,0.0,0.0,0.0,0.0,0.0,0.0,0.0,0.0,0.0,0.0,0.0,0.0,0.0,-0.8093,-0.8862,-0.9336,-0.9347,-0.8845,0.0,0.0,0.0,0.0,0.0,0.0,0.0,0.0,0.0,0.0,0.0,0.0,0.0,0.0,0.0,0.0,0.0,0.0,0.0,0.0,0.0,0.0,0.0,0.0,0.0,0.0,0.0,0.0,0.0,0.0,0.0,0.0,0.0,0.0,0.0,0.0,0.0,0.0,0.0,0.0,0.0,0.0,0.0,0.0,0.0,0.0,0.0,0.0,0.0,0.0,0.0,0.0,0.0,0.0,0.0,0.0,0.0,0.0,0.0,0.0,0.0,0.0,0.0,0.0,0.0,0.0,0.0,0.0,0.0,0.0,0.0,0.0,0.0,0.0,0.0,0.0,0.0,0.0,0.0,0.0,0.0,0.0,0.0,0.0,0.0,0.0,0.0,0.0,0.0,0.0,0.0,0.0,0.0,0.0,0.0,0.0,0.0,0.0,0.0,0.0,0.0,0.0,0.0,0.0,0.0,0.0,0.0,0.0,0.0,-0.7636,-0.8658,-0.9294,0.0,-0.9433,-0.8882,0.0,0.0,0.0,0.0,0.0,0.0,0.0,0.0,0.0,0.0,0.0,0.0,0.0,0.0,0.0,0.0,0.0,0.0,0.0,0.0,0.0,0.0,0.0,0.0,0.0,0.0,0.0,0.0,0.0,0.0,0.0,0.0,0.0,0.0,0.0,0.0,0.0,0.0,0.0,0.0,0.0,0.0,0.0,0.0,0.0,0.0,0.0,0.0,0.0,0.0,0.0,0.0,0.0,0.0,0.0,0.0,0.0,0.0,0.0,0.0,0.0,0.0,0.0,0.0,0.0,0.0,0.0,0.0,0.0,0.0,0.0,0.0,0.0,0.0,0.0,0.0,0.0,0.0,0.0,0.0,0.0,0.0,0.0,0.0,0.0,0.0,0.0,0.0,0.0,0.0,0.0,0.0,0.0,0.0,0.0,0.0,0.0,0.0,0.0,0.0,0.0,0.0,0.0,0.0,0.0,0.0,0.0,0.0,0.0,-0.8658,0.0,-0.9737,0.0,-0.9711,-0.9099,0.0,0.0,0.0,0.0,0.0,0.0,0.0,0.0,0.0,0.0,0.0,0.0,0.0,0.0,0.0,0.0,0.0,0.0,0.0,0.0,0.0,0.0,0.0,0.0,0.0,0.0,0.0,0.0,0.0,0.0,0.0,0.0,0.0,0.0,0.0,0.0,0.0,0.0,0.0,0.0,0.0,0.0,0.0,0.0,0.0,0.0,0.0,0.0,0.0,0.0,0.0,0.0,0.0,0.0,0.0,0.0,0.0,0.0,0.0,0.0,0.0,0.0,0.0,0.0,0.0,0.0,0.0,0.0,0.0,0.0,0.0,0.0,0.0,0.0,0.0,0.0,0.0,0.0,0.0,0.0,0.0,0.0,0.0,0.0,0.0,0.0,0.0,0.0,0.0,0.0,0.0,0.0,0.0,0.0,0.0,0.0,0.0,0.0,0.0,0.0,0.0,0.0,0.0,0.0,0.0,0.0,0.0,0.0,0.0,-1.0209,-1.0267,-1.0317,-1.0291,-1.0279,-0.9521,0.0,0.0,0.0,0.0,0.0,0.0,0.0,0.0,0.0,0.0,0.0,0.0,0.0,0.0,0.0,0.0,0.0,0.0,0.0,0.0,0.0,0.0,0.0,0.0,0.0,0.0,0.0,0.0,0.0,0.0,0.0,0.0,0.0,0.0,0.0,0.0,0.0,0.0,0.0,0.0,0.0,0.0,0.0,0.0,0.0,0.0,0.0,0.0,0.0,0.0,0.0,0.0,0.0,0.0,0.0,0.0,0.0,0.0,0.0,0.0,0.0,0.0,0.0,0.0,0.0,0.0,0.0,0.0,0.0,0.0,0.0,0.0,0.0,0.0,0.0,0.0,0.0,0.0,0.0,0.0,0.0,0.0,0.0,0.0,0.0,0.0,0.0,0.0,0.0,0.0,0.0,0.0,0.0,0.0,0.0,0.0,0.0,0.0,0.0,0.0,0.0,0.0,0.0,0.0,0.0,0.0,0.0,0.0,0.0,-1.0267,-1.0666,-1.0846,-1.0831,-1.0497,-0.9702,0.0,0.0,0.0,0.0,0.0,0.0,0.0,0.0,0.0,0.0,0.0,0.0,0.0,0.0,0.0,0.0,0.0,0.0,0.0,0.0,0.0,0.0,0.0,0.0,0.0,0.0,0.0,0.0,0.0,0.0,0.0,0.0,0.0,0.0,0.0,0.0,0.0,0.0,0.0,0.0,0.0,0.0,0.0,0.0,0.0,0.0,0.0,0.0,0.0,0.0,0.0,0.0,0.0,0.0,0.0,0.0,0.0,0.0,0.0,0.0,0.0,0.0,0.0,0.0,0.0,0.0,0.0,0.0,0.0,0.0,0.0,0.0,0.0,0.0,0.0,0.0,0.0,0.0,0.0,0.0,0.0,0.0,0.0,0.0,0.0,0.0,0.0,0.0,0.0,0.0,0.0,0.0,0.0,0.0,0.0,0.0,0.0,0.0,0.0,0.0,0.0,0.0,0.0,0.0,0.0,0.0,0.0,0.0,0.0,-1.1171,-1.1331,-1.15,-1.1676,-1.0994,-1.0101,-0.9055,0.0,0.0,0.0,0.0,0.0,0.0,0.0,0.0,0.0,0.0,0.0,0.0,0.0,0.0,0.0,0.0,0.0,0.0,0.0,0.0,0.0,0.0,0.0,0.0,0.0,0.0,0.0,0.0,0.0,0.0,0.0,0.0,0.0,0.0,0.0,0.0,0.0,0.0,0.0,0.0,0.0,0.0,0.0,0.0,0.0,0.0,0.0,0.0,0.0,0.0,0.0,0.0,0.0,0.0,0.0,0.0,0.0,0.0,0.0,0.0,0.0,0.0,0.0,0.0,0.0,0.0,0.0,0.0,0.0,0.0,0.0,0.0,0.0,0.0,0.0,0.0,0.0,0.0,0.0,0.0,0.0,0.0,0.0,0.0,0.0,0.0,0.0,0.0,0.0,0.0,0.0,0.0,0.0,0.0,0.0,0.0,0.0,0.0,0.0,0.0,0.0,0.0,0.0,0.0,0.0,0.0,0.0,0.0,-1.2782,-1.2311,-1.2275,-1.2721,-1.174,-1.0666,0.0,0.0,0.0,0.0,0.0,0.0,0.0,0.0,0.0,0.0,0.0,0.0,0.0,0.0,0.0,0.0,0.0,0.0,0.0,0.0,0.0,0.0,0.0,0.0,0.0,0.0,0.0,0.0,0.0,0.0,0.0,0.0,0.0,0.0,0.0,0.0,0.0,0.0,0.0,0.0,0.0,0.0,0.0,0.0,0.0,0.0,0.0,0.0,0.0,0.0,0.0,0.0,0.0,0.0,0.0,0.0,0.0,0.0,0.0,0.0,0.0,0.0,0.0,0.0,0.0,0.0,0.0,0.0,0.0,0.0,0.0,0.0,0.0,0.0,0.0,0.0,0.0,0.0,0.0,0.0,0.0,0.0,0.0,0.0,0.0,0.0,0.0,0.0,0.0,0.0,0.0,0.0,0.0,0.0,0.0,0.0,0.0,0.0,0.0,0.0,0.0,0.0,0.0,0.0,0.0,0.0,0.0,0.0,0.0,-1.3807,-1.3746,-1.3541,-1.3288,-1.2619,-1.1596,0.0,0.0,0.0,0.0,0.0,0.0,0.0,0.0,0.0,0.0,0.0,0.0,0.0,0.0,0.0,0.0,0.0,0.0,0.0,0.0,0.0,0.0,0.0,0.0,0.0,0.0,0.0,0.0,0.0,0.0,0.0,0.0,0.0,0.0,0.0,0.0,0.0,0.0,0.0,0.0,0.0,0.0,0.0,0.0,0.0,0.0,0.0,0.0,0.0,0.0,0.0,0.0,0.0,0.0,0.0,0.0,0.0,0.0,0.0,0.0,0.0,0.0,0.0,0.0,0.0,0.0,0.0,0.0,0.0,0.0,0.0,0.0,0.0,0.0,0.0,0.0,0.0,0.0,0.0,0.0,0.0,0.0,0.0,0.0,0.0,0.0,0.0,0.0,0.0,0.0,0.0,0.0,0.0,0.0,0.0,0.0,0.0,0.0,0.0,0.0,0.0,0.0,0.0,0.0,0.0,0.0,0.0,0.0,-1.3143,-1.4285,-1.4694,-1.4629,-1.4113,-1.3124,-1.2094,0.0,0.0,0.0,0.0,0.0,0.0,0.0,0.0,0.0,0.0,0.0,0.0,0.0,0.0,0.0,0.0,0.0,0.0,0.0,0.0,0.0,0.0,0.0,0.0,0.0,0.0,0.0,0.0,0.0,0.0,0.0,0.0,0.0,0.0,0.0,0.0,0.0,0.0,0.0,0.0,0.0,0.0,0.0,0.0,0.0,0.0,0.0,0.0,0.0,0.0,0.0,0.0,0.0,0.0,0.0,0.0,0.0,0.0,0.0,0.0,0.0,0.0,0.0,0.0,0.0,0.0,0.0,0.0,0.0,0.0,0.0,0.0,0.0,0.0,0.0,0.0,0.0,0.0,0.0,0.0,0.0,0.0,0.0,0.0,0.0,0.0,0.0,0.0,0.0,0.0,0.0,0.0,0.0,0.0,0.0,0.0,0.0,0.0,0.0,0.0,0.0,0.0,0.0,0.0,0.0,0.0,0.0,0.0,-1.3782,-1.4373,-1.5246,-1.5445,-1.4946,-1.3452,-1.236,0.0,0.0,0.0,0.0,0.0,0.0,0.0,0.0,0.0,0.0,0.0,0.0,0.0,0.0,0.0,0.0,0.0,0.0,0.0,0.0,0.0,0.0,0.0,0.0,0.0,0.0,0.0,0.0,0.0,0.0,0.0,0.0,0.0,0.0,0.0,0.0,0.0,0.0,0.0,0.0,0.0,0.0,0.0,0.0,0.0,0.0,0.0,0.0,0.0,0.0,0.0,0.0,0.0,0.0,0.0,0.0,0.0,0.0,0.0,0.0,0.0,0.0,0.0,0.0,0.0,0.0,0.0,0.0,0.0,0.0,0.0,0.0,0.0,0.0,0.0,0.0,0.0,0.0,0.0,0.0,0.0,0.0,0.0,0.0,0.0,0.0,0.0,0.0,0.0,0.0,0.0,0.0,0.0,0.0,0.0,0.0,0.0,0.0,0.0,0.0,0.0,0.0,0.0,0.0,0.0,0.0,0.0,0.0,-1.3924,-1.4758,-1.5393,-1.5589,-1.537,-1.4208,-1.2984,0.0,0.0,0.0,0.0,0.0,0.0,0.0,0.0,0.0,0.0,0.0,0.0,0.0,0.0,0.0,0.0,0.0,0.0,0.0,0.0,0.0,0.0,0.0,0.0,0.0,0.0,0.0,0.0,0.0,0.0,0.0,0.0,0.0,0.0,0.0,0.0,0.0,0.0,0.0,0.0,0.0,0.0,0.0,0.0,0.0,0.0,0.0,0.0,-0.9265,0.0,0.0,0.0,0.0,0.0,0.0,0.0,0.0,0.0,0.0,0.0,0.0,0.0,0.0,0.0,0.0,0.0,0.0,0.0,0.0,0.0,0.0,0.0,0.0,0.0,0.0,0.0,0.0,0.0,0.0,0.0,0.0,0.0,0.0,0.0,0.0,0.0,0.0,0.0,0.0,0.0,0.0,0.0,0.0,0.0,0.0,0.0,0.0,0.0,0.0,0.0,0.0,0.0,0.0,0.0,0.0,0.0,0.0,0.0,-1.4118,-1.4799,-1.5266,-1.5492,-1.5378,-1.4343,-1.319,0.0,0.0,0.0,0.0,0.0,0.0,0.0,0.0,0.0,0.0,0.0,0.0,0.0,0.0,0.0,0.0,0.0,0.0,0.0,0.0,0.0,0.0,0.0,0.0,0.0,0.0,0.0,0.0,0.0,0.0,0.0,0.0,0.0,0.0,0.0,0.0,0.0,0.0,0.0,0.0,0.0,0.0,0.0,0.0,0.0,0.0,0.0,0.0,0.0,0.0,0.0,0.0,0.0,0.0,0.0,0.0,0.0,0.0,0.0,0.0,0.0,0.0,0.0,0.0,0.0,0.0,0.0,0.0,0.0,0.0,0.0,0.0,0.0,0.0,0.0,0.0,0.0,0.0,0.0,0.0,0.0,0.0,0.0,0.0,0.0,0.0,0.0,0.0,0.0,0.0,0.0,0.0,0.0,0.0,0.0,0.0,0.0,0.0,0.0,0.0,0.0,0.0,0.0,0.0,0.0,0.0,0.0,-1.3302,-1.4296,-1.4789,-1.5124,-1.5278,-1.5244,-1.4196,-1.3169,-1.2286,0.0,0.0,0.0,0.0,0.0,0.0,0.0,0.0,0.0,0.0,0.0,0.0,0.0,0.0,0.0,0.0,0.0,0.0,0.0,0.0,0.0,0.0,0.0,0.0,0.0,0.0,0.0,0.0,0.0,0.0,0.0,0.0,0.0,0.0,0.0,0.0,0.0,0.0,-0.9849,-1.0541,0.0,0.0,0.0,0.0,0.0,0.0,0.0,0.0,-1.0882,0.0,0.0,0.0,0.0,0.0,0.0,0.0,0.0,0.0,0.0,0.0,0.0,0.0,0.0,0.0,0.0,0.0,0.0,0.0,0.0,0.0,0.0,0.0,0.0,0.0,0.0,0.0,0.0,0.0,0.0,0.0,0.0,0.0,0.0,0.0,0.0,0.0,0.0,0.0,0.0,0.0,0.0,0.0,0.0,0.0,0.0,0.0,0.0,0.0,0.0,0.0,0.0,0.0,0.0,0.0,0.0,-1.2348,-1.3403,-1.4345,-1.5172,-1.5266,-1.5255,-1.5108,-1.4121,-1.313,-1.2166,0.0,0.0,0.0,0.0,0.0,0.0,0.0,0.0,0.0,0.0,0.0,0.0,0.0,0.0,0.0,0.0,0.0,0.0,0.0,0.0,0.0,0.0,0.0,0.0,0.0,0.0,0.0,0.0,0.0,0.0,0.0,0.0,0.0,0.0,0.0,0.0,0.0,0.0,0.0,-1.1228,-1.1859,0.0,0.0,0.0,0.0,0.0,0.0,0.0,0.0,-1.2773,0.0,0.0,0.0,0.0,0.0,0.0,0.0,0.0,0.0,0.0,0.0,0.0,0.0,0.0,0.0,0.0,0.0,0.0,0.0,0.0,0.0,0.0,0.0,0.0,0.0,0.0,0.0,0.0,0.0,0.0,0.0,0.0,0.0,0.0,0.0,0.0,0.0,0.0,0.0,0.0,0.0,0.0,0.0,0.0,0.0,0.0,0.0,0.0,0.0,0.0,0.0,0.0,0.0,0.0,0.0,-1.2288,-1.3334,-1.4287,-1.5164,-1.5187,-1.5153,-1.5085,-1.4121,-1.3142,0.0,0.0,0.0,0.0,0.0,0.0,0.0,0.0,0.0,0.0,0.0,0.0,0.0,0.0,0.0,0.0,0.0,0.0,0.0,0.0,0.0,0.0,0.0,0.0,0.0,0.0,0.0,0.0,0.0,0.0,0.0,0.0,0.0,0.0,0.0,0.0,0.0,0.0,0.0,0.0,-1.2147,-1.3022,-1.3693,0.0,0.0,0.0,0.0,0.0,0.0,-1.3725,-1.3758,0.0,0.0,0.0,0.0,0.0,0.0,0.0,0.0,0.0,0.0,0.0,0.0,0.0,0.0,0.0,0.0,0.0,0.0,0.0,0.0,0.0,0.0,0.0,0.0,0.0,0.0,0.0,0.0,0.0,0.0,0.0,0.0,0.0,0.0,0.0,0.0,0.0,0.0,0.0,0.0,0.0,0.0,0.0,0.0,0.0,0.0,0.0,0.0,0.0,0.0,0.0,0.0,0.0,0.0,0.0,-1.2168,-1.3217,-1.4182,-1.5062,-1.5119,-1.5119,-1.5074,-1.4132,-1.313,0.0,0.0,0.0,0.0,0.0,0.0,0.0,0.0,0.0,0.0,0.0,0.0,0.0,0.0,0.0,0.0,0.0,0.0,0.0,0.0,0.0,0.0,0.0,0.0,0.0,0.0,0.0,0.0,0.0,0.0,0.0,0.0,0.0,0.0,0.0,0.0,0.0,0.0,0.0,0.0,0.0,-1.3898,-1.4465,-1.4491,0.0,0.0,0.0,0.0,-1.4559,-1.468,0.0,0.0,0.0,0.0,0.0,0.0,0.0,0.0,0.0,0.0,0.0,0.0,0.0,0.0,0.0,0.0,0.0,0.0,0.0,0.0,0.0,0.0,0.0,0.0,0.0,0.0,0.0,0.0,0.0,0.0,0.0,0.0,0.0,0.0,0.0,0.0,0.0,0.0,0.0,0.0,0.0,0.0,0.0,0.0,0.0,0.0,0.0,0.0,0.0,0.0,0.0,0.0,0.0,0.0,0.0,0.0,-1.2168,-1.3079,-1.4044,-1.5028,-1.5119,-1.5119,-1.5096,-1.4142,-1.3142,0.0,0.0,0.0,0.0,0.0,0.0,0.0,0.0,0.0,0.0,0.0,0.0,0.0,0.0,0.0,0.0,0.0,0.0,0.0,0.0,0.0,0.0,0.0,0.0,0.0,0.0,0.0,0.0,0.0,0.0,0.0,0.0,0.0,0.0,0.0,0.0,0.0,0.0,0.0,0.0,0.0,-1.3807,-1.4343,-1.4319,-1.422,0.0,0.0,0.0,-1.5113,-1.5564,0.0,0.0,0.0,0.0,0.0,0.0,0.0,0.0,0.0,0.0,0.0,0.0,0.0,0.0,0.0,0.0,0.0,0.0,0.0,0.0,0.0,0.0,0.0,0.0,0.0,0.0,0.0,0.0,0.0,0.0,0.0,0.0,0.0,0.0,0.0,0.0,0.0,0.0,0.0,0.0,0.0,0.0,0.0,0.0,0.0,0.0,0.0,0.0,0.0,0.0,0.0,0.0,0.0,0.0,0.0,-1.091,-1.2329,-1.3048,-1.3908,-1.488,-1.4926,-1.4937,-1.4983,-1.4014,-1.3043,0.0,0.0,0.0,0.0,0.0,0.0,0.0,0.0,0.0,0.0,0.0,0.0,0.0,0.0,0.0,0.0,0.0,0.0,0.0,0.0,0.0,0.0,0.0,0.0,0.0,0.0,0.0,0.0,0.0,0.0,0.0,0.0,0.0,0.0,0.0,0.0,0.0,0.0,0.0,0.0,0.0,0.0,-1.5867,-1.6211,0.0,0.0,0.0,-1.6955,-1.6772,0.0,0.0,0.0,0.0,0.0,0.0,0.0,0.0,0.0,0.0,0.0,0.0,0.0,0.0,0.0,0.0,0.0,0.0,0.0,0.0,0.0,0.0,0.0,0.0,0.0,0.0,0.0,0.0,0.0,0.0,0.0,0.0,0.0,0.0,0.0,0.0,0.0,0.0,0.0,0.0,0.0,0.0,0.0,0.0,0.0,0.0,0.0,0.0,0.0,0.0,0.0,0.0,0.0,0.0,0.0,0.0,0.0,-1.2393,-1.2938,-1.3672,-1.4663,-1.4741,-1.4765,-1.4812,-1.3876,0.0,0.0,0.0,0.0,0.0,0.0,0.0,0.0,0.0,0.0,0.0,0.0,0.0,0.0,0.0,0.0,0.0,0.0,0.0,0.0,0.0,0.0,0.0,0.0,0.0,0.0,0.0,-0.5314,0.0,0.0,0.0,0.0,0.0,0.0,0.0,0.0,0.0,0.0,0.0,0.0,0.0,0.0,-1.6004,-1.698,-1.7592,-1.7906,0.0,0.0,-1.7957,-1.7904,-1.7437,-1.697,0.0,0.0,0.0,0.0,0.0,0.0,0.0,0.0,0.0,0.0,0.0,0.0,0.0,0.0,0.0,0.0,0.0,0.0,0.0,0.0,0.0,0.0,0.0,0.0,0.0,0.0,0.0,0.0,0.0,0.0,0.0,0.0,0.0,0.0,0.0,0.0,0.0,0.0,0.0,0.0,0.0,0.0,0.0,0.0,0.0,0.0,0.0,0.0,0.0,0.0,0.0,0.0,0.0,0.0,0.0,-1.2156,-1.262,-1.3347,-1.4387,-1.4546,-1.4627,-1.4605,-1.377,-1.2838,0.0,0.0,0.0,0.0,0.0,0.0,0.0,0.0,0.0,0.0,0.0,0.0,0.0,0.0,0.0,0.0,0.0,0.0,0.0,0.0,0.0,0.0,0.0,0.0,0.0,0.0,0.0,0.0,0.0,0.0,0.0,0.0,0.0,0.0,0.0,0.0,0.0,0.0,0.0,0.0,0.0,-1.6404,-1.6863,-1.7375,-1.7665,0.0,0.0,-1.8182,-1.7721,-1.7667,-1.751,-1.7105,0.0,0.0,0.0,0.0,0.0,0.0,0.0,0.0,0.0,0.0,0.0,0.0,0.0,0.0,0.0,0.0,0.0,0.0,0.0,0.0,0.0,0.0,0.0,0.0,0.0,0.0,0.0,0.0,0.0,0.0,0.0,0.0,0.0,0.0,0.0,0.0,0.0,0.0,0.0,0.0,0.0,0.0,0.0,0.0,0.0,0.0,0.0,0.0,0.0,0.0,0.0,0.0,0.0,-1.0723,-1.2307,-1.2436,-1.2942,-1.3852,-1.3952,-1.4046,-1.4221,-1.3347,-1.2616,0.0,0.0,0.0,0.0,0.0,0.0,0.0,0.0,0.0,0.0,0.0,0.0,0.0,0.0,0.0,0.0,0.0,0.0,0.0,0.0,0.0,0.0,0.0,0.0,0.0,0.0,0.0,0.0,-0.7088,-0.7537,-0.7954,0.0,0.0,0.0,0.0,0.0,0.0,0.0,0.0,0.0,0.0,-1.7045,-1.7887,-1.8438,0.0,0.0,-1.885,-1.8992,-1.8847,-1.8529,-1.817,-1.7775,-1.7127,0.0,0.0,0.0,0.0,0.0,0.0,0.0,0.0,0.0,0.0,0.0,0.0,0.0,0.0,0.0,0.0,0.0,0.0,0.0,0.0,0.0,0.0,0.0,0.0,0.0,0.0,0.0,0.0,0.0,0.0,0.0,0.0,0.0,0.0,0.0,0.0,0.0,0.0,0.0,0.0,0.0,0.0,0.0,0.0,0.0,0.0,0.0,0.0,0.0,0.0,0.0,0.0,-1.0722,-1.2234,-1.2313,-1.2687,-1.3372,-1.3443,-1.3563,-1.3718,-1.3067,-1.2478,0.0,0.0,0.0,0.0,0.0,0.0,0.0,0.0,0.0,0.0,0.0,0.0,0.0,0.0,0.0,0.0,0.0,0.0,0.0,0.0,0.0,0.0,0.0,0.0,0.0,0.0,0.0,0.0,-0.7388,-0.779,-0.7954,0.0,0.0,0.0,0.0,0.0,0.0,0.0,0.0,0.0,0.0,-1.7783,-1.8514,-1.904,-1.9358,-1.9321,-1.9339,-1.9409,-1.952,-1.906,-1.8585,-1.8349,0.0,0.0,0.0,0.0,0.0,0.0,0.0,0.0,0.0,0.0,0.0,0.0,0.0,0.0,0.0,0.0,0.0,0.0,0.0,0.0,0.0,0.0,0.0,0.0,0.0,0.0,0.0,0.0,0.0,0.0,-0.5487,0.0,0.0,0.0,0.0,0.0,0.0,0.0,0.0,0.0,0.0,0.0,0.0,0.0,0.0,0.0,0.0,0.0,0.0,0.0,0.0,0.0,0.0,0.0,-1.1899,-1.2218,-1.2572,-1.291,-1.3118,-1.3218,-1.3232,-1.3006,-1.246,-1.1541,0.0,0.0,0.0,0.0,0.0,0.0,0.0,0.0,0.0,0.0,0.0,0.0,0.0,0.0,0.0,0.0,0.0,0.0,0.0,0.0,0.0,0.0,0.0,0.0,0.0,0.0,-0.7438,-0.7672,-0.7841,0.0,0.0,0.0,0.0,0.0,0.0,0.0,0.0,0.0,0.0,-1.762,-1.867,-1.8455,-1.8928,-1.9265,-1.9134,-1.9213,-1.9321,-1.9395,-1.8969,-1.8629,0.0,0.0,0.0,0.0,0.0,0.0,0.0,0.0,0.0,0.0,0.0,0.0,0.0,0.0,0.0,0.0,0.0,0.0,0.0,0.0,0.0,0.0,0.0,0.0,0.0,0.0,0.0,-0.5795,-0.5838,0.0,0.0,0.0,0.0,0.0,0.0,0.0,0.0,0.0,0.0,0.0,-0.995,-1.0018,0.0,0.0,0.0,0.0,0.0,0.0,0.0,0.0,0.0,0.0,0.0,0.0,-1.0746,-1.1477,-1.1752,-1.2078,-1.2495,-1.2593,-1.274,-1.2983,-1.2629,-1.1965,-1.0992,0.0,0.0,0.0,0.0,0.0,0.0,0.0,0.0,0.0,0.0,0.0,0.0,0.0,0.0,0.0,0.0,0.0,0.0,0.0,0.0,0.0,0.0,0.0,0.0,0.0,-0.732,0.0,0.0,0.0,0.0,0.0,0.0,0.0,0.0,0.0,0.0,0.0,-1.5886,-1.7061,-1.7996,-1.8655,-1.8943,-1.91,-1.9139,0.0,0.0,0.0,0.0,0.0,0.0,0.0,0.0,0.0,0.0,0.0,0.0,0.0,0.0,-1.7235,-1.6196,-1.6098,-1.6141,-1.594,0.0,0.0,0.0,0.0,0.0,0.0,0.0,0.0,0.0,0.0,0.0,0.0,0.0,0.0,0.0,0.0,-0.6331,0.0,0.0,0.0,0.0,0.0,0.0,0.0,0.0,-0.9842,-1.0368,-1.0853,-1.0896,-1.0781,0.0,-1.0441,-0.9922,0.0,0.0,0.0,0.0,0.0,0.0,0.0,0.0,-1.0787,-1.1189,-1.1547,-1.1834,-1.2092,-1.2175,-1.2357,-1.2593,-1.231,-1.1712,-1.0825,-1.0175,-0.929,0.0,0.0,0.0,0.0,0.0,0.0,0.0,0.0,0.0,0.0,0.0,0.0,0.0,0.0,0.0,0.0,0.0,0.0,0.0,0.0,0.0,0.0,0.0,-0.7485,0.0,0.0,0.0,0.0,0.0,0.0,0.0,0.0,0.0,-1.3973,-1.5448,-1.6832,-1.7811,-1.8332,-1.8724,-1.908,0.0,0.0,0.0,0.0,0.0,0.0,0.0,-1.9742,-1.9189,-1.9212,-1.9096,-1.8626,-1.8768,-1.9043,-1.9217,0.0,0.0,-1.795,-1.7824,-1.7915,-1.798,-1.8035,-1.8053,-1.8145,-1.817,-1.8236,0.0,0.0,0.0,0.0,0.0,0.0,0.0,0.0,-0.7335,-0.7483,0.0,-0.7432,0.0,0.0,0.0,0.0,0.0,-0.8549,0.0,0.0,-1.0655,-1.1212,-1.186,-1.1885,-1.174,-1.1465,-1.1664,-1.137,-1.0614,-0.9665,0.0,0.0,0.0,0.0,0.0,0.0,-1.083,-1.1033,-1.1577,-1.1828,-1.1719,-1.1952,-1.2085,-1.2092,-1.2059,-1.1721,-1.1078,-1.0755,-0.9856,-0.829,-0.8254,0.0,0.0,0.0,0.0,0.0,0.0,0.0,0.0,0.0,0.0,0.0,0.0,0.0,0.0,0.0,0.0,0.0,0.0,0.0,0.0,-0.7517,0.0,0.0,0.0,0.0,0.0,0.0,0.0,0.0,0.0,0.0,-1.5743,-1.673,-1.7629,-1.8144,0.0,0.0,0.0,0.0,-1.906,-1.9655,-1.9844,-2.0134,-2.0688,-2.0872,-2.0779,-2.0274,0.0,0.0,-1.9755,-1.9848,-1.9997,-2.0237,-2.043,-2.0367,-1.9323,-1.9199,-1.9269,-1.9339,-1.9407,-1.9446,-1.9476,-1.9501,-1.9545,-0.7294,0.0,0.0,0.0,0.0,-0.7816,-0.7998,-0.8166,-0.824,-0.8397,-0.8547,-0.8232,0.0,0.0,0.0,0.0,0.0,0.0,-1.0156,-1.0494,-1.1287,-1.1764,-1.1964,-1.1956,-1.1965,-1.1967,-1.1816,-1.1751,-1.1724,-1.1258,-1.0694,-1.0071,0.0,0.0,0.0,0.0,-1.1232,-1.1035,-1.1396,-1.1603,-1.1578,-1.1628,-1.1794,-1.2076,-1.2357,-1.2257,-1.173,-1.1194,-1.0586,-0.9896,-0.8777,0.0,0.0,0.0,0.0,0.0,0.0,0.0,0.0,0.0,0.0,0.0,0.0,0.0,0.0,0.0,0.0,0.0,0.0,0.0,-0.7221,-0.7848,-0.8474,0.0,0.0,0.0,0.0,0.0,0.0,0.0,0.0,0.0,-1.762,-1.7787,-1.8061,0.0,0.0,-1.8994,-1.9398,-1.9441,-1.9669,-2.0326,0.0,0.0,0.0,-2.0775,-2.0745,-2.0565,-2.0238,-2.0001,-2.0116,-1.9816,-1.9687,-2.0023,-2.0185,-2.0252,-2.0303,-2.0447,-2.0587,-2.0649,-2.0694,-2.077,-2.083,-2.0845,-2.0858,-0.7684,-0.7712,-0.7795,-0.7856,-0.7945,-0.8124,-0.8352,-0.8595,-0.8809,-0.8984,-0.9163,-0.8911,-0.8785,-0.8806,-0.8588,0.0,0.0,0.0,-1.0687,-1.1051,-1.1639,-1.201,-1.2226,-1.2234,-1.2264,-1.2346,-1.2204,-1.2171,-1.2215,-1.2111,-1.1703,-1.1039,0.0,0.0,-1.0566,-1.1072,-1.1235,-1.0991,-1.1252,-1.1427,-1.1427,-1.1477,-1.1703,-1.2076,-1.2323,-1.2329,-1.2004,-1.1465,-1.1,-1.0527,-0.9423,-0.8633,0.0,0.0,0.0,0.0,0.0,0.0,0.0,0.0,0.0,0.0,0.0,-0.6642,0.0,0.0,0.0,0.0,-0.7152,-0.7407,-0.7896,-0.8566,0.0,0.0,0.0,0.0,0.0,0.0,0.0,-1.5421,-1.6508,-1.7538,-1.8575,-1.8821,-1.9049,-1.9527,-1.951,-1.9577,-1.9926,0.0,-2.0195,-2.0841,-2.094,-2.1025,-2.1267,-2.1295,-2.1246,-2.1004,-2.0541,-2.0298,-2.0436,-2.0176,-2.0098,-2.0396,-2.0406,-2.0424,-2.0808,-2.0915,-2.099,-2.1151,-2.1199,-2.1278,-2.1309,-2.134,-2.1387,-0.7969,-0.7939,-0.7759,-0.7813,-0.8053,-0.8214,-0.8484,-0.8777,-0.9121,-0.9427,-0.9603,-0.9516,-0.9528,-0.9598,-0.9574,0.0,-1.0518,-1.0568,-1.1023,-1.1783,-1.1814,-1.2092,-1.2552,-1.256,-1.256,-1.259,-1.2713,-1.2605,-1.2274,-1.245,-1.2386,-1.2134,-1.1583,-1.1107,-1.0761,-1.096,-1.1022,-1.0959,-1.1196,-1.1301,-1.1301,-1.1427,-1.1678,-1.2026,-1.2076,-1.2082,-1.2006,-1.1647,-1.1147,-1.0508,-1.008,-0.9372,-0.8301,0.0,0.0,0.0,0.0,0.0,0.0,0.0,0.0,0.0,0.0,0.0,0.0,0.0,0.0,0.0,-0.8194,0.0,-0.8851,-0.955,0.0,0.0,0.0,-1.3055,-1.3726,-1.4489,-1.5442,-1.6675,0.0,0.0,-1.8938,0.0,-2.0334,-2.057,-2.0485,-2.0414,-2.047,-2.047,-2.0689,-2.1302,-2.1386,-2.1561,-2.2006,-2.2095,-2.1949,-2.1546,-2.1054,-2.0798,-2.0818,-2.0753,-2.0893,-2.1114,-2.0907,-2.0737,-2.1068,-2.0885,-2.0702,-2.1067,-2.1151,-2.1167,-2.1199,-2.1247,-2.1262,-0.7624,-0.7611,-0.7566,-0.7889,-0.85,-0.8805,-0.908,-0.9282,-0.9813,-0.9951,-0.9837,-0.9959,-0.992,-0.9753,-0.9996,-1.0284,-1.0598,-1.1044,-1.1357,-1.1584,-1.1874,-1.2104,-1.222,-1.2313,-1.2367,-1.2398,-1.256,-1.2642,-1.2645,-1.2706,-1.2617,-1.2402,-1.2279,-1.2052,-1.1751,-1.1644,-1.155,-1.1455,-1.1328,-1.1301,-1.1301,-1.1427,-1.1553,-1.1653,-1.1852,-1.199,-1.2076,-1.1462,-1.1126,-1.1142,-1.0108,-0.9492,-0.9387,-0.8465,0.0,0.0,0.0,0.0,0.0,0.0,0.0,0.0,0.0,-0.7588,-0.8154,0.0,-0.8487,0.0,-0.9299,-0.9584,-0.9702,-1.0641,0.0,0.0,-1.3002,-1.377,-1.4537,-1.5184,-1.5949,-1.685,-1.7631,-1.8565,-1.9809,-2.0238,-2.0694,-2.1375,-2.0851,-2.0576,-2.0998,-2.1082,-2.1308,-2.1842,-2.1954,-2.2039,-2.2165,-2.2194,-2.2151,-2.2034,-2.1521,-2.1179,-2.1245,-2.0862,-2.0656,-2.0872,-2.0977,-2.1053,-2.1292,-2.1435,-2.1427,-2.1224,-2.1073,-2.1006,-2.1087,-2.1135,-2.1151,-0.7638,-0.7638,-0.7744,-0.8001,-0.839,-0.87,-0.8966,-0.9211,-0.9776,-0.9953,-0.982,-1.0079,-1.0205,-1.026,-1.0542,-1.0847,-1.121,-1.1626,-1.1814,-1.1881,-1.207,-1.2148,-1.2127,-1.2182,-1.2212,-1.2212,-1.2313,-1.2428,-1.2459,-1.249,-1.2456,-1.2408,-1.2408,-1.2371,-1.2323,-1.2011,-1.1743,-1.1522,-1.1267,-1.1124,-1.1124,-1.12,-1.1267,-1.1326,-1.1444,-1.1644,-1.1918,-1.1195,-1.0901,-1.1136,-1.0158,-0.9573,-0.9566,-0.8938,-0.8474,0.0,0.0,0.0,0.0,0.0,0.0,0.0,0.0,0.0,0.0,0.0,-0.9586,-1.0139,-1.0502,-1.0884,-1.1335,-1.1931,-1.2591,-1.3218,-1.386,-1.4477,-1.5135,-1.5872,-1.6604,-1.7219,-1.8118,-1.8998,-1.9882,-2.0428,-2.0924,-2.1465,-2.1111,-2.1005,-2.1434,-2.1504,-2.1644,-2.1988,-2.2091,-2.2137,-2.217,-2.2194,-2.2194,-2.218,-2.1926,-2.1724,-2.1747,-2.1487,-2.1328,-2.1454,-2.1427,-2.1402,-2.1659,-2.1648,-2.1589,-2.1546,-2.1427,-2.1262,-2.1001,-2.0973,-2.1022,-0.7761,-0.7761,-0.7953,-0.803,-0.8075,-0.8175,-0.8491,-0.8908,-0.9444,-0.968,-0.9682,-0.9991,-1.0286,-1.0667,-1.0902,-1.1314,-1.1799,-1.2037,-1.2198,-1.2265,-1.2297,-1.2215,-1.2103,-1.2126,-1.2103,-1.2058,-1.2096,-1.2096,-1.2096,-1.2096,-1.2158,-1.2274,-1.2274,-1.2367,-1.2536,-1.2161,-1.1767,-1.1397,-1.111,-1.0938,-1.0896,-1.0888,-1.0947,-1.1074,-1.1074,-1.1251,-1.1585,-1.0889,-1.0615,-1.0867,-1.019,-0.9671,-0.9422,-0.9366,-0.9121,0.0,-0.8556,0.0,0.0,0.0,0.0,0.0,0.0,0.0,0.0,-1.0697,-1.103,-1.1613,-1.1792,-1.2218,-1.3069,-1.3221,-1.3462,-1.3947,-1.4627,-1.5235,-1.565,-1.647,-1.7189,-1.7678,-1.8645,-1.9327,-1.9637,-2.0384,-2.0921,-2.1093,-2.1175,-2.1266,-2.1575,-2.167,-2.1718,-2.1769,-2.1902,-2.2006,-2.21,-2.2123,-2.2123,-2.2147,-2.2119,-2.217,-2.2165,-2.2151,-2.2212,-2.2248,-2.1957,-2.1821,-2.2077,-2.1775,-2.163,-2.1869,-2.1913,-2.1713,-2.1194,-2.0996,-2.0987,-0.7561,-0.7561,-0.7599,-0.7718,-0.7872,-0.788,-0.8218,-0.8768,-0.9377,-0.9574,-0.9527,-0.955,-0.9666,-0.995,-1.0425,-1.0839,-1.1245,-1.1594,-1.19,-1.2222,-1.2222,-1.2156,-1.2052,-1.2173,-1.2134,-1.1879,-1.2027,-1.2096,-1.2096,-1.2096,-1.212,-1.2158,-1.212,-1.222,-1.2336,0.0,0.0,0.0,-1.1331,-1.1176,-1.0913,-1.0888,-1.0922,-1.0947,-1.0947,0.0,-1.1183,-1.0751,-1.0608,-1.0851,-1.0154,0.0,0.0,0.0,0.0,0.0,0.0,0.0,0.0,0.0,0.0,0.0,-1.1185,-1.1409,-1.1468,-1.2305,-1.293,-1.3176,-1.3207,-1.3296,-1.3492,-1.3887,-1.4217,-1.4404,-1.5275,-1.594,-1.6092,-1.6633,-1.7251,-1.7875,-1.8335,-1.8908,-1.9636,-2.0118,-2.046,-2.066,-2.0734,-2.0759,-2.0833,-2.1177,-2.1482,-2.1626,-2.1736,-2.1841,-2.1878,-2.1864,-2.1935,-2.2006,-2.2044,-2.2091,-2.2161,-2.217,-2.2194,-2.2254,-2.2248,-2.2232,-2.2309,-2.239,-2.2309,-2.2093,-2.2152,-2.2198,-2.2105,-2.1652,-2.1332,-0.7518,0.0,-0.7518,-0.7561,0.0,-0.7761,-0.7957,-0.8293,-0.8899,-0.9256,-0.9405,-0.9364,-0.9457,-0.9676,-1.0136,-1.0635,-1.1108,-1.1601,-1.1911,-1.2165,-1.2269,-1.2176,-1.1971,-1.2038,-1.205,-1.1989,-1.1971,-1.1992,-1.2041,-1.1923,-1.1872,-1.1965,-1.1965,-1.2027,-1.2182,-1.2182,-1.2022,-1.17,-1.1361,-1.1121,-1.0942,-1.079,-1.0693,-1.0701,0.0,0.0,0.0,0.0,0.0,0.0,0.0,0.0,0.0,0.0,0.0,-0.9928,-0.9776,-0.9824,-1.0127,-1.0518,-1.0985,-1.1551,-1.2308,-1.2652,-1.2404,-1.3006,-1.3533,-1.3855,-1.3962,-1.4107,-1.4339,-1.4821,-1.5154,-1.5245,-1.588,-1.6459,-1.6763,-1.7093,-1.7517,-1.8116,-1.842,-1.8829,-1.9425,-1.9682,-1.9901,-2.0156,-2.0207,-2.022,-2.0258,-2.066,-2.1068,-2.1264,-2.1471,-2.164,-2.1688,-2.1746,-2.1807,-2.1878,-2.1902,-2.1912,-2.1983,-2.1983,-2.202,-2.2077,-2.2161,-2.2231,-2.237,-2.2472,-2.2517,-2.2431,-2.2454,-2.2556,-2.2664,-2.2176,-2.1719,-0.7596,-0.7571,-0.7533,-0.7547,-0.7518,-0.768,-0.7761,-0.7842,0.0,0.0,0.0,-0.9208,-0.9359,-0.9511,-0.9916,-1.0406,-1.0962,-1.1484,-1.1842,-1.2016,-1.2223,-1.2136,-1.1881,-1.1875,-1.195,-1.2091,-1.1857,-1.18,-1.1898,-1.1677,-1.1611,-1.1685,-1.1716,-1.1809,-1.2027,-1.2096,-1.2073,-1.201,-1.141,-1.104,-1.0941,-1.0682,-1.0526,-1.0496,-1.0496,-1.0539,-1.0641,-1.0351,-1.0246,-1.0352,-1.0094,-1.0002,-1.0125,-1.0172,-1.0273,-1.0494,-1.0507,-1.0642,-1.0977,-1.1331,-1.1751,-1.2218,-1.3067,-1.3454,-1.3233,-1.3478,-1.3797,-1.4269,-1.4482,-1.4776,-1.5177,-1.5693,-1.6002,-1.6014,-1.6449,-1.6922,-1.7338,-1.7578,-1.7876,-1.8274,-1.856,-1.8813,-1.9054,-1.9225,-1.9368,-1.9604,-1.9656,-1.9682,-1.9747,-2.0182,-2.0623,-2.081,-2.1068,-2.1313,-2.1434,-2.153,-2.1664,-2.165,-2.1712,-2.1736,-2.1783,-2.1769,-2.1855,-2.1949,-2.1973,-2.2067,-2.2217,-2.2263,-2.2356,-2.2526,-2.2572,-2.2663,-2.2869,-2.2499,-2.2104,-0.7854,-0.7763,-0.7763,-0.7669,-0.7518,-0.7518,-0.7642,-0.7842,-0.8255,-0.8479,-0.8556,-0.8865,-0.9061,-0.9099,-0.9511,-0.9916,-1.0331,-1.0588,-1.1093,0.0,-1.1797,-1.1788,-1.1804,-1.1797,-1.1768,-1.1669,-1.1648,-1.1599,-1.1561,-1.1537,-1.1421,-1.1251,-1.1303,-1.1522,-1.184,-1.2027,-1.2097,-1.2074,-1.1659,-1.1212,-1.0759,-1.0697,-1.0614,-1.0512,-1.0496,-1.0496,-1.0547,-1.0474,-1.0493,-1.0611,-1.0262,-1.0115,-1.0244,-0.9963,-0.9887,-1.0137,-1.0191,-1.0327,-1.0669,-1.1288,-1.2099,-1.3091,-1.3533,-1.3758,-1.3707,-1.4138,-1.4506,-1.471,-1.507,-1.5422,-1.5642,-1.6039,-1.6359,-1.6505,-1.6968,-1.7327,-1.7442,-1.776,-1.8062,-1.8154,-1.8313,-1.8503,-1.8679,-1.8813,-1.8946,-1.9066,-1.916,-1.916,-1.9331,-1.9837,-2.0233,-2.0359,-2.0635,-2.0858,-2.0932,-2.1019,-2.1155,-2.1264,-2.1361,-2.1458,-2.1554,-2.1674,-2.1759,-2.1831,-2.1817,-2.1855,-2.1912,-2.1902,-2.1983,-2.21,-2.2133,-2.2254,-2.2563,-2.2493,-2.2418,-0.7967,-0.7898,-0.7898,-0.7849,-0.776,-0.7714,-0.7713,-0.7826,-0.7996,-0.8144,-0.8255,-0.8446,-0.8527,-0.8522,-0.8937,-0.9273,-0.9571,-0.9992,-1.0475,-1.1037,-1.1149,-1.1267,-1.1419,-1.1436,-1.1446,-1.1498,-1.1413,-1.1409,-1.1477,-1.1276,-1.1104,-1.1007,-1.1009,-1.1216,-1.1522,-1.1622,-1.1723,-1.1802,-1.1594,-1.1302,-1.0912,-1.0701,-1.0474,-1.0247,-1.0231,-1.0239,-1.0231,-1.0231,-1.0308,-1.047,-1.0311,-1.0299,-1.0499,-1.0344,-1.0319,-1.0513,-1.0585,-1.073,-1.0954,-1.1628,-1.2335,-1.302,-1.3396,-1.3645,-1.3782,-1.423,-1.4668,-1.5028,-1.5357,-1.5654,-1.5937,-1.6387,-1.6731,-1.692,-1.7379,-1.7703,-1.7779,-1.7951,-1.8111,-1.8111,-1.8166,-1.8313,-1.8476,-1.8518,-1.8625,-1.8759,-1.8774,-1.8801,-1.8881,-1.9198,-1.9565,-1.9837,-2.0207,-2.0434,-2.0498,-2.0673,-2.0797,-2.0871,-2.0995,-2.108,-2.1191,-2.1337,-2.1482,-2.1554,-2.1626,-2.1736,-2.1769,-2.1793,-2.1831,-2.1878,-2.1888,-2.1996,-2.2123,-2.2217,-2.2403,-0.8113,-0.8077,-0.8073,-0.8052,-0.8004,-0.791,-0.7857,-0.7841,-0.783,-0.7902,-0.8009,-0.8085,-0.8102,-0.814,-0.8437,-0.8699,-0.8889,-0.9349,-0.9803,-1.0218,-1.0406,-1.0588,-1.0812,-1.0812,-1.0931,-1.1124,-1.1077,-1.1098,-1.12,-1.0921,-1.0744,-1.0679,-1.0629,-1.08,-1.1178,-1.1216,-1.1303,-1.1483,-1.1456,-1.1345,-1.1136,-1.0789,-1.0427,-1.0136,-1.0037,-1.0007,-1.0007,-1.0007,-1.0076,-1.0213,-1.0239,-1.0368,-1.0598,-1.0624,-1.0693,-1.0845,-1.0947,-1.1099,-1.1318,-1.1819,-1.2314,-1.2652,-1.3025,-1.3399,-1.3779,-1.4135,-1.4571,-1.5134,-1.5485,-1.5895,-1.6302,-1.6748,-1.7118,-1.7296,-1.7628,-1.7863,-1.8018,-1.8057,-1.8057,-1.8084,-1.8084,-1.8166,-1.8286,-1.834,-1.8356,-1.8452,-1.8491,-1.8491,-1.8545,-1.8664,-1.8919,-1.9303,-1.9746,-2.0003,-2.0029,-2.0245,-2.0384,-2.0434,-2.0535,-2.061,-2.0709,-2.0896,-2.1093,-2.124,-2.1385,-2.152,-2.1626,-2.1674,-2.1674,-2.1712,-2.1688,-2.1698,-2.1769,-2.1888,-2.2217,-0.8414,-0.8276,-0.8264,-0.8166,-0.8032,-0.8,-0.7992,-0.7971,-0.7849,-0.7815,-0.787,-0.8026,-0.8068,-0.8102,-0.814,-0.8289,-0.8475,-0.8518,-0.8861,-0.9359,-0.9435,-0.9625,-0.9992,-1.003,-1.0105,-1.0325,-1.0484,-1.0537,-1.0521,-1.0394,-1.0279,-1.0104,-1.0091,-1.0333,-1.0776,-1.0832,-1.0933,-1.1153,-1.125,-1.1325,-1.1264,-1.0935,-1.0669,-1.047,-1.0158,-1.0007,-0.9999,-1.0007,-0.9999,-1.0025,-1.0025,-1.0128,-1.0316,-1.0342,-1.0445,-1.0701,-1.0726,-1.0896,-1.1276,-1.1603,-1.1927,-1.2323,-1.2637,-1.3086,-1.3796,-1.4032,-1.4351,-1.4925,-1.5732,-1.6308,-1.6727,-1.7141,-1.7401,-1.755,-1.7655,-1.7755,-1.7881,-1.7925,-1.7963,-1.8084,-1.8057,-1.8111,-1.8111,-1.8123,-1.8111,-1.8166,-1.8262,-1.8351,-1.8488,-1.86,-1.8655,-1.8842,-1.9194,-1.9483,-1.955,-1.9682,-1.9862,-1.9875,-1.9978,-2.0105,-2.0245,-2.0472,-2.0709,-2.0883,-2.1068,-2.1253,-2.1302,-2.1337,-2.1434,-2.1434,-2.1447,-2.1471,-2.1592,-2.1712,-2.203,-0.8567,-0.8498,-0.8455,-0.8457,-0.8333,-0.8223,-0.8178,-0.8158,-0.7988,-0.7894,-0.78,-0.7915,-0.7862,-0.7757,-0.7876,-0.7953,-0.8068,-0.8183,-0.8403,-0.8746,-0.8789,-0.897,-0.9344,-0.9382,-0.9458,-0.9657,-0.9884,-0.9986,-0.9907,-0.9745,-0.9581,-0.9423,-0.9408,-0.969,-1.0161,-1.0295,-1.0428,-1.0624,-1.0863,-1.102,-1.0982,-1.0799,-1.0546,-1.0255,-0.9955,-0.9751,-0.9777,-0.9751,-0.981,-0.9877,-0.987,-0.9973,-1.011,-1.0239,-1.0342,-1.047,-1.0624,-1.0794,-1.1049,-1.1326,-1.1578,-1.1803,-1.2447,-1.2992,-1.3394,-1.4051,-1.4597,-1.4977,-1.5635,-1.6249,-1.6709,-1.698,-1.72,-1.7418,-1.7462,-1.7545,-1.7755,-1.7783,-1.7822,-1.7838,-1.7877,-1.7877,-1.7877,-1.7877,-1.7893,-1.802,-1.823,-1.8514,-1.8654,-1.8952,-1.9148,-1.9245,-1.9528,-1.9456,-1.9215,-1.921,-1.9342,-1.9382,-1.95,-1.9668,-1.9772,-2.0105,-2.0409,-2.0535,-2.0772,-2.0983,-2.1095,-2.1106,-2.1155,-2.118,-2.1166,-2.1204,-2.1337,-2.141,-2.1602,-0.8432,-0.8432,-0.8388,-0.8432,-0.8464,-0.8336,-0.8318,-0.8341,-0.817,-0.802,-0.7939,-0.7845,-0.7731,-0.7604,-0.7667,-0.7718,-0.7761,-0.7872,-0.8025,-0.8212,-0.825,-0.8403,-0.8742,-0.8737,-0.8818,-0.898,-0.9241,-0.9394,-0.942,-0.917,-0.9001,-0.8909,-0.8825,-0.9043,-0.9524,-0.9696,-0.9849,-1.0072,-1.0428,-1.0586,-1.0575,-1.0534,-1.0394,-1.016,-0.9894,-0.9702,-0.9621,-0.9614,-0.9647,-0.974,-0.974,-0.9792,-0.9947,-1.0084,-1.0187,-1.0316,-1.0573,-1.0718,-1.0845,-1.1049,-1.1294,-1.1583,-1.2284,-1.2816,-1.3288,-1.3994,-1.458,-1.4913,-1.5375,-1.5902,-1.6479,-1.6637,-1.679,-1.7043,-1.7099,-1.7211,-1.7462,-1.7507,-1.7534,-1.7617,-1.7656,-1.7645,-1.7734,-1.7823,-1.7991,-1.8097,-1.851,-1.8855,-1.8953,-1.9256,-1.9495,-1.9559,-1.9613,-1.9529,-1.9148,-1.9297,-1.9272,-1.912,-1.9293,-1.9364,-1.9298,-1.9668,-1.9991,-2.008,-2.0409,-2.0698,-2.086,-2.0909,-2.0983,-2.0997,-2.0997,-2.1033,-2.1131,-2.1131,-2.1229,-0.7944,-0.7944,-0.7944,-0.8025,-0.8201,-0.8185,-0.8321,-0.8524,-0.8353,-0.8272,-0.8199,-0.7918,-0.78,-0.7767,-0.7608,-0.7526,-0.7518,-0.7561,-0.768,-0.7838,-0.7838,-0.7953,-0.814,-0.814,-0.8178,-0.8293,-0.8594,-0.8835,-0.9008,-0.8806,-0.8682,-0.8609,-0.8379,-0.8528,-0.8952,-0.9049,-0.9204,-0.9518,-0.9849,-1.0047,-1.0047,-1.0217,-1.0303,-1.0258,-1.0125,-0.9921,-0.9672,-0.9621,-0.9614,-0.9614,-0.9621,-0.9647,-0.9792,-0.9825,-0.9955,-1.0265,-1.0539,-1.0701,-1.0717,-1.0887,-1.1165,-1.1711,-1.2025,-1.2474,-1.3336,-1.3742,-1.4143,-1.4641,-1.4885,-1.5352,-1.5931,-1.6181,-1.6381,-1.657,-1.6637,-1.674,-1.7011,-1.7011,-1.7179,-1.7412,-1.7451,-1.7523,-1.7701,-1.8103,-1.8259,-1.8422,-1.878,-1.9093,-1.9145,-1.9179,-1.928,-1.9332,-1.934,-1.9346,-1.9743,-1.9645,-1.9568,-1.9385,-1.9151,-1.9191,-1.9078,-1.9066,-1.9356,-1.963,-1.9965,-2.0271,-2.0548,-2.0723,-2.0822,-2.0885,-2.0947,-2.0997,-2.1021,-2.1021,-2.1071,-0.7408,-0.7408,-0.758,-0.7669,-0.7757,-0.7937,-0.8076,-0.816,-0.8102,-0.8049,-0.8029,-0.7899,-0.7853,-0.7796,-0.7731,-0.7633,-0.7526,-0.7518,-0.7561,-0.7599,-0.7599,-0.7718,-0.788,-0.7915,-0.7991,-0.8106,-0.8255,-0.8298,-0.8208,-0.8153,-0.8085,-0.801,-0.7928,-0.8047,-0.8306,-0.8431,-0.8554,-0.8716,-0.9113,-0.9376,-0.9434,-0.9844,-1.0069,-0.9999,-0.9989,-0.9964,-0.9909,-0.9697,-0.9614,-0.9614,-0.9614,-0.9621,-0.9681,-0.974,-0.9903,-1.0084,-1.0316,-1.054,-1.0746,-1.0963,-1.1276,-1.1718,-1.2189,-1.2572,-1.3015,-1.3491,-1.3918,-1.4124,-1.4339,-1.4666,-1.4893,-1.5391,-1.5787,-1.5931,-1.6075,-1.6218,-1.6389,-1.6485,-1.6655,-1.6853,-1.7004,-1.7168,-1.7535,-1.785,-1.8174,-1.8552,-1.9094,-1.9452,-1.9655,-1.9865,-2.0033,-2.0109,-2.0131,-2.0194,-2.0319,-1.9765,-1.9351,-1.9199,-1.9034,-1.8976,-1.8883,-1.879,-1.9003,-1.9225,-1.9526,-1.9823,-2.0093,-2.046,-2.0586,-2.0649,-2.0699,-2.0823,-2.0911,-2.0886,-2.0936,-0.6653,-0.6697,-0.6959,-0.7092,-0.718,-0.7408,-0.7588,-0.7632,-0.772,-0.7741,-0.7775,-0.7804,-0.7773,-0.7727,-0.7608,-0.7541,-0.7453,-0.7478,-0.7518,-0.7518,-0.7518,-0.7561,-0.768,-0.7718,-0.7799,-0.791,-0.7991,-0.7956,-0.7891,-0.7852,-0.773,-0.764,-0.7568,-0.7663,-0.7834,-0.7944,-0.8009,-0.8204,-0.856,-0.8753,-0.8818,-0.937,-0.9705,-0.9723,-0.9773,-0.9918,-1.014,-0.9863,-0.9715,-0.9753,-0.9672,-0.9639,-0.976,-0.9895,-1.0053,-1.0242,-1.0432,-1.0639,-1.0931,-1.1115,-1.1431,-1.1853,-1.2291,-1.2618,-1.2789,-1.3262,-1.3511,-1.3588,-1.3769,-1.3911,-1.4031,-1.4508,-1.501,-1.5274,-1.5507,-1.5671,-1.5787,-1.5902,-1.6104,-1.6363,-1.6652,-1.6988,-1.74,-1.7826,-1.8257,-1.8711,-1.9342,-1.9796,-1.9936,-2.0231,-2.0508,-2.0508,-2.0409,-2.0386,-2.0363,-1.9907,-1.9608,-1.9456,-1.9272,-1.9086,-1.8788,-1.8686,-1.8655,-1.8875,-1.9107,-1.9382,-1.9694,-2.0093,-2.0258,-2.0334,-2.0436,-2.0549,-2.0637,-2.075,-2.0787,-0.5719,-0.5722,-0.5994,-0.6213,-0.6387,-0.67,-0.6881,-0.7051,-0.7312,-0.739,-0.7399,-0.7551,-0.7517,-0.7521,-0.7327,-0.7213,-0.7355,-0.7426,-0.7458,-0.7522,-0.7518,-0.7518,-0.7518,-0.7561,-0.7518,-0.7561,-0.7718,-0.7872,-0.799,-0.7836,-0.768,-0.7504,-0.7332,-0.7339,-0.7493,-0.7526,-0.7657,-0.7884,-0.8112,-0.8204,-0.8264,-0.8721,-0.9166,-0.9406,-0.9519,-0.9781,-1.0214,-1.0009,-0.9913,-1.0013,-0.9807,-0.977,-1.0068,-1.0201,-1.0416,-1.0681,-1.0863,-1.1071,-1.1244,-1.1308,-1.1584,-1.2118,-1.2308,-1.2508,-1.2835,-1.2986,-1.3042,-1.3103,-1.3216,-1.3329,-1.339,-1.367,-1.4091,-1.4627,-1.4902,-1.5049,-1.5177,-1.5323,-1.5546,-1.5906,-1.6334,-1.6886,-1.7353,-1.7925,-1.848,-1.8839,-1.9383,-1.9803,-1.9825,-1.9966,-2.0064,-2.0118,-2.0118,-2.0107,-2.0107,-2.0063,-1.9972,-1.9854,-1.9705,-1.9476,-1.8962,-1.8697,-1.8542,-1.8662,-1.8744,-1.9011,-1.9316,-1.9681,-1.9888,-1.999,-2.0118,-2.0271,-2.0385,-2.0486,-2.0562,-0.4743,-0.4788,-0.5188,-0.5366,-0.5497,-0.5855,-0.6077,-0.6163,-0.6432,-0.6612,-0.6776,-0.6963,-0.7061,-0.7129,-0.7147,-0.7083,-0.6925,-0.7138,-0.7328,-0.7458,-0.748,-0.748,-0.7518,-0.7518,-0.7518,-0.7518,-0.7561,-0.7638,-0.7681,-0.7642,-0.7488,-0.73,-0.722,-0.7164,-0.7091,-0.7106,-0.7138,-0.7269,-0.7559,-0.7717,-0.7782,-0.8204,-0.856,-0.8807,-0.9064,-0.9386,-0.9723,-0.9786,-0.991,-1.0066,-1.0009,-1.0023,-1.0243,-1.0412,-1.0549,-1.0651,-1.0787,-1.0992,-1.1254,-1.1401,-1.1687,-1.2177,-1.2286,-1.2432,-1.2689,-1.2805,-1.2867,-1.2867,-1.2981,-1.3094,-1.3125,-1.3194,-1.3489,-1.4031,-1.4309,-1.4458,-1.4538,-1.4754,-1.5064,-1.546,-1.5875,-1.636,-1.7018,-1.775,-1.8224,-1.86,-1.9104,-1.9473,-1.9506,-1.9648,-1.9736,-1.9736,-1.9736,-1.978,-1.9813,-1.9846,-1.9803,-1.9769,-1.9712,-1.9566,-1.9097,-1.8725,-1.8563,-1.8498,-1.8556,-1.8708,-1.9006,-1.921,-1.9408,-1.9655,-1.9784,-1.9939,-2.0131,-2.0207,-2.0246,-0.3762,-0.3851,-0.4297,-0.4476,-0.452,-0.5008,-0.5188,-0.523,-0.5544,-0.5769,-0.5941,-0.6257,-0.6433,-0.6477,-0.6642,-0.6619,-0.6447,-0.6626,-0.6907,-0.7157,-0.7249,-0.7292,-0.7411,-0.7484,-0.7518,-0.7518,-0.7518,-0.7518,-0.7514,-0.7484,-0.7372,-0.7226,-0.7148,-0.7074,-0.6894,-0.6845,-0.6843,-0.6946,-0.7138,-0.7265,-0.7363,-0.7657,-0.7949,-0.8204,-0.8468,-0.8823,-0.918,-0.9377,-0.9612,-0.9892,-0.9995,-1.009,-1.0275,-1.0479,-1.0675,-1.0835,-1.096,-1.1137,-1.1435,-1.1586,-1.1776,-1.2143,-1.2243,-1.2305,-1.2467,-1.256,-1.2652,-1.2713,-1.2805,-1.2867,-1.2828,-1.2897,-1.3103,-1.3376,-1.37,-1.3881,-1.3959,-1.4225,-1.4599,-1.5003,-1.5475,-1.6043,-1.6712,-1.734,-1.7842,-1.82,-1.8654,-1.8998,-1.9065,-1.9308,-1.9407,-1.9506,-1.9605,-1.9615,-1.9615,-1.9615,-1.9615,-1.9597,-1.9598,-1.9414,-1.9119,-1.8868,-1.8632,-1.8592,-1.8623,-1.8598,-1.8834,-1.88,-1.8922,-1.9172,-1.9417,-1.9499,-1.9629,-1.9784,-1.9849,-0.2868,-0.2913,-0.3363,-0.3542,-0.3631,-0.4032,-0.4208,-0.4297,-0.4699,-0.4919,-0.5008,-0.5411,-0.5628,-0.5645,-0.5828,-0.5877,-0.5945,-0.6119,-0.6255,-0.6486,-0.6672,-0.6903,-0.718,-0.733,-0.7407,-0.7403,-0.7442,-0.7446,-0.7446,-0.7498,-0.7395,-0.72,-0.7085,-0.696,-0.6869,-0.6735,-0.6745,-0.6811,-0.6881,-0.6913,-0.6913,-0.711,-0.7335,-0.7666,-0.7857,-0.8182,-0.856,-0.8709,-0.9089,-0.9653,-0.9788,-0.9966,-1.0231,-1.0467,-1.0737,-1.1109,-1.125,-1.137,-1.1624,-1.1657,-1.1803,-1.2019,-1.2058,-1.2151,-1.2243,-1.2336,-1.2406,-1.2529,-1.256,-1.256,-1.259,-1.2683,-1.2775,-1.2836,-1.3164,-1.3376,-1.3549,-1.3831,-1.421,-1.4632,-1.5245,-1.5824,-1.6349,-1.6934,-1.7322,-1.7594,-1.8046,-1.8341,-1.8543,-1.8798,-1.9152,-1.9252,-1.9241,-1.9241,-1.9208,-1.9274,-1.9274,-1.9309,-1.9367,-1.9339,-1.919,-1.8965,-1.8685,-1.8641,-1.8626,-1.8625,-1.8601,-1.8603,-1.8577,-1.8729,-1.8922,-1.9006,-1.9131,-1.9316,-1.9434,-0.2378,-0.2423,-0.2691,-0.2782,-0.2826,-0.3138,-0.3269,-0.3358,-0.3762,-0.3987,-0.4076,-0.4476,-0.4654,-0.4694,-0.5068,-0.5175,-0.5186,-0.5579,-0.5721,-0.5697,-0.5864,-0.6367,-0.6868,-0.7019,-0.7057,-0.7057,-0.7215,-0.7257,-0.7296,-0.7407,-0.7395,-0.7228,-0.7058,-0.6937,-0.6783,-0.6584,-0.649,-0.6548,-0.6679,-0.6741,-0.6778,-0.6881,-0.7012,-0.711,-0.7302,-0.7461,-0.7661,-0.7987,-0.8581,-0.9376,-0.9675,-0.9875,-1.0032,-1.0233,-1.0517,-1.0836,-1.0933,-1.1021,-1.1247,-1.1365,-1.1529,-1.1716,-1.1809,-1.1965,-1.212,-1.2151,-1.2158,-1.222,-1.222,-1.2282,-1.2367,-1.2428,-1.2498,-1.2652,-1.2891,-1.3196,-1.3457,-1.3678,-1.3953,-1.4555,-1.4959,-1.5317,-1.5757,-1.6235,-1.6621,-1.6786,-1.7226,-1.774,-1.7876,-1.825,-1.8573,-1.8684,-1.8707,-1.8741,-1.8774,-1.8908,-1.8975,-1.8975,-1.911,-1.9288,-1.9198,-1.9137,-1.8784,-1.8529,-1.8607,-1.8602,-1.8556,-1.8532,-1.8497,-1.8419,-1.8469,-1.8577,-1.8714,-1.8866,-1.8999,-0.157,-0.157,-0.184,-0.1974,-0.2064,-0.2331,-0.2511,-0.2644,-0.296,-0.3139,-0.3229,-0.3539,-0.3764,-0.3898,-0.4251,-0.4372,-0.434,-0.4863,-0.5024,-0.4998,-0.5243,-0.5783,-0.6363,-0.6637,-0.6753,-0.6788,-0.6984,-0.7065,-0.7099,-0.7292,-0.7275,-0.7217,-0.7118,-0.7008,-0.6837,-0.6627,-0.6489,-0.6436,-0.6515,-0.6576,-0.6581,-0.6651,-0.6745,-0.6811,-0.6942,-0.7003,-0.7138,-0.7466,-0.8042,-0.8716,-0.9172,-0.9434,-0.9568,-0.9792,-1.004,-1.0428,-1.046,-1.0611,-1.0902,-1.1059,-1.1178,-1.1373,-1.1522,-1.1677,-1.184,-1.1934,-1.1965,-1.2096,-1.2096,-1.2151,-1.2182,-1.222,-1.2344,-1.2539,-1.2711,-1.2956,-1.3355,-1.364,-1.4023,-1.4475,-1.4782,-1.5018,-1.5338,-1.5744,-1.5921,-1.6096,-1.6542,-1.689,-1.7132,-1.7579,-1.792,-1.7998,-1.8168,-1.8269,-1.8337,-1.8438,-1.8563,-1.8607,-1.8774,-1.9008,-1.9114,-1.9133,-1.904,-1.8754,-1.8678,-1.8611,-1.8615,-1.849,-1.821,-1.8151,-1.8159,-1.8158,-1.8276,-1.8317,-1.8452,-0.0718,-0.0718,-0.0942,-0.1166,-0.1346,-0.1615,-0.1884,-0.2064,-0.2334,-0.2469,-0.2512,-0.2734,-0.2959,-0.3093,-0.3405,-0.3505,-0.3573,-0.4028,-0.4281,-0.4439,-0.4693,-0.5124,-0.555,-0.6135,-0.6328,-0.6405,-0.6668,-0.6788,-0.6826,-0.7022,-0.7142,-0.7114,-0.7102,-0.7049,-0.6849,-0.6692,-0.6565,-0.6382,-0.642,-0.6453,-0.6453,-0.6453,-0.6515,-0.6646,-0.6679,-0.6741,-0.6843,-0.7068,-0.7428,-0.8009,-0.8436,-0.8694,-0.8888,-0.9081,-0.9402,-0.976,-0.9888,-1.0104,-1.0516,-1.0618,-1.0776,-1.0933,-1.1115,-1.1303,-1.1466,-1.1591,-1.1716,-1.184,-1.2003,-1.1996,-1.2058,-1.2089,-1.2234,-1.2464,-1.2546,-1.2752,-1.3127,-1.3702,-1.4159,-1.4396,-1.4687,-1.4931,-1.5106,-1.5284,-1.5426,-1.5532,-1.5956,-1.6263,-1.6508,-1.6855,-1.7132,-1.726,-1.751,-1.7803,-1.7896,-1.7998,-1.81,-1.8202,-1.8438,-1.8674,-1.8875,-1.8959,-1.9156,-1.9119,-1.8912,-1.8839,-1.886,-1.8605,-1.823,-1.8029,-1.806,-1.7906,-1.7778,-1.7784,-1.7843,-0.0718,-0.0718,-0.0762,-0.0807,-0.0897,-0.1122,-0.1301,-0.1391,-0.1795,-0.193,-0.2019,-0.2243,-0.2378,-0.2423,-0.2643,-0.2674,-0.2741,-0.322,-0.3646,-0.3938,-0.3997,-0.4075,-0.4462,-0.5124,-0.5553,-0.5667,-0.5938,-0.6212,-0.6409,-0.6598,-0.6791,-0.6881,-0.6798,-0.6654,-0.6567,-0.6518,-0.6391,-0.6279,-0.6354,-0.6387,-0.6387,-0.6387,-0.642,-0.6486,-0.6486,-0.6486,-0.6552,-0.6712,-0.6872,-0.7129,-0.7521,-0.7917,-0.8182,-0.8279,-0.8571,-0.8958,-0.9183,-0.9338,-0.9626,-0.9977,-1.0206,-1.0269,-1.0618,-1.0926,-1.0965,-1.1153,-1.1247,-1.1341,-1.1397,-1.1584,-1.1809,-1.1996,-1.2201,-1.2449,-1.2755,-1.3031,-1.337,-1.3677,-1.4053,-1.4415,-1.4605,-1.4677,-1.4713,-1.4892,-1.4999,-1.5078,-1.5328,-1.5674,-1.5947,-1.6158,-1.6324,-1.6455,-1.6716,-1.6959,-1.7063,-1.7235,-1.7476,-1.7647,-1.7886,-1.8202,-1.8405,-1.864,-1.8731,-1.8921,-1.9092,-1.902,-1.8928,-1.8826,-1.8459,-1.8237,-1.8021,-1.7871,-1.7723,-1.7534,-1.74,-0.0359,-0.0359,-0.0359,-0.0449,-0.0583,-0.0718,-0.0897,-0.1121,-0.1346,-0.1525,-0.1615,-0.175,-0.1885,-0.2019,-0.2106,-0.2147,-0.2232,-0.2586,-0.2933,-0.3144,-0.3175,-0.3214,-0.3411,-0.3956,-0.4421,-0.4849,-0.5276,-0.5589,-0.5825,-0.6015,-0.6209,-0.6398,-0.6391,-0.6398,-0.6343,-0.6292,-0.6244,-0.6154,-0.6154,-0.6185,-0.6284,-0.6317,-0.6354,-0.6387,-0.642,-0.642,-0.642,-0.6519,-0.6548,-0.6646,-0.6839,-0.7199,-0.7559,-0.7661,-0.7889,-0.8344,-0.8474,-0.8727,-0.9049,-0.928,-0.9504,-0.9664,-1.0009,-1.0231,-1.0396,-1.0618,-1.0776,-1.087,-1.0989,-1.1178,-1.1442,-1.1672,-1.1983,-1.2365,-1.2691,-1.3093,-1.3537,-1.3833,-1.4013,-1.4307,-1.4338,-1.4389,-1.4425,-1.4533,-1.4533,-1.4569,-1.4721,-1.5034,-1.5098,-1.5303,-1.5471,-1.5648,-1.5903,-1.6123,-1.6193,-1.6403,-1.6821,-1.6994,-1.7201,-1.751,-1.7784,-1.8022,-1.8259,-1.8553,-1.8888,-1.8965,-1.8874,-1.8754,-1.8665,-1.8438,-1.8207,-1.7994,-1.7841,-1.7779,-1.7621,0.0,0.0,0.0,-0.0135,-0.0314,-0.0404,-0.0628,-0.0942,-0.1031,-0.1166,-0.1346,-0.1346,-0.1525,-0.1705,-0.175,-0.1838,-0.1975,-0.2066,-0.2299,-0.2474,-0.2472,-0.255,-0.2747,-0.3017,-0.3366,-0.407,-0.4577,-0.489,-0.5162,-0.5354,-0.5512,-0.5741,-0.5893,-0.5945,-0.601,-0.6054,-0.5923,-0.5917,-0.594,-0.5948,-0.6057,-0.6115,-0.6185,-0.6251,-0.6354,-0.6354,-0.6354,-0.642,-0.642,-0.642,-0.642,-0.6646,-0.6942,-0.7138,-0.7302,-0.7787,-0.7852,-0.8047,-0.8376,-0.8603,-0.8829,-0.9081,-0.9306,-0.9524,-0.9817,-1.0015,-1.0199,-1.0396,-1.0555,-1.0778,-1.1016,-1.1254,-1.1687,-1.2153,-1.25,-1.292,-1.3512,-1.3884,-1.3934,-1.4122,-1.4173,-1.4209,-1.4173,-1.4245,-1.4137,-1.4137,-1.4245,-1.4361,-1.4461,-1.4525,-1.4768,-1.4911,-1.5161,-1.5382,-1.5453,-1.57,-1.6079,-1.6298,-1.6473,-1.6777,-1.7123,-1.7329,-1.7638,-1.8303,-1.8573,-1.8674,-1.8808,-1.8829,-1.8732,-1.8526,-1.8394,-1.8197,-1.8113,-1.8091,-1.7867,0.0,0.0,0.0,0.0,-0.009,-0.0314,-0.0448,-0.0538,-0.0718,-0.0897,-0.1122,-0.1166,-0.1256,-0.1436,-0.1436,-0.1576,-0.1683,-0.1755,-0.1797,-0.197,-0.2004,-0.2043,-0.2121,-0.2275,-0.2508,-0.2782,-0.3446,-0.4112,-0.4462,-0.4618,-0.4771,-0.5082,-0.516,-0.5207,-0.5318,-0.543,-0.5452,-0.5485,-0.559,-0.5707,-0.5729,-0.5859,-0.5954,-0.602,-0.6115,-0.6214,-0.6251,-0.6354,-0.642,-0.642,-0.642,-0.6453,-0.6581,-0.6712,-0.6909,-0.7106,-0.7297,-0.7461,-0.7629,-0.7922,-0.8084,-0.8312,-0.8598,-0.8926,-0.9151,-0.9344,-0.953,-0.976,-1.0015,-1.0309,-1.0732,-1.0916,-1.1371,-1.1895,-1.2205,-1.2506,-1.3078,-1.3382,-1.3557,-1.384,-1.3956,-1.4065,-1.3992,-1.3956,-1.3956,-1.3956,-1.4029,-1.4101,-1.4137,-1.4165,-1.4238,-1.4346,-1.4453,-1.4597,-1.474,-1.5062,-1.5409,-1.5559,-1.5771,-1.6053,-1.6359,-1.6603,-1.7019,-1.7613,-1.8134,-1.8405,-1.8563,-1.8731,-1.8836,-1.875,-1.8599,-1.8446,-1.8394,-1.8343,-1.8093,0.0,0.0,0.0,0.0,0.0,-0.0135,-0.0269,-0.0404,-0.0538,-0.0673,-0.0852,-0.0897,-0.0942,-0.1031,-0.1031,-0.1139,-0.1309,-0.144,-0.1487,-0.1579,-0.1612,-0.1651,-0.173,-0.1846,-0.1923,-0.2158,-0.263,-0.3175,-0.368,-0.372,-0.3992,-0.4307,-0.4384,-0.4431,-0.4568,-0.4699,-0.481,-0.4931,-0.5102,-0.5274,-0.5322,-0.5506,-0.566,-0.5752,-0.5818,-0.5951,-0.605,-0.6086,-0.6156,-0.6156,-0.6247,-0.6284,-0.635,-0.6449,-0.6609,-0.6778,-0.6872,-0.697,-0.704,-0.7335,-0.7433,-0.7591,-0.7884,-0.8149,-0.8409,-0.8603,-0.8791,-0.9142,-0.9498,-0.9816,-1.0104,-1.0492,-1.1077,-1.1549,-1.1798,-1.2174,-1.2668,-1.282,-1.3112,-1.3441,-1.3593,-1.3666,-1.3739,-1.3739,-1.3775,-1.3775,-1.3811,-1.3811,-1.3848,-1.3848,-1.3884,-1.392,-1.4029,-1.4173,-1.4317,-1.4525,-1.4776,-1.4927,-1.507,-1.5382,-1.5594,-1.5833,-1.6298,-1.6899,-1.7373,-1.7818,-1.8269,-1.8438,-1.8674,-1.8918,-1.8823,-1.8723,-1.8725,-1.86,-1.8363,0.009,0.009,0.0,0.0,0.0,0.0,-0.0135,-0.0314,-0.0314,-0.0448,-0.0628,-0.0628,-0.0673,-0.0673,-0.0714,-0.0833,-0.0927,-0.1115,-0.1172,-0.1223,-0.1258,-0.1336,-0.1493,-0.1533,-0.1611,-0.1729,-0.1847,-0.2198,-0.282,-0.2978,-0.3175,-0.3409,-0.3528,-0.3682,-0.3889,-0.3957,-0.4107,-0.4326,-0.4514,-0.4713,-0.4898,-0.5066,-0.5256,-0.5418,-0.5418,-0.5521,-0.5686,-0.5756,-0.5822,-0.5888,-0.5984,-0.6079,-0.6148,-0.6284,-0.6416,-0.6576,-0.6609,-0.6708,-0.6778,-0.6881,-0.7003,-0.7138,-0.7138,-0.74,-0.7694,-0.7959,-0.8138,-0.8592,-0.8942,-0.9327,-0.9616,-1.0108,-1.0587,-1.0985,-1.1279,-1.1626,-1.207,-1.2305,-1.2489,-1.2783,-1.3083,-1.3236,-1.3266,-1.3411,-1.3411,-1.3484,-1.3521,-1.3593,-1.363,-1.3593,-1.363,-1.3601,-1.3674,-1.3819,-1.3956,-1.4065,-1.4245,-1.4361,-1.4497,-1.4705,-1.4883,-1.5054,-1.5586,-1.6088,-1.6473,-1.6915,-1.751,-1.8144,-1.8414,-1.8674,-1.8908,-1.899,-1.8909,-1.8911,-1.8766,0.0359,0.0314,0.009,0.0,0.0,0.0,0.0,-0.0045,-0.0045,-0.018,-0.0359,-0.0404,-0.0493,-0.0583,-0.0627,-0.07,-0.0723,-0.0793,-0.0897,-0.0947,-0.0982,-0.11,-0.1297,-0.1336,-0.1336,-0.1415,-0.1415,-0.1727,-0.2195,-0.2314,-0.2431,-0.2668,-0.2746,-0.2823,-0.3169,-0.3228,-0.3394,-0.3714,-0.4047,-0.431,-0.4423,-0.4439,-0.4523,-0.4715,-0.4843,-0.4976,-0.5176,-0.5306,-0.5458,-0.5587,-0.5617,-0.5749,-0.5921,-0.6119,-0.6214,-0.6276,-0.6346,-0.6449,-0.6515,-0.6646,-0.6708,-0.6811,-0.6881,-0.704,-0.7274,-0.7499,-0.772,-0.8029,-0.836,-0.8705,-0.9152,-0.9518,-0.9858,-1.0185,-1.0548,-1.085,-1.1229,-1.1558,-1.1744,-1.2003,-1.2268,-1.2562,-1.2746,-1.29,-1.3046,-1.3156,-1.3266,-1.3346,-1.3419,-1.3455,-1.3492,-1.3528,-1.3528,-1.3637,-1.371,-1.3783,-1.3855,-1.3935,-1.4,-1.4137,-1.4317,-1.4525,-1.4705,-1.5196,-1.5621,-1.6228,-1.6968,-1.7554,-1.8066,-1.8405,-1.864,-1.8875,-1.9054,-1.9044,-1.9023,0.1076,0.0583,0.0449,0.0404,0.0404,0.0404,0.0404,0.0404,0.0404,0.0314,0.0224,0.0224,0.0179,0.0045,-0.0133,-0.0303,-0.038,-0.0541,-0.0691,-0.0712,-0.0746,-0.0786,-0.0904,-0.1022,-0.11,-0.114,-0.1258,-0.1375,-0.1688,-0.1806,-0.1963,-0.212,-0.2159,-0.2238,-0.2472,-0.2547,-0.265,-0.2891,-0.3228,-0.3595,-0.3777,-0.3815,-0.3927,-0.4209,-0.4256,-0.4398,-0.4651,-0.4715,-0.4861,-0.5024,-0.509,-0.5292,-0.5557,-0.5752,-0.5881,-0.6053,-0.6185,-0.6317,-0.642,-0.6482,-0.6511,-0.6548,-0.6618,-0.6712,-0.6927,-0.7171,-0.7382,-0.7516,-0.7964,-0.832,-0.8644,-0.8877,-0.9238,-0.9588,-0.9765,-1.0105,-1.0406,-1.0625,-1.0887,-1.1149,-1.1409,-1.1706,-1.2003,-1.2298,-1.2526,-1.2783,-1.2973,-1.3193,-1.3302,-1.3411,-1.3455,-1.3492,-1.3492,-1.3528,-1.3564,-1.3601,-1.3637,-1.3674,-1.3674,-1.3811,-1.3928,-1.4101,-1.4317,-1.4597,-1.5054,-1.5727,-1.6447,-1.7072,-1.7613,-1.8032,-1.8381,-1.8607,-1.8808,-1.8908,-1.8867,0.2063,0.121,0.0941,0.0807,0.0807,0.0807,0.0807,0.0807,0.0852,0.0852,0.0852,0.0852,0.0852,0.0759,0.0483,0.0258,0.021,-0.0206,-0.0361,-0.0395,-0.0432,-0.0511,-0.0589,-0.0746,-0.0825,-0.0825,-0.0982,-0.1139,-0.1218,-0.1375,-0.1533,-0.173,-0.1768,-0.1807,-0.1847,-0.2003,-0.2154,-0.2343,-0.2638,-0.2921,-0.3088,-0.3094,-0.3338,-0.3536,-0.3646,-0.3741,-0.4074,-0.4096,-0.4141,-0.4377,-0.4473,-0.4728,-0.5123,-0.5289,-0.5521,-0.569,-0.5918,-0.6083,-0.6218,-0.635,-0.6387,-0.642,-0.6432,-0.6539,-0.6706,-0.6954,-0.7212,-0.7329,-0.7632,-0.7928,-0.8128,-0.8401,-0.8628,-0.8884,-0.9051,-0.9392,-0.9695,-0.9916,-1.0067,-1.0293,-1.0513,-1.07,-1.1074,-1.1552,-1.1929,-1.2335,-1.2636,-1.2973,-1.3156,-1.3302,-1.3375,-1.3411,-1.3455,-1.3455,-1.3492,-1.3492,-1.3492,-1.3492,-1.3492,-1.3528,-1.371,-1.3783,-1.3928,-1.4245,-1.4589,-1.5054,-1.57,-1.6429,-1.7201,-1.7579,-1.7964,-1.8269,-1.8506,-1.8607,-1.8764,0.3227,0.2644,0.1569,0.1121,0.1121,0.1076,0.1076,0.1166,0.1301,0.139,0.1436,0.1391,0.1435,0.1292,0.1138,0.0942,0.0926,0.0658,0.0361,0.0197,0.0039,-0.0118,-0.0275,-0.0432,-0.0589,-0.0589,-0.0668,-0.0786,-0.0904,-0.0983,-0.114,-0.1297,-0.1415,-0.1493,-0.1572,-0.165,-0.1845,-0.2032,-0.2229,-0.2319,-0.2439,-0.2449,-0.2567,-0.2818,-0.2914,-0.3047,-0.3439,-0.343,-0.3524,-0.3795,-0.3859,-0.4152,-0.456,-0.4737,-0.4964,-0.5326,-0.5521,-0.5697,-0.5885,-0.6168,-0.6358,-0.6391,-0.6448,-0.6522,-0.675,-0.6736,-0.697,-0.734,-0.7577,-0.775,-0.7934,-0.8136,-0.8212,-0.8331,-0.8484,-0.8632,-0.8937,-0.917,-0.9359,-0.9468,-0.962,-0.9836,-1.0024,-1.047,-1.1143,-1.1552,-1.2224,-1.2562,-1.2973,-1.3163,-1.3266,-1.3339,-1.3419,-1.3455,-1.3455,-1.3455,-1.3419,-1.3419,-1.3455,-1.3492,-1.3528,-1.3601,-1.3717,-1.3928,-1.4281,-1.4597,-1.4991,-1.5754,-1.6455,-1.7054,-1.751,-1.775,-1.8056,-1.8269,-1.8506,0.4076,0.3671,0.2957,0.2377,0.1974,0.1974,0.1974,0.2018,0.2196,0.233,0.2331,0.2331,0.2331,0.2222,0.1859,0.1696,0.159,0.1011,0.0795,0.0631,0.0471,0.0314,0.0196,0.0039,-0.0079,-0.0236,-0.0314,-0.0511,-0.0707,-0.0707,-0.0746,-0.0904,-0.11,-0.1297,-0.1375,-0.1415,-0.161,-0.1764,-0.1831,-0.1897,-0.2048,-0.2078,-0.2137,-0.2402,-0.2356,-0.2499,-0.2745,-0.2833,-0.2988,-0.3171,-0.3281,-0.3629,-0.4015,-0.4144,-0.4453,-0.4852,-0.5055,-0.5255,-0.5565,-0.5903,-0.6166,-0.6402,-0.6493,-0.666,-0.683,-0.6932,-0.7077,-0.7282,-0.7472,-0.7639,-0.7681,-0.7753,-0.7757,-0.7876,-0.7991,-0.8102,-0.8255,-0.856,-0.8713,-0.8861,-0.8899,-0.897,-0.9155,-0.9382,-1.0094,-1.0769,-1.1515,-1.2157,-1.2569,-1.29,-1.301,-1.3076,-1.3156,-1.3156,-1.3156,-1.3236,-1.3309,-1.3346,-1.3382,-1.3382,-1.3382,-1.3499,-1.3608,-1.379,-1.3935,-1.4245,-1.4633,-1.5152,-1.5789,-1.6464,-1.6881,-1.7157,-1.751,-1.7852,-1.809,0.4837,0.4569,0.4123,0.3497,0.2872,0.2827,0.2827,0.2871,0.3183,0.3314,0.3314,0.3314,0.3269,0.3099,0.2704,0.244,0.2202,0.1692,0.1383,0.1217,0.11,0.0943,0.0825,0.0707,0.0471,0.0275,0.0118,-0.0039,-0.0275,-0.0393,-0.0471,-0.0629,-0.0864,-0.1061,-0.1179,-0.1258,-0.1375,-0.1493,-0.1533,-0.1573,-0.1728,-0.1726,-0.1802,-0.1992,-0.2002,-0.2067,-0.2242,-0.2356,-0.2435,-0.2595,-0.2776,-0.3018,-0.3342,-0.3624,-0.3895,-0.4264,-0.4546,-0.4717,-0.5095,-0.5617,-0.6055,-0.6325,-0.6561,-0.6722,-0.6941,-0.7118,-0.7208,-0.7313,-0.7457,-0.7518,-0.748,-0.7561,-0.7599,-0.7718,-0.7718,-0.7791,-0.7868,-0.8102,-0.8178,-0.8255,-0.8327,-0.8441,-0.8589,-0.8856,-0.9496,-1.0244,-1.0962,-1.1595,-1.212,-1.2415,-1.2599,-1.2673,-1.2783,-1.282,-1.282,-1.2973,-1.3083,-1.3127,-1.3163,-1.3229,-1.3273,-1.3346,-1.3426,-1.3499,-1.3674,-1.3928,-1.4281,-1.4705,-1.5267,-1.5912,-1.6263,-1.6603,-1.6821,-1.7132,-1.751,0.5547,0.5327,0.4884,0.4302,0.3676,0.3587,0.3587,0.3631,0.4032,0.421,0.4208,0.421,0.4074,0.3857,0.3512,0.3238,0.2951,0.2447,0.2117,0.2038,0.1727,0.1611,0.1493,0.1375,0.1178,0.0943,0.0825,0.0667,0.0275,0.0118,-0.0039,-0.0236,-0.0471,-0.0746,-0.0904,-0.114,-0.1297,-0.1297,-0.1297,-0.1336,-0.1336,-0.1375,-0.1533,-0.1608,-0.1643,-0.1754,-0.1861,-0.1915,-0.2007,-0.2147,-0.2289,-0.2516,-0.2795,-0.3035,-0.3381,-0.3851,-0.3965,-0.4195,-0.4607,-0.547,-0.5914,-0.6226,-0.6448,-0.6672,-0.6869,-0.7062,-0.7222,-0.7255,-0.7391,-0.7446,-0.7484,-0.748,-0.7484,-0.7484,-0.7522,-0.7561,-0.7676,-0.7714,-0.7829,-0.7906,-0.8025,-0.814,-0.8178,-0.8441,-0.9046,-0.9722,-1.0438,-1.1037,-1.1558,-1.1818,-1.1966,-1.2187,-1.2298,-1.2372,-1.2415,-1.2709,-1.2863,-1.29,-1.2973,-1.3046,-1.3046,-1.3083,-1.3163,-1.3236,-1.3382,-1.3557,-1.3811,-1.4181,-1.4713,-1.524,-1.57,-1.6017,-1.6193,-1.6403,-1.6751,0.6121,0.6033,0.5727,0.5458,0.5191,0.4569,0.4348,0.4346,0.4612,0.4788,0.4788,0.4741,0.4741,0.4548,0.4252,0.3984,0.3782,0.3085,0.282,0.2741,0.2392,0.2237,0.2158,0.2119,0.1884,0.1648,0.1529,0.1374,0.0943,0.0746,0.0589,0.0432,-0.0039,-0.0393,-0.0629,-0.0786,-0.0825,-0.0864,-0.0943,-0.1022,-0.1061,-0.1179,-0.1336,-0.1415,-0.1415,-0.1454,-0.1533,-0.1592,-0.1704,-0.1814,-0.1891,-0.2096,-0.231,-0.252,-0.278,-0.3176,-0.332,-0.3709,-0.417,-0.4814,-0.5295,-0.5804,-0.6254,-0.65,-0.6825,-0.6931,-0.7053,-0.7073,-0.713,-0.7134,-0.7096,-0.7257,-0.7296,-0.7334,-0.7373,-0.7484,-0.7557,-0.7561,-0.7638,-0.7638,-0.7714,-0.7834,-0.791,-0.7987,-0.8518,-0.8937,-0.9576,-1.0212,-1.0775,-1.1074,-1.126,-1.1558,-1.1744,-1.1855,-1.2003,-1.2261,-1.2489,-1.2569,-1.2753,-1.2936,-1.2936,-1.2826,-1.29,-1.301,-1.3083,-1.3156,-1.3448,-1.3783,-1.4065,-1.4525,-1.4919,-1.5311,-1.548,-1.5665,-1.5912,0.652,0.652,0.6302,0.6213,0.608,0.5369,0.506,0.506,0.5193,0.5235,0.5235,0.5235,0.5164,0.5,0.4789,0.4497,0.4383,0.3796,0.3446,0.3407,0.3137,0.302,0.2942,0.2823,0.2586,0.239,0.2195,0.2002,0.1728,0.1412,0.1099,0.0786,0.0432,0.0079,-0.0236,-0.0432,-0.0629,-0.0668,-0.0746,-0.0786,-0.0864,-0.0943,-0.1061,-0.114,-0.1179,-0.1218,-0.1297,-0.1415,-0.1493,-0.1524,-0.1628,-0.1763,-0.1945,-0.2121,-0.232,-0.2543,-0.2884,-0.3283,-0.3673,-0.3975,-0.4512,-0.5126,-0.572,-0.6142,-0.6454,-0.6531,-0.6615,-0.6665,-0.6707,-0.6749,-0.6791,-0.6992,-0.7065,-0.7099,-0.7176,-0.7288,-0.7407,-0.7407,-0.7446,-0.7442,-0.748,-0.7599,-0.768,-0.7718,-0.7949,-0.8293,-0.8675,-0.9311,-0.9954,-1.0288,-1.055,-1.085,-1.1111,-1.126,-1.1484,-1.1744,-1.1966,-1.2194,-1.2378,-1.2599,-1.2673,-1.2562,-1.2673,-1.2783,-1.282,-1.2936,-1.3119,-1.3375,-1.3666,-1.3848,-1.4065,-1.4418,-1.4732,-1.4991,-1.5204,0.6792,0.6748,0.652,0.6428,0.634,0.5944,0.5725,0.5733,0.5733,0.5727,0.5722,0.5711,0.5561,0.5271,0.5152,0.4886,0.4551,0.4202,0.4088,0.3999,0.3802,0.3763,0.3643,0.3524,0.3329,0.3134,0.294,0.2785,0.2511,0.204,0.1569,0.1099,0.0785,0.0511,0.0196,-0.0118,-0.0393,-0.0432,-0.055,-0.0589,-0.0629,-0.0668,-0.0786,-0.0864,-0.0904,-0.1022,-0.114,-0.1258,-0.1297,-0.1374,-0.149,-0.1569,-0.1688,-0.1807,-0.1962,-0.2232,-0.2577,-0.2807,-0.3039,-0.3287,-0.356,-0.4196,-0.4864,-0.5348,-0.5699,-0.5896,-0.6047,-0.6167,-0.6244,-0.6405,-0.6525,-0.6676,-0.6788,-0.6826,-0.6903,-0.7019,-0.7142,-0.7219,-0.7292,-0.733,-0.7407,-0.7484,-0.7561,-0.7599,-0.7642,-0.7834,-0.8178,-0.8484,-0.9089,-0.9576,-0.9879,-1.0143,-1.0406,-1.0663,-1.0925,-1.1223,-1.1484,-1.1706,-1.1892,-1.2114,-1.2187,-1.2335,-1.2409,-1.2489,-1.2562,-1.268,-1.29,-1.3046,-1.3156,-1.3339,-1.3564,-1.3848,-1.4274,-1.4389,-1.4569,0.701,0.701,0.6918,0.6874,0.6827,0.6609,0.639,0.6213,0.6213,0.6169,0.604,0.6037,0.5835,0.5588,0.5462,0.5227,0.4954,0.4686,0.456,0.4465,0.4387,0.427,0.419,0.4148,0.3995,0.388,0.3686,0.3491,0.3098,0.2626,0.2117,0.1648,0.1295,0.1021,0.0746,0.0432,0.0118,-0.0118,-0.0275,-0.0354,-0.0393,-0.0471,-0.0589,-0.0668,-0.0668,-0.0825,-0.0943,-0.1022,-0.11,-0.1297,-0.1336,-0.1375,-0.1415,-0.1573,-0.1767,-0.1963,-0.2119,-0.2235,-0.243,-0.2508,-0.2743,-0.3136,-0.3679,-0.4263,-0.473,-0.5121,-0.5354,-0.5509,-0.5667,-0.5747,-0.5941,-0.6096,-0.6289,-0.6405,-0.6483,-0.6637,-0.6795,-0.6868,-0.6945,-0.7099,-0.7176,-0.733,-0.7403,-0.7442,-0.7484,-0.7599,-0.7757,-0.7991,-0.8298,-0.8822,-0.9198,-0.9506,-0.9765,-1.0024,-1.0331,-1.0625,-1.0962,-1.126,-1.1409,-1.1632,-1.1855,-1.1966,-1.2077,-1.2187,-1.2342,-1.2489,-1.2673,-1.279,-1.29,-1.301,-1.3229,-1.3484,-1.3739,-1.3891,-1.4109,0.6923,0.692,0.6966,0.6923,0.6923,0.6837,0.6668,0.6498,0.6374,0.6239,0.6123,0.6114,0.6002,0.5756,0.563,0.5485,0.5345,0.5171,0.5051,0.5051,0.4893,0.4893,0.4854,0.4774,0.4698,0.4545,0.4389,0.4153,0.3761,0.3173,0.2665,0.2391,0.1922,0.1569,0.1295,0.11,0.0746,0.0432,0.0157,-0.0039,-0.0157,-0.0275,-0.0354,-0.0471,-0.0471,-0.0589,-0.0746,-0.0786,-0.0904,-0.1022,-0.1022,-0.1061,-0.114,-0.1336,-0.1493,-0.165,-0.1768,-0.1847,-0.1962,-0.208,-0.2199,-0.2395,-0.2627,-0.3056,-0.36,-0.4109,-0.446,-0.4776,-0.489,-0.5049,-0.5243,-0.5476,-0.5673,-0.5909,-0.606,-0.6254,-0.6367,-0.6483,-0.6637,-0.6791,-0.6945,-0.7099,-0.7215,-0.7249,-0.7249,-0.7288,-0.7369,-0.7526,-0.7795,-0.8217,-0.8594,-0.8899,-0.9122,-0.9387,-0.969,-1.003,-1.0363,-1.0663,-1.0887,-1.1149,-1.1409,-1.1676,-1.1781,-1.1929,-1.212,-1.2268,-1.2452,-1.2562,-1.2709,-1.282,-1.29,-1.3156,-1.3375,-1.3601,-1.3819,0.6747,0.675,0.6702,0.6725,0.6705,0.6719,0.6667,0.6654,0.6401,0.6177,0.6073,0.606,0.5984,0.583,0.5784,0.5695,0.5571,0.5452,0.5443,0.5601,0.5443,0.5404,0.5365,0.5401,0.5207,0.5129,0.5012,0.4698,0.4462,0.3878,0.329,0.3132,0.2546,0.2156,0.1961,0.1766,0.1492,0.1178,0.0785,0.051,0.0314,0.0118,-0.0039,-0.0196,-0.0275,-0.0314,-0.0511,-0.0589,-0.0589,-0.0589,-0.0629,-0.0746,-0.0904,-0.1061,-0.1179,-0.1297,-0.1415,-0.1533,-0.1611,-0.1729,-0.1807,-0.1964,-0.2081,-0.2275,-0.2784,-0.3331,-0.3802,-0.4034,-0.419,-0.4384,-0.4618,-0.4854,-0.509,-0.5285,-0.544,-0.5631,-0.5783,-0.5938,-0.6131,-0.6328,-0.6641,-0.6795,-0.6942,-0.698,-0.7096,-0.7019,-0.7057,-0.718,-0.7334,-0.7676,-0.8021,-0.8327,-0.8594,-0.8822,-0.9122,-0.9463,-0.9803,-1.0062,-1.0331,-1.0594,-1.0856,-1.1149,-1.149,-1.1669,-1.1855,-1.204,-1.2194,-1.2335,-1.2452,-1.2599,-1.2709,-1.282,-1.3003,-1.3229,-1.3455,0.6902,0.6902,0.674,0.6702,0.6698,0.6702,0.6627,0.6532,0.6481,0.6404,0.6367,0.6351,0.6171,0.5946,0.5891,0.5817,0.5688,0.5679,0.5601,0.564,0.564,0.5679,0.564,0.5637,0.5559,0.5521,0.5365,0.5168,0.4813,0.4268,0.3841,0.3604,0.3134,0.2782,0.2627,0.2434,0.2196,0.2,0.1725,0.1177,0.0746,0.055,0.0354,0.0236,0.0118,-0.0039,-0.0196,-0.0354,-0.0471,-0.055,-0.0589,-0.0629,-0.0668,-0.0746,-0.0864,-0.0982,-0.1061,-0.1179,-0.1336,-0.1454,-0.1493,-0.1651,-0.1768,-0.1847,-0.2159,-0.2708,-0.3098,-0.3292,-0.3526,-0.3761,-0.3997,-0.4231,-0.4467,-0.4621,-0.4815,-0.501,-0.5201,-0.5395,-0.5628,-0.5902,-0.6215,-0.6447,-0.6595,-0.6749,-0.6865,-0.6903,-0.6903,-0.6984,-0.6984,-0.7211,-0.7522,-0.7829,-0.8102,-0.8369,-0.8594,-0.8818,-0.9155,-0.9425,-0.9657,-0.9954,-1.0255,-1.0556,-1.085,-1.1298,-1.1558,-1.1706,-1.1855,-1.204,-1.2187,-1.2298,-1.2452,-1.2562,-1.2673,-1.2856,-1.3083,0.71,0.706,0.686,0.6743,0.6662,0.6662,0.657,0.6429,0.6416,0.6416,0.6419,0.6412,0.6289,0.6064,0.6099,0.6022,0.5909,0.5912,0.5951,0.5912,0.587,0.5951,0.5912,0.5873,0.5951,0.5912,0.5754,0.5515,0.5121,0.4774,0.4384,0.4153,0.3761,0.3448,0.3335,0.3176,0.2979,0.2862,0.2665,0.2195,0.1491,0.1139,0.0786,0.0589,0.0432,0.0275,0.0196,0.0039,-0.0079,-0.0275,-0.0354,-0.0432,-0.0471,-0.0589,-0.0668,-0.0746,-0.0825,-0.0864,-0.1022,-0.114,-0.1218,-0.1375,-0.1493,-0.1572,-0.1611,-0.212,-0.2434,-0.2627,-0.2743,-0.2938,-0.3214,-0.3448,-0.3643,-0.3798,-0.4112,-0.4387,-0.4582,-0.4774,-0.5007,-0.5243,-0.5553,-0.5786,-0.5938,-0.6057,-0.6212,-0.6402,-0.6479,-0.6676,-0.671,-0.6749,-0.7061,-0.7296,-0.7565,-0.7795,-0.7983,-0.8208,-0.847,-0.8742,-0.9018,-0.9316,-0.9614,-0.9916,-1.0255,-1.07,-1.1037,-1.126,-1.1446,-1.1632,-1.1818,-1.1972,-1.2157,-1.2305,-1.2415,-1.2526,-1.2709,0.7346,0.7257,0.7026,0.6834,0.6679,0.6644,0.6574,0.6419,0.6342,0.6345,0.6349,0.6349,0.63,0.63,0.63,0.63,0.6261,0.6183,0.6222,0.6222,0.6222,0.6183,0.6183,0.6261,0.6222,0.6141,0.5983,0.5709,0.5395,0.5085,0.4854,0.4698,0.4428,0.4157,0.4079,0.3999,0.38,0.3682,0.3487,0.3331,0.2627,0.1805,0.1374,0.1061,0.0864,0.0746,0.0667,0.0511,0.0393,0.0236,0.0,-0.0118,-0.0236,-0.0314,-0.0471,-0.055,-0.055,-0.0668,-0.0825,-0.0864,-0.0983,-0.114,-0.1218,-0.1258,-0.1297,-0.1493,-0.1806,-0.1962,-0.2079,-0.2275,-0.251,-0.2743,-0.2899,-0.3095,-0.3409,-0.3724,-0.3958,-0.4153,-0.4348,-0.4582,-0.4854,-0.5124,-0.5282,-0.5401,-0.5634,-0.5828,-0.6022,-0.6254,-0.6444,-0.6479,-0.6633,-0.6795,-0.6992,-0.718,-0.7407,-0.7676,-0.794,-0.8055,-0.8327,-0.867,-0.8937,-0.9165,-0.9501,-1.0105,-1.0443,-1.0588,-1.0925,-1.1186,-1.1372,-1.1564,-1.1781,-1.1966,-1.2077,-1.2187,-1.2335,0.7978,0.7629,0.7292,0.7142,0.7065,0.6907,0.683,0.6753,0.6598,0.6563,0.6528,0.6374,0.63,0.6296,0.63,0.63,0.63,0.63,0.63,0.63,0.63,0.63,0.63,0.63,0.63,0.6219,0.6099,0.5899,0.5667,0.5398,0.5165,0.4968,0.4737,0.4543,0.4387,0.4387,0.4504,0.4426,0.4387,0.427,0.3878,0.3095,0.2235,0.1922,0.1686,0.1452,0.1218,0.0943,0.0825,0.0668,0.0432,0.0236,0.0079,-0.0039,-0.0196,-0.0314,-0.0314,-0.0471,-0.0589,-0.0629,-0.0786,-0.0825,-0.0904,-0.0983,-0.1061,-0.1218,-0.1414,-0.1492,-0.161,-0.1885,-0.212,-0.2235,-0.2391,-0.2549,-0.2785,-0.3057,-0.329,-0.3448,-0.3643,-0.3956,-0.4268,-0.4462,-0.4616,-0.4854,-0.5254,-0.5452,-0.5545,-0.5785,-0.6058,-0.6146,-0.6197,-0.6369,-0.6503,-0.6718,-0.6945,-0.7176,-0.7407,-0.7484,-0.7638,-0.7983,-0.8212,-0.8293,-0.8708,-0.9311,-0.9652,-0.9803,-1.0175,-1.055,-1.0887,-1.1074,-1.1372,-1.1558,-1.1706,-1.1855,-1.2003]}]]